[[{"header":{"parameterUnit":"m.s-1","parameterCategory":1,"la1":31.0,"la2":29.5877,"lo1":-88.7671,"lo2":-86.6584,"dx":0.0162,"dy":0.0185,"nx":115,"ny":88,"refTime":"2023-01-19T06:00:00:Z","depth":0,"parameterNumber":2,"parameterNumberName":"U-component_of_WINDS"},"data":[0.0,0.0,0.0,0.0,0.0,0.0,0.0,0.0,0.0,0.0,0.0,0.0,0.0,0.0,0.0,0.0,0.0,0.0,0.0,0.0,0.0,0.0,0.0,0.0,0.0,0.0,0.0,0.0,0.0,0.0,0.0,0.0,0.0,0.0,0.0,0.0,0.0,0.0,0.0,0.0,0.0,0.0,0.0,0.0,0.0,0.0,0.0,0.0,0.0,0.0,0.0,0.0,0.0,0.0,0.0,0.0,0.0,0.0,0.0,0.0,0.0,0.0,0.0,0.0,0.0,0.0,0.0,0.0,0.0,0.0,0.0,0.0,0.0,0.0,0.0,0.0,0.0,0.0,0.0,0.0,0.0,0.0,0.0,0.0,0.0,0.0,0.0,0.0,0.0,0.0,0.0,0.0,0.0,0.0,0.0,0.0,0.0,0.0,0.0,0.0,0.0,0.0,0.0,0.0,0.0,0.0,0.0,0.0,0.0,0.0,0.0,0.0,0.0,0.0,0.0,0.0,0.0,0.0,0.0,0.0,0.0,0.0,0.0,0.0,0.0,0.0,0.0,0.0,0.0,0.0,0.0,0.0,0.0,0.0,0.0,0.0,0.0,0.0,0.0,0.0,0.0,0.0,0.0,0.0,0.0,0.0,0.0,0.0,0.0,0.0,0.0,0.0,0.0,0.0,0.0,0.0,0.0,0.0,0.0,0.0,0.0,0.0,0.0,0.0,0.0,0.0,0.0,0.0,0.0,0.0,0.0,0.0,0.0,0.0,0.0,0.0,0.0,0.0,0.0,0.0,0.0,0.0,0.0,0.0,0.0,0.0,0.0,0.0,0.0,0.0,0.0,0.0,0.0,0.0,0.0,0.0,0.0,0.0,0.0,0.0,0.0,0.0,0.0,0.0,0.0,0.0,0.0,0.0,0.0,0.0,0.0,0.0,0.0,0.0,0.0,0.0,0.0,0.0,0.0,0.0,0.0,0.0,0.0,0.0,0.0,0.0,0.0,0.0,0.0,0.0,0.0,0.0,0.0,0.0,0.0,0.0,0.0,0.0,0.0,0.0,0.0,0.0,0.0,0.0,0.0,0.0,0.0,0.0,0.0,0.0,0.0,0.0,0.0,0.0,0.0,0.0,0.0,0.0,0.0,0.0,0.0,0.0,0.0,0.0,0.0,0.0,0.0,0.0,0.0,0.0,0.0,0.0,0.0,0.0,0.0,0.0,0.0,0.0,0.0,0.0,0.0,0.0,0.0,0.0,0.0,0.0,0.0,0.0,0.0,0.0,0.0,0.0,0.0,0.0,0.0,0.0,0.0,0.0,0.0,0.0,0.0,0.0,0.0,0.0,0.0,0.0,0.0,0.0,0.0,0.0,0.0,0.0,0.0,0.0,0.0,0.0,0.0,0.0,0.0,0.0,0.0,0.0,0.0,0.0,0.0,0.0,0.0,0.0,0.0,0.0,0.0,0.0,0.0,0.0,0.0,0.0,0.0,0.0,0.0,0.0,0.0,0.0,0.0,0.0,0.0,0.0,0.0,0.0,0.0,0.0,0.0,0.0,0.0,0.0,0.0,0.0,0.0,0.0,0.0,0.0,0.0,0.0,0.0,0.0,0.0,0.0,0.0,0.0,0.0,0.0,0.0,0.0,0.0,0.0,0.0,0.0,0.0,0.0,0.0,0.0,0.0,0.0,0.0,0.0,0.0,0.0,0.0,0.0,0.0,0.0,0.0,0.0,0.0,0.0,0.0,0.0,0.0,0.0,0.0,0.0,0.0,0.0,0.0,0.0,0.0,0.0,0.0,0.0,0.0,0.0,0.0,0.0,0.0,0.0,0.0,0.0,0.0,0.0,0.0,0.0,0.0,0.0,0.0,0.0,0.0,0.0,0.0,0.0,0.0,0.0,0.0,0.0,0.0,0.0,0.0,0.0,0.0,0.0,0.0,0.0,0.0,0.0,0.0,0.0,0.0,0.0,0.0,0.0,0.0,0.0,0.0,0.0,0.0,0.0,0.0,0.0,0.0,0.0,0.0,0.0,0.0,0.0,0.0,0.0,0.0,0.0,0.0,0.0,0.0,0.0,0.0,0.0,0.0,0.0,0.0,0.0,0.0,0.0,0.0,0.0,0.0,0.0,0.0,0.0,0.0,0.0,0.0,0.0,0.0,0.0,0.0,0.0,0.0,0.0,0.0,0.0,0.0,0.0,0.0,0.0,0.0,0.0,0.0,0.0,0.0,0.0,0.0,0.0,0.0,0.0,0.0,0.0,0.0,0.0,0.0,0.0,0.0,0.0,0.0,0.0,0.0,0.0,0.0,0.0,0.0,0.0,0.0,0.0,0.0,0.0,0.0,0.0,0.0,0.0,0.0,0.0,0.0,0.0,0.0,0.0,0.0,0.0,0.0,0.0,0.0,0.0,0.0,0.0,0.0,0.0,0.0,0.0,0.0,0.0,0.0,0.0,0.0,0.0,0.0,0.0,0.0,0.0,0.0,0.0,0.0,0.0,0.0,0.0,0.0,0.0,0.0,0.0,0.0,0.0,0.0,0.0,0.0,0.0,0.0,0.0,0.0,0.0,0.0,0.0,0.0,0.0,0.0,0.0,0.0,0.0,0.0,0.0,0.0,0.0,0.0,0.0,0.0,0.0,0.0,0.0,0.0,0.0,0.0,0.0,0.0,0.0,0.0,0.0,0.0,0.0,0.0,0.0,0.0,0.0,0.0,0.0,0.0,0.0,0.0,0.0,0.0,0.0,0.0,0.0,0.0,0.0,0.0,0.0,0.0,0.0,0.0,0.0,0.0,0.0,0.0,0.0,0.0,0.0,0.0,0.0,0.0,0.0,0.0,0.0,0.0,0.0,0.0,0.0,0.0,0.0,0.0,0.0,0.0,0.0,0.0,0.0,0.0,0.0,0.0,0.0,0.0,0.0,0.0,0.0,0.0,0.0,0.0,0.0,0.0,0.0,0.0,0.0,0.0,0.0,0.0,0.0,0.0,0.0,0.0,0.0,0.0,0.0,0.0,0.0,0.0,0.0,0.0,0.0,0.0,0.0,0.0,0.0,0.0,0.0,0.0,0.0,0.0,0.0,0.0,0.0,0.0,0.0,0.0,0.0,0.0,0.0,0.0,0.0,0.0,0.0,0.0,0.0,0.0,0.0,0.0,0.0,0.0,0.0,0.0,0.0,0.0,0.0,0.0,0.0,0.0,0.0,0.0,0.0,0.0,0.0,0.0,0.0,0.0,0.0,0.0,0.0,0.0,0.0,0.0,0.0,0.0,0.0,0.0,0.0,0.0,0.0,0.0,0.0,0.0,0.0,0.0,0.0,0.0,0.0,0.0,0.0,0.0,0.0,0.0,0.0,0.0,0.0,0.0,0.0,0.0,0.0,0.0,0.0,0.0,0.0,0.0,0.0,0.0,0.0,0.0,0.0,0.0,0.0,0.0,0.0,0.0,0.0,0.0,0.0,0.0,0.0,0.0,0.0,0.0,0.0,0.0,0.0,0.0,0.0,0.0,0.0,0.0,0.0,0.0,0.0,0.0,0.0,0.0,0.0,0.0,0.0,0.0,0.0,0.0,0.0,0.0,0.0,0.0,0.0,0.0,0.0,0.0,0.0,0.0,0.0,0.0,0.0,0.0,0.0,0.0,0.0,0.0,0.0,0.0,0.0,0.0,0.0,0.0,0.0,0.0,0.0,0.0,0.0,0.0,0.0,0.0,0.0,0.0,0.0,0.0,0.0,0.0,0.0,0.0,0.0,0.0,0.0,0.0,0.0,0.0,0.0,0.0,0.0,0.0,0.0,0.0,0.0,0.0,0.0,0.0,0.0,0.0,0.0,0.0,0.0,0.0,0.0,0.0,0.0,0.0,0.0,0.0,0.0,0.0,0.0,0.0,0.0,0.0,0.0,0.0,0.0,0.0,0.0,0.0,0.0,0.0,0.0,0.0,0.0,0.0,0.0,0.0,0.0,0.0,0.0,0.0,0.0,0.0,0.0,0.0,0.0,0.0,0.0,0.0,0.0,0.0,0.0,0.0,0.0,0.0,0.0,0.0,0.0,0.0,0.0,0.0,0.0,0.0,0.0,0.0,0.0,0.0,0.0,0.0,0.0,0.0,0.0,0.0,0.0,0.0,0.0,0.0,0.0,0.0,0.0,0.0,0.0,0.0,0.0,0.0,0.0,0.0,0.0,0.0,0.0,0.0,0.0,0.0,0.0,0.0,0.0,0.0,0.0,0.0,0.0,0.0,0.0,0.0,0.0,0.0,0.0,0.7627,0.0,0.0,0.0,0.0,0.0,0.0,0.0,0.0,0.0,0.0,0.0,0.0,0.0,0.0,0.0,0.0,0.0,0.0,0.0,0.0,0.0,0.0,0.0,0.0,0.0,0.0,0.0,0.0,0.0,0.0,0.0,0.0,0.0,0.0,0.0,0.0,0.0,0.0,0.0,0.0,0.0,0.0,0.0,0.0,0.0,0.0,0.0,0.0,0.0,0.0,0.0,0.0,0.0,0.0,0.0,0.0,0.0,0.0,0.0,0.0,0.0,0.0,0.0,0.0,0.0,0.0,0.0,0.0,0.0,0.0,0.0,0.0,0.0,0.0,0.0,0.0,0.0,0.0,0.0,0.0,0.0,0.0,0.0,0.0,0.0,0.0,0.0,0.0,0.0,0.0,0.0,0.0,0.0,0.0,0.0,0.0,0.0,0.0,0.0,0.0,0.0,0.0,0.0,0.0,0.0,0.0,0.0,0.0,0.0,0.0,0.6208,0.7198,0.7914,0.876,0.9759,0.0,0.0,0.0,0.0,0.0,0.0,0.0,0.0,0.0,0.0,0.0,0.0,0.0,0.0,0.0,0.0,0.0,0.0,0.0,0.0,0.0,0.0,0.0,0.0,0.0,0.0,0.0,0.0,0.0,0.0,0.0,0.0,0.0,0.0,0.0,0.0,0.0,0.0,0.0,0.0,0.0,0.0,0.0,0.0,0.0,0.0,0.0,0.0,0.0,0.0,0.0,0.0,0.0,0.0,0.0,0.0,0.0,0.0,0.0,0.0,0.0,0.0,0.0,0.0,0.0,0.0,0.0,0.0,0.0,0.0,0.0,0.0,0.0,0.0,0.0,0.0,0.0,0.0,0.0,0.0,0.0,0.0,0.0,0.0,0.0,0.0,0.0,0.0,0.0,0.0,0.0,0.0,0.0,0.0,0.0,0.0,0.0,0.0,0.0,0.0,0.0,0.0,0.0,0.0,0.0,0.0,0.0,0.0,0.0,0.0,0.0,0.0,0.9098,1.0265,1.1899,0.0,0.0,0.0,0.0,0.0,0.0,0.0,0.0,0.0,0.0,0.0,0.0,0.0,0.0,0.0,0.0,0.0,0.0,0.0,0.0,0.0,0.0,0.0,0.0,0.0,0.0,0.0,0.0,0.0,0.0,0.0,0.0,0.0,0.0,0.0,0.0,0.0,0.0,0.0,0.0,0.0,0.0,0.0,0.0,0.0,0.0,0.0,0.0,0.0,0.0,0.0,0.0,0.0,0.0,0.0,0.0,0.0,0.0,0.0,0.0,0.0,0.0,0.0,0.0,0.0,0.0,0.0,0.0,0.0,0.0,0.0,0.0,0.0,0.0,0.0,0.0,0.0,0.0,0.0,0.0,0.0,0.0,0.0,0.0,0.0,0.0,0.0,0.0,0.0,0.0,0.0,0.0,0.0,0.0,0.0,0.0,0.0,0.0,0.0,0.0,0.0,0.0,0.0,0.0,0.0,0.0,0.0,0.0,0.0,0.0,0.7429,0.7612,0.9575,0.0,1.2173,0.0,0.0,0.0,0.0,0.0,0.0,0.0,0.0,0.0,0.0,0.0,0.0,0.0,0.0,0.0,0.0,0.0,0.0,0.0,0.0,0.0,0.0,0.0,0.0,0.0,0.0,0.0,0.0,0.0,0.0,0.0,0.0,0.0,0.0,0.0,0.0,0.0,0.0,0.0,0.0,0.0,0.0,0.0,0.0,0.0,0.0,0.0,0.0,0.0,0.0,0.0,0.0,0.0,0.0,0.0,0.0,0.0,0.0,0.0,0.0,0.0,0.0,0.0,0.0,0.0,0.0,0.0,0.0,0.0,0.0,0.0,0.0,0.0,0.0,0.0,0.0,0.0,0.0,0.0,0.0,0.0,0.0,0.0,0.0,0.0,0.0,0.0,0.0,0.0,0.0,0.0,0.0,0.0,0.0,0.0,0.0,0.0,0.0,0.0,0.0,0.0,0.0,0.0,0.0,0.0,0.0,0.0,0.0,0.0,0.0,0.7961,0.8543,1.0587,1.1885,0.0,0.0,0.0,0.0,0.0,0.0,0.0,0.0,0.0,0.0,0.0,0.0,0.0,0.0,0.0,0.0,0.0,0.0,0.0,0.0,0.0,0.0,0.0,0.0,0.0,0.0,0.0,0.0,0.0,0.0,0.0,0.0,0.0,0.0,0.0,0.0,0.0,0.0,0.0,0.0,0.0,0.0,0.0,0.0,0.0,0.0,0.0,0.0,0.0,0.0,0.0,0.0,0.0,0.0,0.0,0.0,0.0,0.0,0.0,0.0,0.0,0.0,0.0,0.0,0.0,0.0,0.0,0.0,0.0,0.0,0.0,0.0,0.0,0.0,0.0,0.0,0.0,0.0,0.0,0.0,0.0,0.0,0.0,0.0,0.0,0.0,0.0,0.0,0.0,0.0,0.0,0.0,0.0,0.0,0.0,0.0,0.0,0.0,0.0,0.0,0.0,0.0,0.0,0.0,0.0,0.0,0.0,0.0,0.0,0.0,0.7538,0.8818,1.0121,1.1533,1.2305,1.2305,0.0,0.0,0.0,0.0,0.0,0.0,0.0,0.0,0.0,0.0,0.0,0.0,0.0,0.0,0.0,0.0,0.0,0.0,0.0,0.0,0.0,0.0,0.0,0.0,0.0,0.0,0.0,0.0,0.0,0.0,0.0,0.0,0.0,0.0,0.0,0.0,0.0,0.0,0.0,0.0,0.0,0.0,0.0,0.0,0.0,0.0,0.0,0.0,0.0,0.0,0.0,0.0,0.0,0.0,0.0,0.0,0.0,0.0,0.0,0.0,0.0,0.0,0.0,0.0,0.0,0.0,0.0,0.0,0.0,0.0,0.0,0.0,0.0,0.0,0.0,0.0,0.0,0.0,0.0,0.0,0.0,0.0,0.0,0.0,0.0,0.0,0.0,0.0,0.0,0.0,0.0,0.0,0.0,0.0,0.0,0.0,0.0,0.0,0.0,0.0,0.0,0.0,0.0,0.0,0.0,0.0,0.0,0.0,0.0,0.8237,1.0177,1.2065,1.2249,1.2305,0.0,0.0,0.0,0.0,0.0,0.0,0.0,0.0,0.0,0.0,0.0,0.0,0.0,0.0,0.0,0.0,0.0,0.0,0.0,0.0,0.0,0.0,0.0,0.0,0.0,0.0,0.0,0.0,0.0,0.0,0.0,0.0,0.0,0.0,0.0,0.0,0.0,0.0,0.0,0.0,0.0,0.0,0.0,0.0,0.0,0.0,0.0,0.0,0.0,0.0,0.0,0.0,0.0,0.0,0.0,0.0,0.0,0.0,0.0,0.0,0.0,0.0,0.0,0.0,0.0,0.0,0.0,0.0,0.0,0.0,0.0,0.0,0.0,0.0,0.0,0.0,0.0,0.0,0.0,0.0,0.0,0.0,0.0,0.0,0.0,0.0,0.0,0.0,0.0,0.0,0.0,0.0,0.0,0.0,0.0,0.0,0.0,0.0,0.0,0.0,0.0,0.0,0.0,0.0,0.0,0.0,0.0,0.0,0.0,0.7326,0.9216,1.0907,1.2231,1.2305,1.2305,0.0,0.0,0.0,0.0,0.0,0.0,0.0,0.0,0.0,0.0,0.0,0.0,0.0,0.0,0.0,0.0,0.0,0.0,0.0,0.0,0.0,0.0,0.0,0.0,0.0,0.0,0.0,0.0,0.0,0.0,0.0,0.0,0.0,0.0,0.0,0.0,0.0,0.0,0.0,0.0,0.0,0.0,0.0,0.0,0.0,0.0,0.0,0.0,0.0,0.0,0.0,0.0,0.0,0.0,0.0,0.0,0.0,0.0,0.0,0.0,0.0,0.0,0.0,0.0,0.0,0.0,0.0,0.0,0.0,0.0,0.0,0.0,0.0,0.0,0.0,0.0,0.0,0.0,0.0,0.0,0.0,0.0,0.0,0.0,0.0,0.0,0.0,0.0,0.0,0.0,0.0,0.0,0.0,0.0,0.0,0.0,0.0,0.0,0.0,0.0,0.0,0.0,0.0,0.0,0.0,0.0,0.0,0.0,0.0,0.7797,0.0,1.0466,1.1724,1.1811,1.1959,0.0,0.0,0.0,0.0,0.0,0.0,0.0,0.0,0.0,0.0,0.0,0.0,0.0,0.0,0.0,0.0,0.0,0.0,0.0,0.0,0.0,0.0,0.0,0.0,0.0,0.0,0.0,0.0,0.0,0.0,0.0,0.0,0.0,0.0,0.0,0.0,0.0,0.0,0.0,0.0,0.0,0.0,0.0,0.0,0.0,0.0,0.0,0.0,0.0,0.0,0.0,0.0,0.0,0.0,0.0,0.0,0.0,0.0,0.0,0.0,0.0,0.0,0.0,0.0,0.0,0.0,0.0,0.0,0.0,0.0,0.0,0.0,0.0,0.0,0.0,0.0,0.0,0.0,0.0,0.0,0.0,0.0,0.0,0.0,0.0,0.0,0.0,0.0,0.0,0.0,0.0,0.0,0.0,0.0,0.0,0.0,0.0,0.0,0.0,0.0,0.0,0.0,0.0,0.0,0.0,0.0,0.0,0.0,0.6814,0.7806,0.7893,0.8931,1.0727,1.0839,1.1298,0.0,0.0,0.0,0.0,0.0,0.0,0.0,0.0,0.0,0.0,0.0,0.0,0.0,0.0,0.0,0.0,0.0,0.0,0.0,0.0,0.0,0.0,0.0,0.0,0.0,0.0,0.0,0.0,0.0,0.0,0.0,0.0,0.0,0.0,0.0,0.0,0.0,0.0,0.0,0.0,0.0,0.0,0.0,0.0,0.0,0.0,0.0,0.0,0.0,0.0,0.0,0.0,0.0,0.0,0.0,0.0,0.0,0.0,0.0,0.0,0.0,0.0,0.0,0.0,0.0,0.0,0.0,0.0,0.0,0.0,0.0,0.0,0.0,0.0,0.0,0.0,0.0,0.0,0.0,0.0,0.0,0.0,0.0,0.0,0.0,0.0,0.0,0.0,0.0,0.0,0.0,0.0,0.0,0.0,0.0,0.0,0.0,0.0,0.0,0.0,0.0,0.0,0.0,0.0,0.0,0.0,0.0,0.0,0.0,0.9771,0.9197,0.9461,1.0727,1.0802,1.0932,0.0,0.0,0.0,0.0,0.0,0.0,0.0,0.0,0.0,0.0,0.0,0.0,0.0,0.0,0.0,0.0,0.0,0.0,0.0,0.0,0.0,0.0,0.0,0.0,0.0,0.0,0.0,0.0,0.0,0.0,0.0,0.0,0.0,0.0,0.0,0.0,0.0,0.0,0.0,0.0,0.0,0.0,0.0,0.0,0.0,0.0,0.0,0.0,0.0,0.0,0.0,0.0,0.0,0.0,0.0,0.0,0.0,0.0,0.0,0.0,0.0,0.0,0.0,0.0,0.0,0.0,0.0,0.0,0.0,0.0,0.0,0.0,0.0,0.0,0.0,0.0,0.0,0.0,0.0,0.0,0.0,0.0,0.0,0.0,0.0,0.0,0.0,0.0,0.0,0.0,0.0,0.0,0.0,0.0,0.0,0.0,0.0,0.0,0.0,0.0,0.0,0.0,0.0,0.0,0.0,0.0,0.0,0.0,0.0,1.02,0.9048,0.8794,0.9825,1.0181,1.0526,1.0795,0.0,0.0,0.0,0.0,0.0,0.0,0.0,0.0,0.0,0.0,0.0,0.0,0.0,0.0,0.0,0.0,0.0,0.0,0.0,0.0,0.0,0.0,0.0,0.0,0.0,0.0,0.0,0.0,0.0,0.0,0.0,0.0,0.0,0.0,0.0,0.0,0.0,0.0,0.0,0.0,0.0,0.0,0.0,0.0,0.0,0.0,0.0,0.0,0.0,0.0,0.0,0.0,0.0,0.0,0.0,0.0,0.0,0.0,0.0,0.0,0.0,0.0,0.0,0.0,0.0,0.0,0.0,0.0,0.0,0.0,0.0,0.0,0.0,0.0,0.0,0.0,0.0,0.0,0.0,0.0,0.0,0.0,0.0,0.0,0.0,0.0,0.0,0.0,0.0,0.0,0.0,0.0,0.0,0.0,0.0,0.0,0.0,0.0,0.0,0.0,0.0,0.0,0.0,0.0,0.0,0.0,0.0,0.0,0.9541,0.7725,0.7256,0.8238,0.9206,1.0024,0.0,0.0,0.0,0.0,0.0,0.0,0.0,0.0,0.0,0.0,0.0,0.0,0.0,0.0,0.0,0.0,0.0,0.0,0.0,0.0,0.0,0.0,0.0,0.0,0.0,0.0,0.0,0.0,0.0,0.0,0.0,0.0,0.0,0.0,0.0,0.0,0.0,0.0,0.0,0.0,0.0,0.0,0.0,0.0,0.0,0.0,0.0,0.0,0.0,0.0,0.0,0.0,0.0,0.0,0.0,0.0,0.0,0.0,0.0,0.0,0.0,0.0,0.0,0.0,0.0,0.0,0.0,0.0,0.0,0.0,0.0,0.0,0.0,0.0,0.0,0.0,0.0,0.0,0.0,0.0,0.0,0.0,0.0,0.0,0.0,0.0,0.0,0.0,0.0,0.0,0.0,0.0,0.0,0.0,0.0,0.0,0.0,0.0,0.0,0.0,0.0,0.0,0.0,0.0,0.0,0.0,0.0,0.0,0.0,0.7721,0.7513,0.7744,0.8548,0.9294,0.9787,0.0,0.0,0.0,0.0,0.0,0.0,0.0,0.0,0.0,0.0,0.0,0.0,0.0,0.0,0.0,0.0,0.0,0.0,0.0,0.0,0.0,0.0,0.0,0.0,0.0,0.0,0.0,0.0,0.0,0.0,0.0,0.0,0.0,0.0,0.0,0.0,0.0,0.0,0.0,0.0,0.0,0.0,0.0,0.0,0.0,0.0,0.0,0.0,0.0,0.0,0.0,0.0,0.0,0.0,0.0,0.0,0.0,0.0,0.0,0.0,0.0,0.0,0.0,0.0,0.0,0.0,0.0,0.0,0.0,0.0,0.0,0.0,0.0,0.0,0.0,0.0,0.0,0.0,0.0,0.0,0.0,0.0,0.0,0.0,0.0,0.0,0.0,0.0,0.0,0.0,0.0,0.0,0.0,0.0,0.0,0.0,0.0,0.0,0.0,0.0,0.0,0.0,0.0,0.0,0.0,0.0,0.0,0.0,0.7225,0.7921,0.8373,0.906,1.0017,0.9551,0.9416,0.0,0.0,0.0,0.0,0.0,0.0,0.0,0.0,0.0,0.0,0.0,0.0,0.0,0.0,0.0,0.0,0.0,0.0,0.0,0.0,0.0,0.0,0.0,0.0,0.0,0.0,0.0,0.0,0.0,0.0,0.0,0.0,0.0,0.0,0.0,0.0,0.0,0.0,0.0,0.0,0.0,0.0,0.0,0.0,0.0,0.0,0.0,0.0,0.0,0.0,0.0,0.0,0.0,0.0,0.0,0.0,0.0,0.0,0.0,0.0,0.0,0.0,0.0,0.0,0.0,0.0,0.0,0.0,0.0,0.0,0.0,0.0,0.0,0.0,0.0,0.0,0.0,0.0,0.0,0.0,0.0,0.0,0.0,0.0,0.0,0.0,0.0,0.0,0.0,0.0,0.0,0.0,0.0,0.0,0.0,0.0,0.0,0.0,0.0,0.0,0.0,0.0,0.0,0.0,0.0,0.0,0.0,0.0,0.768,0.8901,0.952,1.0386,1.1604,0.9972,0.9338,0.0,0.0,0.0,0.0,0.0,0.0,0.0,0.0,0.0,0.0,0.0,0.0,0.0,0.0,0.0,0.0,0.0,0.0,0.0,0.0,0.0,0.0,0.0,0.0,0.0,0.0,0.0,0.0,0.0,0.0,0.0,0.0,0.0,0.0,0.0,0.0,0.0,0.0,0.0,0.0,0.0,0.0,0.0,0.0,0.0,0.0,0.0,0.0,0.0,0.0,0.0,0.0,0.0,0.0,0.0,0.0,0.0,0.0,0.0,0.0,0.0,0.0,0.0,0.0,0.0,0.0,0.0,0.0,0.0,0.0,0.0,0.0,0.0,0.0,0.0,0.0,0.0,0.0,0.0,0.0,0.0,0.0,0.0,0.0,0.0,0.0,0.0,0.0,0.0,0.0,0.0,0.0,0.0,0.0,0.0,0.0,0.0,0.0,0.0,0.0,0.0,0.0,0.0,0.0,0.0,0.0,0.0,0.0,0.737,0.7889,0.826,0.9072,1.0362,1.1036,1.1444,0.0,0.0,0.0,0.0,0.0,0.0,0.0,0.0,0.0,0.0,0.0,0.0,0.0,0.0,0.0,0.0,0.0,0.0,0.0,0.0,0.0,0.0,0.0,0.0,0.0,0.0,0.0,0.0,0.0,0.0,0.0,0.0,0.0,0.0,0.0,0.0,0.0,0.0,0.0,0.0,0.0,0.0,0.0,0.0,0.0,0.0,0.0,0.0,2.4299,0.0,0.0,0.0,0.0,0.0,0.0,0.0,0.0,0.0,0.0,0.0,0.0,0.0,0.0,0.0,0.0,0.0,0.0,0.0,0.0,0.0,0.0,0.0,0.0,0.0,0.0,0.0,0.0,0.0,0.0,0.0,0.0,0.0,0.0,0.0,0.0,0.0,0.0,0.0,0.0,0.0,0.0,0.0,0.0,0.0,0.0,0.0,0.0,0.0,0.0,0.0,0.0,0.0,0.0,0.0,0.0,0.0,0.0,0.0,0.8483,0.9412,0.9687,1.0485,1.1774,1.229,1.2384,0.0,0.0,0.0,0.0,0.0,0.0,0.0,0.0,0.0,0.0,0.0,0.0,0.0,0.0,0.0,0.0,0.0,0.0,0.0,0.0,0.0,0.0,0.0,0.0,0.0,0.0,0.0,0.0,0.0,0.0,0.0,0.0,0.0,0.0,0.0,0.0,0.0,0.0,0.0,0.0,0.0,0.0,0.0,0.0,0.0,0.0,0.0,0.0,0.0,0.0,0.0,0.0,0.0,0.0,0.0,0.0,0.0,0.0,0.0,0.0,0.0,0.0,0.0,0.0,0.0,0.0,0.0,0.0,0.0,0.0,0.0,0.0,0.0,0.0,0.0,0.0,0.0,0.0,0.0,0.0,0.0,0.0,0.0,0.0,0.0,0.0,0.0,0.0,0.0,0.0,0.0,0.0,0.0,0.0,0.0,0.0,0.0,0.0,0.0,0.0,0.0,0.0,0.0,0.0,0.0,0.0,0.0,0.9056,1.0148,1.1628,1.1867,1.2527,1.3606,1.3101,1.2573,1.2122,0.0,0.0,0.0,0.0,0.0,0.0,0.0,0.0,0.0,0.0,0.0,0.0,0.0,0.0,0.0,0.0,0.0,0.0,0.0,0.0,0.0,0.0,0.0,0.0,0.0,0.0,0.0,0.0,0.0,0.0,0.0,0.0,0.0,0.0,0.0,0.0,0.0,0.0,2.1179,2.1627,0.0,0.0,0.0,0.0,0.0,0.0,0.0,0.0,2.4098,0.0,0.0,0.0,0.0,0.0,0.0,0.0,0.0,0.0,0.0,0.0,0.0,0.0,0.0,0.0,0.0,0.0,0.0,0.0,0.0,0.0,0.0,0.0,0.0,0.0,0.0,0.0,0.0,0.0,0.0,0.0,0.0,0.0,0.0,0.0,0.0,0.0,0.0,0.0,0.0,0.0,0.0,0.0,0.0,0.0,0.0,0.0,0.0,0.0,0.0,0.0,0.0,0.0,0.0,0.0,0.0,0.9536,1.0302,1.1294,1.2556,1.2409,1.2422,1.2625,1.2055,1.1869,1.2122,0.0,0.0,0.0,0.0,0.0,0.0,0.0,0.0,0.0,0.0,0.0,0.0,0.0,0.0,0.0,0.0,0.0,0.0,0.0,0.0,0.0,0.0,0.0,0.0,0.0,0.0,0.0,0.0,0.0,0.0,0.0,0.0,0.0,0.0,0.0,0.0,0.0,0.0,0.0,2.0343,2.1193,0.0,0.0,0.0,0.0,0.0,0.0,0.0,0.0,2.4917,0.0,0.0,0.0,0.0,0.0,0.0,0.0,0.0,0.0,0.0,0.0,0.0,0.0,0.0,0.0,0.0,0.0,0.0,0.0,0.0,0.0,0.0,0.0,0.0,0.0,0.0,0.0,0.0,0.0,0.0,0.0,0.0,0.0,0.0,0.0,0.0,0.0,0.0,0.0,0.0,0.0,0.0,0.0,0.0,0.0,0.0,0.0,0.0,0.0,0.0,0.0,0.0,0.0,0.0,0.0,1.1471,1.2273,1.3076,1.379,1.3713,1.3657,1.3621,1.3045,1.271,0.0,0.0,0.0,0.0,0.0,0.0,0.0,0.0,0.0,0.0,0.0,0.0,0.0,0.0,0.0,0.0,0.0,0.0,0.0,0.0,0.0,0.0,0.0,0.0,0.0,0.0,0.0,0.0,0.0,0.0,0.0,0.0,0.0,0.0,0.0,0.0,0.0,0.0,0.0,0.0,2.0417,2.1115,2.2533,0.0,0.0,0.0,0.0,0.0,0.0,2.5159,2.4992,0.0,0.0,0.0,0.0,0.0,0.0,0.0,0.0,0.0,0.0,0.0,0.0,0.0,0.0,0.0,0.0,0.0,0.0,0.0,0.0,0.0,0.0,0.0,0.0,0.0,0.0,0.0,0.0,0.0,0.0,0.0,0.0,0.0,0.0,0.0,0.0,0.0,0.0,0.0,0.0,0.0,0.0,0.0,0.0,0.0,0.0,0.0,0.0,0.0,0.0,0.0,0.0,0.0,0.0,0.0,1.3239,1.4194,1.49,1.5338,1.5314,1.5162,1.4871,1.4169,1.3555,0.0,0.0,0.0,0.0,0.0,0.0,0.0,0.0,0.0,0.0,0.0,0.0,0.0,0.0,0.0,0.0,0.0,0.0,0.0,0.0,0.0,0.0,0.0,0.0,0.0,0.0,0.0,0.0,0.0,0.0,0.0,0.0,0.0,0.0,0.0,0.0,0.0,0.0,0.0,0.0,0.0,2.1153,2.3028,2.2563,0.0,0.0,0.0,0.0,2.5444,2.5645,0.0,0.0,0.0,0.0,0.0,0.0,0.0,0.0,0.0,0.0,0.0,0.0,0.0,0.0,0.0,0.0,0.0,0.0,0.0,0.0,0.0,0.0,0.0,0.0,0.0,0.0,0.0,0.0,0.0,0.0,0.0,0.0,0.0,0.0,0.0,0.0,0.0,0.0,0.0,0.0,0.0,0.0,0.0,0.0,0.0,0.0,0.0,0.0,0.0,0.0,0.0,0.0,0.0,0.0,0.0,0.0,1.3969,1.5346,1.6446,1.7226,1.704,1.6369,1.5196,1.4052,1.3316,0.0,0.0,0.0,0.0,0.0,0.0,0.0,0.0,0.0,0.0,0.0,0.0,0.0,0.0,0.0,0.0,0.0,0.0,0.0,0.0,0.0,0.0,0.0,0.0,0.0,0.0,0.0,0.0,0.0,0.0,0.0,0.0,0.0,0.0,0.0,0.0,0.0,0.0,0.0,0.0,0.0,2.061,2.2369,2.2499,2.2902,0.0,0.0,2.7168,2.7645,2.8574,0.0,0.0,0.0,0.0,0.0,0.0,0.0,0.0,0.0,0.0,0.0,0.0,0.0,0.0,0.0,0.0,0.0,0.0,0.0,0.0,0.0,0.0,0.0,0.0,0.0,0.0,0.0,0.0,0.0,0.0,0.0,0.0,0.0,0.0,0.0,0.0,0.0,0.0,0.0,0.0,0.0,0.0,0.0,0.0,0.0,0.0,0.0,0.0,0.0,0.0,0.0,0.0,0.0,0.0,0.0,1.4689,1.5081,1.6358,1.722,1.7595,1.7488,1.7147,1.6585,1.5386,1.4712,0.0,0.0,0.0,0.0,0.0,0.0,0.0,0.0,0.0,0.0,0.0,0.0,0.0,0.0,0.0,0.0,0.0,0.0,0.0,0.0,0.0,0.0,0.0,0.0,0.0,0.0,0.0,0.0,0.0,0.0,0.0,0.0,0.0,0.0,0.0,0.0,0.0,0.0,0.0,0.0,0.0,0.0,2.167,2.2605,0.0,0.0,0.0,2.7066,2.6431,0.0,0.0,0.0,0.0,0.0,0.0,0.0,0.0,0.0,0.0,0.0,0.0,0.0,0.0,0.0,0.0,0.0,0.0,0.0,0.0,0.0,0.0,0.0,0.0,0.0,0.0,0.0,0.0,0.0,0.0,0.0,0.0,0.0,0.0,0.0,0.0,0.0,0.0,0.0,0.0,0.0,0.0,0.0,0.0,0.0,0.0,0.0,0.0,0.0,0.0,0.0,0.0,0.0,0.0,0.0,0.0,0.0,1.5928,1.7181,1.7769,1.7702,1.7702,1.7662,1.7595,1.658,0.0,0.0,0.0,0.0,0.0,0.0,0.0,0.0,0.0,0.0,0.0,0.0,0.0,0.0,0.0,0.0,0.0,0.0,0.0,0.0,0.0,0.0,0.0,0.0,0.0,0.0,0.0,1.9569,0.0,0.0,0.0,0.0,0.0,0.0,0.0,0.0,0.0,0.0,0.0,0.0,0.0,0.0,2.1522,2.1523,2.283,2.3775,0.0,0.0,2.7287,2.6484,2.903,3.0273,0.0,0.0,0.0,0.0,0.0,0.0,0.0,0.0,0.0,0.0,0.0,0.0,0.0,0.0,0.0,0.0,0.0,0.0,0.0,0.0,0.0,0.0,0.0,0.0,0.0,0.0,0.0,0.0,0.0,0.0,0.0,0.0,0.0,0.0,0.0,0.0,0.0,0.0,0.0,0.0,0.0,0.0,0.0,0.0,0.0,0.0,0.0,0.0,0.0,0.0,0.0,0.0,0.0,0.0,0.0,1.6324,1.7715,1.829,1.7969,1.7955,1.7849,1.7608,1.6981,1.6368,0.0,0.0,0.0,0.0,0.0,0.0,0.0,0.0,0.0,0.0,0.0,0.0,0.0,0.0,0.0,0.0,0.0,0.0,0.0,0.0,0.0,0.0,0.0,0.0,0.0,0.0,0.0,0.0,0.0,0.0,0.0,0.0,0.0,0.0,0.0,0.0,0.0,0.0,0.0,0.0,0.0,2.2401,2.2401,2.3202,2.4262,0.0,0.0,2.8622,2.9822,3.1413,3.1887,2.9904,0.0,0.0,0.0,0.0,0.0,0.0,0.0,0.0,0.0,0.0,0.0,0.0,0.0,0.0,0.0,0.0,0.0,0.0,0.0,0.0,0.0,0.0,0.0,0.0,0.0,0.0,0.0,0.0,0.0,0.0,0.0,0.0,0.0,0.0,0.0,0.0,0.0,0.0,0.0,0.0,0.0,0.0,0.0,0.0,0.0,0.0,0.0,0.0,0.0,0.0,0.0,0.0,0.0,1.6832,1.6859,1.8304,1.8891,1.8569,1.8556,1.8423,1.8143,1.7569,1.6887,0.0,0.0,0.0,0.0,0.0,0.0,0.0,0.0,0.0,0.0,0.0,0.0,0.0,0.0,0.0,0.0,0.0,0.0,0.0,0.0,0.0,0.0,0.0,0.0,0.0,0.0,0.0,0.0,2.1953,2.1953,2.1466,0.0,0.0,0.0,0.0,0.0,0.0,0.0,0.0,0.0,0.0,2.2693,2.3223,2.4247,0.0,0.0,2.7723,2.9216,2.8491,3.095,3.2009,2.9201,2.8776,0.0,0.0,0.0,0.0,0.0,0.0,0.0,0.0,0.0,0.0,0.0,0.0,0.0,0.0,0.0,0.0,0.0,0.0,0.0,0.0,0.0,0.0,0.0,0.0,0.0,0.0,0.0,0.0,0.0,0.0,0.0,0.0,0.0,0.0,0.0,0.0,0.0,0.0,0.0,0.0,0.0,0.0,0.0,0.0,0.0,0.0,0.0,0.0,0.0,0.0,0.0,0.0,1.7301,1.7314,1.8824,1.9479,1.9199,1.9185,1.9052,1.8786,1.8371,1.7769,0.0,0.0,0.0,0.0,0.0,0.0,0.0,0.0,0.0,0.0,0.0,0.0,0.0,0.0,0.0,0.0,0.0,0.0,0.0,0.0,0.0,0.0,0.0,0.0,0.0,0.0,0.0,0.0,2.2617,2.2518,2.1934,0.0,0.0,0.0,0.0,0.0,0.0,0.0,0.0,0.0,0.0,2.3555,2.3769,2.4546,2.5078,2.494,2.7195,2.8628,2.7731,2.9811,3.0863,2.8836,0.0,0.0,0.0,0.0,0.0,0.0,0.0,0.0,0.0,0.0,0.0,0.0,0.0,0.0,0.0,0.0,0.0,0.0,0.0,0.0,0.0,0.0,0.0,0.0,0.0,0.0,0.0,0.0,0.0,0.0,1.1758,0.0,0.0,0.0,0.0,0.0,0.0,0.0,0.0,0.0,0.0,0.0,0.0,0.0,0.0,0.0,0.0,0.0,0.0,0.0,0.0,0.0,0.0,1.7608,1.7609,1.9319,2.0067,1.98,1.9786,1.9639,1.9388,1.9374,1.9067,1.8437,0.0,0.0,0.0,0.0,0.0,0.0,0.0,0.0,0.0,0.0,0.0,0.0,0.0,0.0,0.0,0.0,0.0,0.0,0.0,0.0,0.0,0.0,0.0,0.0,0.0,0.0,2.082,2.1426,2.1935,0.0,0.0,0.0,0.0,0.0,0.0,0.0,0.0,0.0,0.0,2.4293,2.5171,2.3965,2.3831,2.4091,2.4608,2.5536,2.6757,2.8448,2.8354,2.8308,0.0,0.0,0.0,0.0,0.0,0.0,0.0,0.0,0.0,0.0,0.0,0.0,0.0,0.0,0.0,0.0,0.0,0.0,0.0,0.0,0.0,0.0,0.0,0.0,0.0,0.0,0.0,1.1045,1.1179,0.0,0.0,0.0,0.0,0.0,0.0,0.0,0.0,0.0,0.0,0.0,1.7569,1.7569,0.0,0.0,0.0,0.0,0.0,0.0,0.0,0.0,0.0,0.0,0.0,0.0,1.821,1.8291,1.989,2.0681,2.0418,2.0374,2.0241,1.996,1.9947,1.9586,1.877,0.0,0.0,0.0,0.0,0.0,0.0,0.0,0.0,0.0,0.0,0.0,0.0,0.0,0.0,0.0,0.0,0.0,0.0,0.0,0.0,0.0,0.0,0.0,0.0,0.0,2.1778,0.0,0.0,0.0,0.0,0.0,0.0,0.0,0.0,0.0,0.0,0.0,2.2715,2.3301,2.3262,2.332,2.373,2.4023,2.4667,0.0,0.0,0.0,0.0,0.0,0.0,0.0,0.0,0.0,0.0,0.0,0.0,0.0,0.0,2.9027,2.7907,2.8622,2.9714,3.0693,0.0,0.0,0.0,0.0,0.0,0.0,0.0,0.0,0.0,0.0,0.0,0.0,0.0,0.0,1.3257,0.0,1.4223,0.0,0.0,0.0,0.0,0.0,0.0,0.0,0.0,1.8063,1.8344,1.8477,1.8476,1.8476,0.0,1.829,1.7689,0.0,0.0,0.0,0.0,0.0,0.0,0.0,0.0,1.849,1.8585,2.0214,2.1015,2.0842,2.0828,2.0735,2.0517,2.0504,2.0237,1.9693,1.8731,1.797,0.0,0.0,0.0,0.0,0.0,0.0,0.0,0.0,0.0,0.0,0.0,0.0,0.0,0.0,0.0,0.0,0.0,0.0,0.0,0.0,0.0,0.0,0.0,2.2678,0.0,0.0,0.0,0.0,0.0,0.0,0.0,0.0,0.0,2.3027,2.3337,2.3806,2.4394,2.4141,2.3909,2.3831,0.0,0.0,0.0,0.0,0.0,0.0,0.0,2.6387,2.5739,2.5723,2.6518,2.8611,2.9713,3.0642,3.1623,0.0,0.0,3.0212,3.0876,3.1979,3.2918,3.2788,3.2641,3.3014,3.2792,3.2616,0.0,0.0,0.0,0.0,0.0,0.0,0.0,0.0,1.3992,1.4371,0.0,1.4502,0.0,0.0,0.0,0.0,0.0,1.7742,0.0,0.0,1.9653,1.992,1.9455,1.9441,1.9441,1.9401,1.8879,1.8584,1.8571,1.8598,0.0,0.0,0.0,0.0,0.0,0.0,1.8504,1.8597,2.0241,2.1109,2.1096,2.1096,2.1109,2.1096,2.1096,2.1051,2.1056,2.003,1.9428,1.9374,1.7515,0.0,0.0,0.0,0.0,0.0,0.0,0.0,0.0,0.0,0.0,0.0,0.0,0.0,0.0,0.0,0.0,0.0,0.0,0.0,0.0,2.3828,0.0,0.0,0.0,0.0,0.0,0.0,0.0,0.0,0.0,0.0,2.3968,2.4859,2.5615,2.562,0.0,0.0,0.0,0.0,2.5132,2.3743,2.3471,2.3837,2.4869,2.5232,2.5818,2.6969,0.0,0.0,2.9014,2.8631,2.8683,2.948,3.1524,3.2848,3.3079,3.3183,3.3343,3.3361,3.3505,3.3345,3.3301,3.3655,3.3617,0.9001,0.0,0.0,0.0,0.0,1.3823,1.5311,1.5883,1.7391,1.789,1.7676,1.7916,0.0,0.0,0.0,0.0,0.0,0.0,1.8744,1.9426,1.9773,2.0054,2.0324,2.0338,2.0324,2.0324,2.0164,2.016,2.0347,2.0361,1.9294,1.7233,0.0,0.0,0.0,0.0,1.8798,1.9452,2.0535,2.1109,2.1109,2.1109,2.1109,2.1109,2.1109,2.1109,2.1096,2.0788,2.0321,1.9693,1.9105,0.0,0.0,0.0,0.0,0.0,0.0,0.0,0.0,0.0,0.0,0.0,0.0,0.0,0.0,0.0,0.0,0.0,0.0,0.0,2.3811,2.4629,2.4508,0.0,0.0,0.0,0.0,0.0,0.0,0.0,0.0,0.0,2.6074,2.5035,2.4355,0.0,0.0,2.3401,2.293,2.3962,2.5032,2.5833,2.594,0.0,2.7522,2.7047,2.6635,2.6988,2.8766,3.0228,3.0491,3.1983,3.3267,3.3511,3.4136,3.4581,3.4728,3.5566,3.615,3.6323,3.7047,3.7394,3.6549,3.7023,3.7739,1.0553,1.0386,1.0575,1.1144,1.2179,1.4781,1.6611,1.7853,1.9417,1.9896,1.9589,1.9907,1.9479,1.849,1.849,0.0,0.0,0.0,1.9479,2.0321,2.0321,2.0508,2.0842,2.0855,2.0855,2.0873,2.0873,2.0935,2.1096,2.0762,1.9786,1.8264,0.0,0.0,1.7729,1.8598,1.9265,1.9813,2.0668,2.1109,2.1109,2.1109,2.1109,2.1109,2.1109,2.1109,2.1109,2.1109,2.0869,2.0347,2.0587,2.0616,0.0,0.0,0.0,0.0,0.0,0.0,0.0,0.0,0.0,0.0,0.0,2.3987,0.0,0.0,0.0,0.0,2.5078,2.5059,2.5059,2.5289,0.0,0.0,0.0,0.0,0.0,0.0,0.0,2.4043,2.5742,2.7012,2.6992,2.5879,2.5254,2.5762,2.5156,2.459,2.4336,0.0,2.6381,2.6953,2.7012,2.7285,2.8001,2.7949,2.7923,2.8476,2.9881,3.0962,3.1086,3.2942,3.4354,3.4487,3.4902,3.548,3.6054,3.6918,3.7266,3.6757,3.7317,3.7583,3.6757,3.7793,3.8842,1.2524,1.2479,1.0221,1.062,1.2829,1.4688,1.666,1.863,2.0377,2.0655,1.9973,2.0762,2.0214,1.8704,1.8704,0.0,1.9907,1.9907,2.0334,2.1096,2.1109,2.1109,2.1109,2.1096,2.1109,2.1096,2.1109,2.1109,2.1037,2.0307,1.9867,1.98,1.98,1.9359,1.8584,1.9292,1.9733,1.98,2.0588,2.1029,2.1109,2.1109,2.1109,2.1109,2.1109,2.1109,2.1109,2.1109,2.1109,2.1114,2.1883,2.2329,2.2367,0.0,0.0,0.0,0.0,0.0,0.0,0.0,0.0,0.0,0.0,0.0,0.0,0.0,0.0,0.0,2.7025,0.0,2.7142,2.6094,0.0,0.0,0.0,2.5708,2.685,2.7109,2.7129,2.7006,0.0,0.0,2.7168,2.7168,2.7637,2.8906,2.8879,2.8313,2.7142,2.802,2.8535,2.7461,2.7337,2.7422,2.7806,2.8469,2.9414,3.0449,3.0928,3.0908,3.0975,3.1937,3.2851,3.2907,3.4035,3.5233,3.6703,3.6622,3.6595,3.5288,3.5563,3.5781,3.5781,3.6892,3.7952,1.2005,1.3225,1.2663,1.4123,1.6991,1.8852,1.9945,2.0453,2.0879,2.0989,2.0815,2.1015,2.0869,2.0481,2.0494,2.0601,2.0802,2.0802,2.0909,2.1096,2.1109,2.1109,2.1109,2.1109,2.1109,2.1109,2.1109,2.1109,2.1096,2.0909,2.0454,1.984,1.98,1.9359,1.8531,1.8704,1.9132,1.98,2.0,2.0441,2.1082,2.1109,2.1109,2.1109,2.1109,2.1109,2.1109,2.1109,2.1109,2.1127,2.2486,2.3367,2.3655,2.4063,0.0,0.0,0.0,0.0,0.0,0.0,0.0,0.0,0.0,2.4691,2.3649,0.0,2.5219,0.0,2.7305,2.8476,2.845,2.8184,0.0,0.0,2.6738,2.666,2.6992,2.7845,2.8059,2.7103,2.7845,2.845,2.845,2.8476,2.8937,3.0195,2.8711,2.7337,2.7064,2.8398,2.9344,2.9129,2.9766,3.0401,3.0323,3.0391,3.0556,3.084,3.0928,3.0928,3.0928,3.117,3.1412,3.1441,3.1652,3.2064,3.2558,3.2444,3.29,3.367,3.6244,3.8269,3.729,3.8084,3.9103,1.5082,1.6108,1.6954,1.8337,1.9939,2.0182,2.0721,2.1496,2.1496,2.1496,2.1496,2.1496,2.1496,2.1496,2.1496,2.1496,2.1496,2.1496,2.1577,2.1683,2.1651,2.1764,2.1884,2.175,2.1697,2.1651,2.1563,2.1496,2.1496,2.1496,2.1243,2.082,2.0775,2.0334,1.9479,1.8824,1.8731,1.9212,1.9613,2.0227,2.1069,2.1109,2.0891,2.0548,2.0521,2.0334,1.996,1.9947,2.0202,2.0739,2.2302,2.3543,2.4281,2.4651,2.4899,0.0,0.0,0.0,0.0,0.0,0.0,0.0,0.0,0.0,0.0,0.0,2.5962,2.5937,2.7754,2.8664,2.8125,2.8066,2.7981,2.7845,2.7845,2.8059,2.8672,2.9375,2.9531,2.8828,2.9355,2.9805,2.9805,2.9785,3.0059,3.083,2.9805,2.8996,2.9082,2.9883,3.0537,3.0752,3.1377,3.1816,3.1816,3.1631,3.1465,3.1494,3.1494,3.1406,3.1211,3.1172,3.1113,3.0957,3.1035,3.1358,3.177,3.2044,3.2637,3.4196,3.6264,3.727,3.6132,3.6457,3.7076,1.9191,1.9579,2.1188,2.2005,2.2091,2.046,2.0654,2.2024,2.2024,2.2024,2.2024,2.2024,2.2024,2.2024,2.2024,2.2004,2.2044,2.2044,2.2205,2.2472,2.2472,2.2619,2.288,2.2592,2.2472,2.2458,2.2218,2.2131,2.2098,2.2098,2.2044,2.197,2.1884,2.1462,2.0548,1.9281,1.8584,1.8557,1.9412,2.0227,2.0975,2.0855,2.0401,1.9679,1.9639,1.9279,1.8531,1.849,1.9002,2.0057,2.1598,2.3134,2.4527,2.4939,2.5271,0.0,2.4355,0.0,0.0,0.0,0.0,0.0,0.0,0.0,0.0,2.7012,2.7064,2.7246,2.8235,2.8508,2.7598,2.7519,2.7949,2.8996,2.9152,2.9629,3.0723,3.0928,3.0928,3.0928,3.0928,3.0898,3.0918,3.0976,3.0976,3.1143,3.1289,3.1387,3.1621,3.1621,3.1777,3.2237,3.2276,3.2257,3.2179,3.2159,3.2159,3.2159,3.214,3.2081,3.166,3.1601,3.1484,3.1211,3.1387,3.186,3.2814,3.3198,3.392,3.519,3.5524,3.5303,3.4962,3.4962,3.4567,1.9208,2.0604,2.097,2.2009,2.3434,2.3087,2.258,2.2024,2.2024,2.2024,2.2024,2.2024,2.2024,2.2024,2.2024,2.2111,2.2338,2.2338,2.2498,2.2779,2.2813,2.284,2.2893,2.284,2.2813,2.2813,2.276,2.2733,2.2733,2.2733,2.2372,2.1676,2.1435,2.0842,1.9987,0.0,0.0,0.0,1.9706,2.0197,2.033,1.9466,1.8905,1.8744,1.8744,0.0,1.8504,1.849,1.8601,1.8864,2.0369,0.0,0.0,0.0,0.0,0.0,0.0,0.0,0.0,0.0,0.0,0.0,2.6777,2.6738,2.6967,2.7012,2.7415,2.843,2.8762,2.9258,3.0078,3.0156,3.0254,3.0488,3.0508,3.0625,3.0879,3.0928,3.0928,3.0928,3.0928,3.1035,3.1348,3.1377,3.1543,3.1846,3.2022,3.2218,3.25,3.25,3.2559,3.2676,3.2676,3.257,3.2237,3.2237,3.2276,3.2198,3.2198,3.2179,3.207,3.2051,3.2031,3.1925,3.2022,3.2122,3.2345,3.2425,3.3014,3.4404,3.3747,3.3924,3.7156,3.7859,3.8325,2.1462,0.0,2.2323,2.2921,0.0,2.3817,2.3469,2.2893,2.2859,2.2859,2.2907,2.302,2.3086,2.3086,2.3086,2.3153,2.33,2.3153,2.3247,2.3514,2.3562,2.3607,2.3741,2.3594,2.3562,2.3527,2.3415,2.3348,2.3348,2.3348,2.3121,2.2693,2.2532,2.2205,2.181,2.1649,2.0993,1.98,2.0227,2.0655,2.1056,2.0521,2.0043,1.9615,1.9573,0.0,0.0,0.0,0.0,0.0,0.0,0.0,0.0,2.5624,0.0,2.7857,2.7357,2.7285,2.7864,2.7949,2.8242,2.8887,2.8945,2.8652,2.8008,2.8555,2.9277,3.0089,3.0195,3.0566,3.1436,3.1553,3.1553,3.1553,3.1523,3.1523,3.1553,3.1553,3.1523,3.1553,3.1523,3.1621,3.1816,3.1836,3.1914,3.2179,3.2394,3.2559,3.2754,3.2793,3.2851,3.3066,3.3074,3.3027,3.2851,3.2793,3.2773,3.2793,3.2793,3.2695,3.25,3.2511,3.2422,3.2276,3.2355,3.2422,3.2257,3.2355,3.2736,3.3336,3.3022,3.3498,3.6589,3.659,3.615,2.4071,2.4111,2.4111,2.4111,2.4111,2.4111,2.4111,2.4098,0.0,0.0,0.0,2.4182,2.4275,2.4275,2.4289,2.4302,2.4342,2.4115,2.4191,2.4436,2.4436,2.4556,2.4733,2.4519,2.4436,2.4422,2.4142,2.4031,2.4044,2.3991,2.3964,2.395,2.391,2.3821,2.3817,2.3817,2.2974,2.1341,2.1047,2.1288,2.1951,2.1737,2.1256,2.0565,2.0468,2.0137,1.9428,1.9401,1.9837,2.083,2.2255,2.364,2.5068,2.6475,2.744,2.7884,2.793,2.8379,2.9386,2.9464,2.9961,3.1035,3.1113,3.0625,2.9445,3.0371,3.1172,3.1572,3.1641,3.1777,3.2159,3.2198,3.2198,3.2198,3.2198,3.2198,3.2198,3.2198,3.2159,3.2198,3.2159,3.2237,3.2296,3.2316,3.2335,3.2452,3.2715,3.291,3.291,3.293,3.3047,3.332,3.3328,3.3347,3.3367,3.3347,3.3386,3.3308,3.3347,3.325,3.3008,3.291,3.2773,3.255,3.2695,3.2734,3.25,3.2695,3.2891,3.291,3.291,3.3392,3.4748,3.4101,3.3517,2.5037,2.5264,2.5264,2.5264,2.5264,2.5264,2.5264,2.5211,2.4476,2.4289,2.4479,2.4519,2.4532,2.4532,2.4532,2.4716,2.4994,2.4954,2.505,2.5331,2.5331,2.5344,2.5384,2.5306,2.5331,2.5304,2.5024,2.4927,2.4863,2.4636,2.4516,2.4452,2.4275,2.4022,2.383,2.3817,2.3669,2.3362,2.2358,2.1857,2.1964,2.0762,2.0054,1.992,1.9762,1.9535,1.9401,1.9441,1.9488,1.9678,2.1272,2.3232,2.5557,2.7233,2.9171,3.1239,3.1475,3.1553,3.171,3.1729,3.1827,3.2003,3.2022,3.1738,3.1201,3.1309,3.1601,3.2061,3.2101,3.212,3.2198,3.2218,3.2257,3.2237,3.2218,3.2198,3.2237,3.2237,3.2257,3.2257,3.2198,3.2374,3.2667,3.2715,3.2832,3.3125,3.3203,3.3269,3.3269,3.3289,3.3308,3.3367,3.3386,3.3386,3.3386,3.3386,3.3386,3.3386,3.3386,3.3367,3.3269,3.325,3.3211,3.3191,3.3242,3.3242,3.3184,3.3281,3.3301,3.325,3.325,3.3477,3.3882,3.3529,3.4115,2.5865,2.5985,2.5985,2.5985,2.5985,2.5985,2.6079,2.6186,2.576,2.5424,2.5093,2.5277,2.5344,2.5358,2.5358,2.5424,2.5583,2.5384,2.5384,2.5504,2.5518,2.5518,2.5518,2.5518,2.5518,2.5504,2.5371,2.5304,2.5304,2.5133,2.5066,2.5053,2.4823,2.4609,2.4512,2.4315,2.4235,2.4222,2.3394,2.2987,2.2974,2.2298,2.1984,2.1984,2.185,2.1783,2.1783,2.1783,2.1783,2.1783,2.3252,2.46,2.5767,2.7231,2.9016,3.1126,3.1121,3.1475,3.2469,3.2316,3.2296,3.248,3.2531,3.2637,3.2891,3.2266,3.2081,3.2492,3.25,3.2598,3.2812,3.2851,3.2851,3.2851,3.2851,3.2851,3.2851,3.2851,3.2851,3.2851,3.2851,3.293,3.3105,3.3125,3.3184,3.3367,3.3386,3.3386,3.3406,3.3386,3.3386,3.3386,3.3386,3.3386,3.3386,3.3386,3.3386,3.3386,3.3386,3.3386,3.3386,3.3386,3.3386,3.3386,3.3386,3.3386,3.3386,3.3386,3.3386,3.3386,3.3386,3.3386,3.3386,3.3386,3.3965,2.652,2.6587,2.6587,2.6587,2.6587,2.6626,2.672,2.6921,2.6907,2.6533,2.5985,2.6198,2.6252,2.6198,2.6185,2.6158,2.6065,2.5812,2.5718,2.5718,2.5705,2.5705,2.5705,2.5705,2.5705,2.5705,2.5638,2.5611,2.5611,2.5545,2.5518,2.5491,2.5291,2.5184,2.517,2.4906,2.4799,2.4773,2.4396,2.4138,2.3968,2.3901,2.3875,2.3861,2.3817,2.3817,2.3817,2.3817,2.4017,2.4473,2.578,2.6767,2.7264,2.8526,2.9946,3.1316,3.1222,3.1681,3.3046,3.2961,3.2902,3.3184,3.3223,3.3496,3.4023,3.3352,3.2871,3.3164,3.3262,3.3379,3.3652,3.3711,3.3711,3.3711,3.3679,3.3679,3.3679,3.3679,3.3711,3.3679,3.3679,3.3679,3.3679,3.3711,3.373,3.375,3.3711,3.3711,3.3711,3.3711,3.3711,3.364,3.3542,3.3386,3.3386,3.3386,3.3386,3.3386,3.3386,3.3386,3.3386,3.3386,3.3386,3.3386,3.3386,3.3386,3.3386,3.3386,3.3386,3.3386,3.3386,3.3386,3.3386,3.3386,3.3418,2.6947,2.7215,2.7229,2.7229,2.7229,2.7229,2.7255,2.7269,2.7269,2.7229,2.7122,2.7175,2.6974,2.676,2.6734,2.66,2.6373,2.6319,2.6306,2.6306,2.6306,2.6306,2.6306,2.6306,2.6306,2.6266,2.6039,2.5957,2.5944,2.5665,2.5531,2.5518,2.5491,2.5478,2.5464,2.5438,2.5386,2.5424,2.5384,2.5053,2.4532,2.4302,2.4168,2.4155,2.3915,2.3817,2.395,2.3817,2.4593,2.6294,2.795,2.9681,3.1288,3.3039,3.4079,3.421,3.4218,3.4381,3.4512,3.4492,3.4414,3.4512,3.4492,3.4531,3.4648,3.4531,3.4473,3.4492,3.4512,3.4453,3.457,3.4531,3.4492,3.4453,3.4492,3.457,3.4512,3.459,3.459,3.459,3.4473,3.457,3.4473,3.4473,3.4512,3.4453,3.4414,3.4434,3.4434,3.4453,3.4453,3.4375,3.3965,3.3503,3.3464,3.3406,3.3503,3.3464,3.3425,3.3484,3.3542,3.3503,3.3406,3.364,3.3484,3.3523,3.3484,3.3386,3.3445,3.3464,3.3445,3.3386,3.3386,3.3386,3.3386,2.771,2.7831,2.7831,2.7831,2.7831,2.7831,2.7817,2.7831,2.7831,2.7831,2.7831,2.7831,2.7563,2.7094,2.7081,2.7014,2.6948,2.6948,2.6907,2.6948,2.6948,2.6948,2.6934,2.672,2.664,2.6613,2.6346,2.6252,2.6199,2.6079,2.6026,2.6012,2.5904,2.581,2.5797,2.5598,2.5518,2.5518,2.5518,2.536,2.5157,2.4877,2.4636,2.4476,2.4342,2.4856,2.584,2.597,2.6852,2.8652,2.9479,3.0229,3.0994,3.172,3.2631,3.3706,3.4648,3.498,3.4707,3.4687,3.4805,3.5078,3.5117,3.5215,3.5416,3.5488,3.5469,3.543,3.5019,3.4687,3.4707,3.4707,3.4687,3.4687,3.4687,3.4707,3.4687,3.4707,3.4687,3.4687,3.4687,3.4707,3.4687,3.4687,3.4687,3.4687,3.4707,3.4746,3.4707,3.4687,3.4687,3.4668,3.4375,3.4219,3.416,3.418,3.416,3.416,3.418,3.418,3.4141,3.418,3.418,3.416,3.4121,3.4121,3.4219,3.416,3.4121,3.3926,3.3503,3.3386,3.3386,3.3386,3.3386,2.8192,2.8192,2.8192,2.8192,2.8192,2.8192,2.8192,2.8192,2.8192,2.8192,2.8192,2.8192,2.7951,2.7576,2.7469,2.7389,2.7309,2.7309,2.7309,2.7309,2.7309,2.7309,2.7282,2.7054,2.6947,2.6907,2.6734,2.6667,2.6627,2.6627,2.6587,2.6493,2.6332,2.6159,2.6091,2.5852,2.5745,2.5758,2.5758,2.5718,2.5611,2.5424,2.5184,2.4903,2.4839,2.5491,2.6742,2.6852,2.7653,2.9401,2.9544,3.0042,3.1034,3.1087,3.1948,3.3794,3.4958,3.543,3.5078,3.5059,3.5195,3.5508,3.5566,3.5684,3.5937,3.6035,3.6035,3.5923,3.5396,3.5078,3.5059,3.5059,3.5059,3.5059,3.5059,3.5059,3.5078,3.5059,3.5098,3.5059,3.5137,3.5059,3.5078,3.5098,3.5137,3.5117,3.5098,3.5059,3.5059,3.5098,3.5078,3.5059,3.5059,3.4941,3.4766,3.4629,3.4687,3.4687,3.4629,3.4609,3.4687,3.4687,3.4687,3.4453,3.4629,3.4668,3.4531,3.457,3.4629,3.4316,3.3984,3.3769,3.3887,3.3789,3.3789,2.8192,2.8192,2.8192,2.8192,2.8192,2.8192,2.8192,2.8192,2.8192,2.8192,2.8192,2.8192,2.8165,2.8098,2.7831,2.7535,2.7349,2.7349,2.7362,2.7362,2.7349,2.7322,2.7309,2.7296,2.7282,2.7282,2.7215,2.7202,2.7229,2.7242,2.7081,2.6814,2.6774,2.664,2.6426,2.6373,2.6346,2.6319,2.6319,2.6213,2.6011,2.5957,2.5797,2.5504,2.5451,2.5418,2.5466,2.5313,2.6145,2.7701,2.815,2.9556,3.263,3.3119,3.3971,3.5572,3.5913,3.5942,3.5884,3.5918,3.5957,3.5962,3.6035,3.6016,3.6099,3.6118,3.6118,3.6021,3.6001,3.5957,3.5957,3.5806,3.5825,3.5859,3.5918,3.5864,3.5918,3.582,3.5957,3.5864,3.584,3.5801,3.5845,3.5957,3.5879,3.5859,3.5918,3.5879,3.5786,3.5845,3.5825,3.5825,3.5786,3.563,3.4922,3.4902,3.4844,3.4883,3.498,3.4805,3.4726,3.4687,3.4726,3.4766,3.4883,3.4883,3.4746,3.4707,3.4746,3.4629,3.457,3.4473,3.4316,3.4531,3.4492,2.8604,2.8444,2.8444,2.8366,2.8192,2.8192,2.8192,2.8192,2.8192,2.8192,2.8192,2.8192,2.8192,2.8179,2.8072,2.7965,2.7871,2.7871,2.7871,2.7871,2.7871,2.7871,2.7844,2.7684,2.7535,2.7522,2.7362,2.7309,2.7309,2.7309,2.7215,2.7175,2.7108,2.7081,2.7001,2.6988,2.6867,2.664,2.6667,2.652,2.6305,2.6239,2.6172,2.6066,2.5705,2.606,2.7167,2.8432,2.9944,3.1707,3.3018,3.4372,3.5625,3.58,3.5984,3.6396,3.646,3.6309,3.6094,3.6289,3.648,3.6445,3.6699,3.6816,3.6836,3.6836,3.6836,3.6816,3.6836,3.6836,3.6719,3.6367,3.6001,3.6035,3.6035,3.6055,3.6035,3.6035,3.6035,3.6035,3.6035,3.6035,3.6035,3.6035,3.6035,3.6035,3.6035,3.6035,3.6035,3.6035,3.6035,3.6035,3.6016,3.5918,3.5664,3.5547,3.5547,3.5566,3.5566,3.5566,3.5508,3.5449,3.5488,3.543,3.541,3.5391,3.5351,3.5195,3.5176,3.5098,3.5039,3.4902,3.4687,3.4883,3.4824,2.8881,2.8764,2.8751,2.8631,2.8486,2.8473,2.8473,2.8473,2.843,2.8473,2.8473,2.8473,2.8473,2.843,2.8473,2.843,2.8446,2.8286,2.8192,2.8192,2.8192,2.8192,2.8152,2.7978,2.7884,2.7816,2.7697,2.759,2.759,2.759,2.7536,2.7415,2.7402,2.7403,2.7322,2.7309,2.7188,2.6987,2.6961,2.6867,2.6694,2.6667,2.6667,2.66,2.6186,2.6405,2.7611,2.895,3.0145,3.1379,3.2769,3.409,3.5222,3.663,3.7168,3.6914,3.691,3.6758,3.6523,3.6719,3.691,3.6875,3.7129,3.7305,3.7305,3.7305,3.7305,3.7305,3.7305,3.7305,3.7207,3.6777,3.6445,3.6426,3.6391,3.6426,3.6445,3.6411,3.6352,3.6289,3.6269,3.6191,3.6021,3.6035,3.6035,3.6035,3.6035,3.6035,3.6035,3.6035,3.6035,3.6035,3.6035,3.6016,3.5898,3.584,3.584,3.5859,3.5859,3.5976,3.6035,3.6035,3.6035,3.6035,3.6035,3.6035,3.5937,3.5742,3.5644,3.5566,3.5508,3.5391,3.5273,3.5195,3.5215,2.9015,2.9001,2.8988,2.8975,2.8921,2.8908,2.8961,2.8921,2.8935,2.8895,2.8881,2.8948,2.8895,2.8948,2.8881,2.8948,2.8828,2.85,2.8286,2.8286,2.8259,2.8245,2.8232,2.8205,2.8165,2.8138,2.8152,2.8152,2.8112,2.8085,2.7978,2.7736,2.7709,2.7602,2.7336,2.7403,2.7349,2.7309,2.7309,2.7296,2.7296,2.7242,2.7215,2.7215,2.6907,2.6599,2.622,2.6439,2.6815,2.6579,2.6613,2.7702,3.2143,3.544,3.7344,3.7324,3.7305,3.7285,3.7246,3.7266,3.7305,3.7324,3.7344,3.7441,3.748,3.7441,3.7441,3.7461,3.7441,3.7402,3.7422,3.7344,3.7246,3.7266,3.7148,3.7148,3.7187,3.7246,3.7129,3.6758,3.666,3.6519,3.6191,3.6172,3.623,3.6211,3.6133,3.6113,3.6113,3.6074,3.6001,3.6035,3.6035,3.6035,3.6035,3.6016,3.6016,3.6016,3.5996,3.6035,3.6035,3.6035,3.6035,3.6035,3.6035,3.6035,3.6035,3.5879,3.5898,3.5859,3.584,3.5801,3.5723,3.5644,3.5762,2.9526,2.9352,2.9339,2.9188,2.9015,2.9001,2.9001,2.9001,2.9001,2.9001,2.9001,2.9001,2.9001,2.9001,2.9001,2.9001,2.8975,2.8845,2.8764,2.8764,2.8751,2.8644,2.8484,2.8457,2.8393,2.8219,2.8192,2.8192,2.8205,2.8192,2.8125,2.8058,2.8045,2.8005,2.7898,2.7911,2.7831,2.763,2.7562,2.7468,2.7336,2.7309,2.7309,2.7296,2.7215,2.7068,2.6975,2.7822,2.8961,3.0015,3.032,3.1518,3.4158,3.6729,3.7955,3.7738,3.7734,3.7578,3.7383,3.7578,3.7734,3.7773,3.7988,3.8164,3.8184,3.8144,3.8144,3.82,3.822,3.822,3.822,3.822,3.7965,3.7363,3.7305,3.7344,3.7383,3.7344,3.7246,3.7148,3.7109,3.7031,3.6934,3.6875,3.6816,3.6797,3.6641,3.6465,3.6445,3.625,3.6001,3.6035,3.6035,3.6113,3.6133,3.6133,3.6113,3.6055,3.6035,3.6035,3.6035,3.6035,3.6035,3.6035,3.6035,3.6035,3.6035,3.6035,3.6035,3.6035,3.5957,3.5957,3.6016,3.6035,3.6035,2.9806,2.9646,2.9646,2.9539,2.9322,2.9322,2.9322,2.9322,2.9322,2.9322,2.9322,2.9322,2.9322,2.9322,2.9322,2.9322,2.9322,2.9322,2.9322,2.9268,2.9055,2.8895,2.8778,2.8735,2.8684,2.8511,2.8484,2.847,2.8513,2.8406,2.8353,2.8353,2.8245,2.8179,2.8192,2.8179,2.8072,2.7924,2.7856,2.7817,2.767,2.763,2.763,2.7617,2.7523,2.7428,2.7511,2.8247,2.9193,3.0599,3.1786,3.3619,3.5656,3.7514,3.8493,3.8242,3.8144,3.8047,3.7832,3.8047,3.8164,3.8223,3.8418,3.8591,3.8611,3.8611,3.8611,3.8611,3.8591,3.8611,3.8611,3.8611,3.8301,3.7887,3.7812,3.7773,3.7773,3.7773,3.7676,3.7598,3.7519,3.7461,3.7344,3.7305,3.7305,3.7246,3.7125,3.6949,3.689,3.668,3.6543,3.6484,3.6582,3.6543,3.6328,3.625,3.6211,3.6113,3.6035,3.6035,3.6035,3.6035,3.6035,3.6035,3.6035,3.6035,3.6035,3.6035,3.6035,3.6035,3.6035,3.6035,3.6035,3.6035,3.6035,2.9913,2.9913,2.9913,2.9887,2.986,2.986,2.9847,2.9887,2.9873,2.9847,2.986,2.9833,2.986,2.9887,2.982,2.982,2.99,2.9847,2.982,2.97,2.9362,2.9095,2.9028,2.8975,2.8921,2.8921,2.8921,2.8948,2.8881,2.8724,2.8631,2.8604,2.8433,2.8259,2.8326,2.8259,2.8272,2.8232,2.8205,2.8192,2.8125,2.8138,2.8138,2.8125,2.7898,2.7722,2.7765,2.7702,2.7608,2.8029,3.1732,3.472,3.6186,3.7759,3.873,3.8747,3.8708,3.8728,3.8689,3.8728,3.8747,3.873,3.875,3.8689,3.8806,3.8865,3.8865,3.8845,3.8826,3.8747,3.8728,3.8708,3.8594,3.8611,3.8454,3.8474,3.8571,3.8532,3.8301,3.8047,3.7894,3.7796,3.7539,3.75,3.748,3.7461,3.7422,3.7344,3.7285,3.7226,3.7266,3.7187,3.7051,3.6934,3.6719,3.6699,3.6641,3.6582,3.6406,3.6269,3.6079,3.6035,3.6035,3.6035,3.6035,3.6035,3.6035,3.6035,3.6035,3.6035,3.6035,3.6035,3.6035,3.6035,3.6035,2.9913,2.9913,2.9913,2.9913,2.9913,2.9913,2.9913,2.9913,2.9913,2.9913,2.9913,2.9913,2.9913,2.9913,2.9913,2.9913,2.9913,2.9913,2.9913,2.99,2.978,2.9553,2.9352,2.9108,2.9015,2.9028,2.9055,2.9001,2.8988,2.8935,2.8925,2.8925,2.8818,2.8778,2.8804,2.8764,2.8684,2.8511,2.8484,2.8364,2.8232,2.8219,2.8192,2.8179,2.8112,2.8072,2.8058,2.7991,2.8565,3.0023,3.5111,3.7476,3.6982,3.8481,3.9473,3.9473,3.9512,3.9531,3.9512,3.9512,3.9512,3.9551,3.9453,3.9551,3.9551,3.9531,3.9551,3.9551,3.9551,3.9375,3.9121,3.9043,3.8926,3.8669,3.8689,3.8669,3.8611,3.8611,3.8516,3.8418,3.8379,3.8301,3.8223,3.82,3.8164,3.8125,3.7949,3.7718,3.7734,3.7559,3.7519,3.7363,3.7246,3.7207,3.7168,3.7148,3.7109,3.709,3.6914,3.6625,3.6352,3.604,3.6021,3.6035,3.6035,3.6035,3.6035,3.6035,3.6035,3.6035,3.6035,3.6035,3.6035,3.6035,3.6035,2.9913,2.9913,2.9913,2.9913,2.9913,2.9913,2.9913,2.9913,2.9913,2.9913,2.9913,2.9913,2.9913,2.9913,2.9913,2.9913,2.9913,2.9913,2.9913,2.9913,2.99,2.9806,2.9646,2.9415,2.9362,2.9362,2.9362,2.9375,2.9348,2.9255,2.9188,2.9192,2.9055,2.9001,2.8961,2.8988,2.8921,2.8775,2.8735,2.8684,2.8537,2.8524,2.8524,2.8497,2.8417,2.8339,2.829,2.9034,3.0362,3.2487,3.5565,3.7613,3.8459,3.926,3.9902,3.9883,3.9883,3.9883,3.9883,3.9883,3.9883,3.9883,3.9883,3.9883,3.9863,3.9883,3.9883,3.9863,3.9883,3.9766,3.957,3.9492,3.9375,3.9219,3.9121,3.9021,3.8633,3.8611,3.8611,3.8611,3.8611,3.8611,3.8611,3.8611,3.8611,3.8552,3.8376,3.8242,3.8164,3.793,3.7773,3.7715,3.7695,3.7734,3.7637,3.7578,3.7441,3.7422,3.7383,3.7129,3.6738,3.6328,3.6211,3.6172,3.6094,3.6035,3.6074,3.6074,3.6035,3.6035,3.6035,3.6035,3.6035,3.6035,3.6035,2.9913,2.9913,2.9913,2.9913,2.9913,2.9913,2.9913,2.9913,2.9913,2.9913,2.9913,2.9913,2.9913,2.9913,2.9913,2.9913,2.9913,2.9913,2.9913,2.9913,2.9913,2.9887,2.986,2.982,2.9806,2.982,2.99,2.986,2.978,2.9606,2.9539,2.9486,2.9242,2.9121,2.9188,2.9148,2.9081,2.9055,2.9085,2.8988,2.8908,2.8881,2.8881,2.8898,2.8708,2.8551,2.8831,2.9929,3.1941,3.4645,3.4347,3.6154,3.9162,3.9452,3.9661,3.9756,3.9871,4.0137,4.0078,4.0156,4.0098,4.0137,4.0117,4.0039,4.0137,4.0176,4.0176,4.0195,4.0039,4.0078,3.9961,3.9922,3.9824,3.9726,3.9805,3.9473,3.8945,3.8708,3.8669,3.8633,3.8669,3.8611,3.8611,3.8611,3.8611,3.8611,3.8513,3.8493,3.8418,3.832,3.8317,3.8376,3.832,3.832,3.8164,3.7988,3.7832,3.7715,3.7715,3.7539,3.7168,3.6816,3.6543,3.6445,3.6543,3.6426,3.6211,3.6172,3.6152,3.6035,3.6035,3.6035,3.6035,3.6035,3.6035,2.9913,2.9913,2.9913,2.9913,2.9913,2.9913,2.9913,2.9913,2.9913,2.9913,2.9913,2.9913,2.9913,2.9913,2.9913,2.9913,2.9913,2.9913,2.9913,2.9913,2.9913,2.9913,2.9913,2.9913,2.9913,2.9913,2.9913,2.9913,2.9873,2.9847,2.982,2.978,2.97,2.9668,2.9686,2.9646,2.9606,2.9432,2.9392,2.9272,2.9081,2.9055,2.9041,2.9015,2.8948,2.8881,2.8871,2.9263,3.1434,3.4225,3.5038,3.5352,3.6781,3.7995,3.8646,3.9057,4.0144,4.0898,4.0917,4.0859,4.0879,4.0859,4.082,4.0937,4.0937,4.0878,4.0898,4.0937,4.0898,4.0684,4.043,4.0078,4.0019,4.0019,3.998,3.9902,3.9609,3.9297,3.9101,3.9023,3.8828,3.863,3.863,3.865,3.865,3.863,3.8611,3.8611,3.8611,3.8611,3.8611,3.8611,3.8591,3.8476,3.8418,3.8262,3.8164,3.8047,3.8083,3.8008,3.7637,3.7363,3.7148,3.707,3.709,3.6875,3.6562,3.6504,3.6523,3.6289,3.6094,3.6113,3.6152,3.6094,3.6035,2.9913,2.9913,2.9913,2.9913,2.9913,2.9913,2.9913,2.9913,2.9913,2.9913,2.9913,2.9913,2.9913,2.9913,2.9913,2.9913,2.9913,2.9913,2.9913,2.9913,2.9913,2.9913,2.9913,2.9913,2.9913,2.9913,2.9913,2.9913,2.9913,2.9913,2.99,2.9913,2.9913,2.9873,2.9913,2.9913,2.982,2.9726,2.9686,2.9593,2.9428,2.9402,2.9366,2.9272,2.9232,2.9205,2.9001,3.0161,3.1838,3.3729,3.4906,3.6249,3.7802,3.9022,3.954,3.9765,4.0353,4.1172,4.1211,4.1211,4.1191,4.123,4.1211,4.1211,4.1211,4.1211,4.1211,4.1211,4.1172,4.1055,4.084,4.0684,4.0508,4.0488,4.0488,4.0526,4.0391,3.9941,3.9531,3.9492,3.9355,3.9121,3.8984,3.8887,3.8728,3.8728,3.8613,3.863,3.8611,3.8611,3.8611,3.8611,3.8611,3.8611,3.8591,3.8552,3.8532,3.8454,3.8415,3.8359,3.8184,3.7969,3.7809,3.7617,3.7422,3.7246,3.6992,3.6953,3.6914,3.6797,3.6641,3.6445,3.6289,3.623,3.6133,2.9913,2.9913,2.9913,2.9913,2.9913,2.9913,2.9913,2.9913,2.9913,2.9913,2.9913,2.9913,2.9913,2.9913,2.9913,2.9913,2.9913,2.9913,2.9913,2.9913,2.9913,2.9913,2.9913,2.9913,2.9913,2.9913,2.9913,2.9913,2.9913,2.9913,2.9913,2.9913,2.9913,2.9913,2.9913,2.9913,2.99,2.9873,2.986,2.986,2.9847,2.9847,2.9726,2.9606,2.9553,2.9459,2.9562,3.0645,3.2173,3.2714,3.481,3.7824,4.0353,4.1399,4.1264,4.0799,4.1092,4.1504,4.1523,4.1465,4.1445,4.1406,4.1328,4.1328,4.1348,4.1269,4.1211,4.1211,4.1191,4.1191,4.1211,4.1113,4.1132,4.1152,4.1172,4.1211,4.1093,4.0508,4.0176,3.9961,3.9785,3.9531,3.9414,3.9297,3.906,3.8826,3.8711,3.8633,3.865,3.8611,3.8611,3.8611,3.8611,3.8611,3.8611,3.8611,3.8611,3.8611,3.8611,3.8591,3.8516,3.8396,3.8141,3.7832,3.7637,3.7519,3.7441,3.7383,3.7344,3.7305,3.7109,3.6836,3.6601,3.6387,3.6289,2.9913,2.9913,2.9913,2.9913,2.9913,2.9913,2.9913,2.9913,2.9913,2.9913,2.9913,2.9913,2.9913,2.9913,2.9913,2.9913,2.9913,2.9913,2.9913,2.9913,2.9913,2.9913,2.9913,2.9913,2.9913,2.9913,2.9913,2.9913,2.9913,2.9913,2.9913,2.9913,2.9913,2.9913,2.9913,2.9913,2.9913,2.9913,2.9913,2.9913,2.9913,2.9913,2.99,2.9793,2.9793,2.9887,2.9976,3.0274,3.1205,3.3231,3.5444,3.7792,3.9814,4.0258,4.0095,4.031,4.1334,4.2051,4.207,4.2148,4.2187,4.2148,4.1894,4.1699,4.1621,4.1426,4.1367,4.125,4.123,4.1211,4.1211,4.1211,4.1211,4.1211,4.1211,4.1211,4.1172,4.1015,4.0703,4.0469,4.0176,3.9922,3.9824,3.9707,3.9492,3.9219,3.9023,3.8848,3.873,3.8689,3.8611,3.8611,3.8611,3.8611,3.8611,3.8611,3.8611,3.8611,3.8611,3.8611,3.8591,3.8611,3.8435,3.8144,3.8086,3.8086,3.7988,3.7851,3.7715,3.7617,3.7422,3.7207,3.7051,3.6875,3.666,2.9913,2.9913,2.9913,2.9913,2.9913,2.9913,2.9913,2.9913,2.9913,2.9913,2.9913,2.9913,2.9913,2.9913,2.9913,2.9913,2.9913,2.9913,2.9913,2.9913,2.9913,2.9913,2.9913,2.9913,2.9913,2.9913,2.9913,2.9913,2.9913,2.9913,2.9913,2.9913,2.9913,2.9913,2.9913,2.9913,2.9913,2.9913,2.9913,2.9913,2.9913,2.9913,2.9913,2.9913,3.0093,3.0526,3.1834,3.3072,3.4619,3.6986,3.9183,4.0612,4.1281,4.1466,4.1266,4.1128,4.1819,4.2401,4.2382,4.2382,4.2362,4.2402,4.2226,4.2148,4.209,4.1953,4.1699,4.1504,4.1269,4.1211,4.1211,4.123,4.1211,4.1211,4.1211,4.1211,4.1211,4.1211,4.1016,4.084,4.0723,4.0508,4.0254,4.0117,3.9961,3.9707,3.9394,3.916,3.8945,3.8769,3.8708,3.8611,3.8611,3.8611,3.8611,3.8611,3.8611,3.8611,3.8611,3.8611,3.8611,3.8611,3.8611,3.8513,3.8532,3.8457,3.8418,3.8242,3.8105,3.7949,3.7793,3.7637,3.7519,3.7363,3.7129,2.9913,2.9913,2.9913,2.9913,2.9913,2.9913,2.9913,2.9913,2.9913,2.9913,2.9913,2.9913,2.9913,2.9913,2.9913,2.9913,2.9913,2.9913,2.9913,2.9913,2.9913,2.9913,2.9913,2.9913,2.9913,2.9913,2.9913,2.9913,2.9913,2.9913,2.9913,2.9913,2.9913,2.9913,2.9913,2.9913,2.9913,2.9913,2.9913,2.9913,2.9913,2.9913,2.9913,3.0093,3.0348,3.1612,3.3087,3.5114,3.6874,3.8928,4.1034,4.2742,4.301,4.3443,4.3338,4.2832,4.2695,4.2695,4.2715,4.2694,4.2772,4.2832,4.2637,4.2578,4.25,4.2402,4.2187,4.1933,4.1699,4.1504,4.1543,4.1387,4.1367,4.1289,4.1289,4.1211,4.1211,4.1211,4.1211,4.1152,4.1211,4.1054,4.0684,4.0605,4.0469,4.0176,3.9863,3.9629,3.9394,3.8965,3.8826,3.8669,3.8611,3.8611,3.8611,3.8611,3.8611,3.8611,3.8611,3.8611,3.8611,3.8611,3.8611,3.8611,3.8611,3.8571,3.8611,3.8611,3.8435,3.8242,3.8164,3.8086,3.7988,3.7754,3.748,2.9913,2.9913,2.9913,2.9913,2.9913,2.9913,2.9913,2.9913,2.9913,2.9913,2.9913,2.9913,2.9913,2.9913,2.9913,2.9913,2.9913,2.9913,2.9913,2.9913,2.9913,2.9913,2.9913,2.9913,2.9913,2.9913,2.9913,2.9913,2.9913,2.9913,2.9913,2.9913,2.9913,2.9913,2.9913,2.9913,2.9913,2.9913,2.9913,2.9913,2.9913,2.9913,2.9913,3.0419,3.1493,3.2764,3.3601,3.5538,3.7218,3.7818,3.9734,4.0722,4.0992,4.2719,4.3465,4.3574,4.3555,4.3555,4.3476,4.3398,4.3398,4.332,4.3183,4.3047,4.293,4.2676,4.2421,4.2383,4.2246,4.2168,4.2051,4.1894,4.1777,4.1601,4.1445,4.1328,4.125,4.1211,4.1211,4.1211,4.1211,4.1211,4.1054,4.1035,4.0957,4.0644,4.0351,4.0098,3.9824,3.9414,3.8984,3.8809,3.8711,3.8711,3.8611,3.8611,3.8611,3.8611,3.8611,3.8611,3.8611,3.8611,3.8611,3.8611,3.8611,3.8611,3.8611,3.8611,3.8611,3.8552,3.8379,3.8418,3.8532,3.8203,3.7851,2.9913,2.9913,2.9913,2.9913,2.9913,2.9913,2.9913,2.9913,2.9913,2.9913,2.9913,2.9913,2.9913,2.9913,2.9913,2.9913,2.9913,2.9927,2.9913,2.9927,2.9927,2.9927,2.9913,2.9913,2.9913,2.994,2.9913,2.9913,2.9913,2.9913,2.9913,2.9913,2.9913,2.9913,2.9913,2.9913,2.9913,2.9913,2.9913,2.9913,2.9913,2.9927,3.0007,3.0199,3.11,3.229,3.3928,3.5613,3.7518,3.8715,4.0992,4.2182,4.2368,4.3134,4.3691,4.3691,4.3691,4.3672,4.3672,4.3691,4.3691,4.3691,4.3535,4.3437,4.334,4.3066,4.2793,4.2793,4.2558,4.2461,4.2421,4.2266,4.2167,4.2031,4.1777,4.1582,4.1426,4.125,4.1211,4.1211,4.1211,4.1211,4.1211,4.1172,4.1113,4.0918,4.0644,4.0391,4.0156,3.9863,3.9434,3.9023,3.8945,3.8887,3.8728,3.8611,3.863,3.863,3.8611,3.8611,3.8611,3.8611,3.8611,3.8611,3.8611,3.8611,3.8611,3.8611,3.8611,3.8611,3.8611,3.8611,3.8611,3.8571,3.8203,2.9913,2.9913,2.9913,2.9913,2.9913,2.9913,2.9913,2.9913,2.9913,2.9913,2.9913,2.9913,2.9913,2.9913,2.9913,2.9913,2.9927,2.998,3.002,3.0034,3.0047,3.01,3.0114,3.0087,2.9967,3.0034,3.0074,3.0007,2.9953,2.998,3.002,2.9927,2.9913,2.9913,2.9913,2.9927,2.994,3.006,2.9953,3.0007,3.0127,3.0087,3.0221,3.0469,3.0989,3.2092,3.4523,3.6709,3.8843,4.1034,4.2493,4.3361,4.3485,4.3567,4.3691,4.3691,4.3691,4.3691,4.3691,4.3691,4.3691,4.3691,4.3691,4.3633,4.3633,4.3379,4.3223,4.3223,4.3027,4.2851,4.2694,4.2695,4.2598,4.2461,4.2207,4.2012,4.1797,4.1582,4.1348,4.1211,4.1211,4.1211,4.1211,4.1211,4.1191,4.1152,4.0918,4.0664,4.0449,4.0234,3.9883,3.9453,3.9355,3.9238,3.8945,3.8769,3.8711,3.8633,3.865,3.8611,3.8611,3.8611,3.8611,3.8611,3.8611,3.8611,3.8611,3.8611,3.8611,3.8611,3.8611,3.8611,3.8611,3.8611,3.8571,2.9913,2.9913,2.9913,2.9913,2.9913,2.9913,2.9913,2.9913,2.9913,2.9913,2.9913,2.9913,2.9913,2.9927,2.994,2.994,2.9967,3.0207,3.0287,3.0314,3.0386,3.0448,3.0434,3.0274,3.0114,3.0346,3.0373,3.0181,3.0074,3.0261,3.014,2.9953,3.002,2.9953,2.9953,3.0007,3.014,3.0221,3.0154,3.0274,3.0539,3.0703,3.0826,3.1359,3.2689,3.4629,3.6921,3.8666,4.0343,4.2493,4.3319,4.3711,4.3691,4.3691,4.3691,4.3691,4.3691,4.3691,4.3691,4.3691,4.3691,4.3691,4.3691,4.3691,4.3691,4.3691,4.3633,4.3574,4.3398,4.3457,4.3379,4.3301,4.3066,4.291,4.2676,4.2383,4.2148,4.1933,4.1641,4.1348,4.125,4.1308,4.1211,4.1211,4.1211,4.1191,4.1172,4.0879,4.0742,4.0527,4.0273,3.998,3.9883,3.9668,3.9277,3.9141,3.9082,3.8887,3.8806,3.8708,3.8611,3.8611,3.8611,3.8611,3.8611,3.8611,3.8611,3.8611,3.8611,3.8611,3.8611,3.8611,3.8611,3.8611,3.8611,2.9913,2.9913,2.9913,2.9913,2.9913,2.9913,2.9913,2.9913,2.9913,2.9913,2.9913,2.9927,3.002,3.01,3.0007,3.014,3.0394,3.0386,3.0488,3.0581,3.0662,3.0702,3.0662,3.0635,3.0528,3.0608,3.0621,3.0595,3.0515,3.0568,3.0568,3.0448,3.0287,3.0253,3.0239,3.0207,3.0368,3.0515,3.0515,3.0608,3.0969,3.2324,3.2859,3.3007,3.5006,3.6251,3.7457,3.9248,4.0566,4.1765,4.3029,4.3546,4.373,4.373,4.3711,4.373,4.373,4.3691,4.3691,4.3691,4.3691,4.3691,4.3691,4.3691,4.3691,4.3691,4.3691,4.3691,4.3691,4.3691,4.3633,4.3555,4.3437,4.3359,4.3125,4.2793,4.2519,4.2305,4.2012,4.168,4.1523,4.1484,4.1328,4.1211,4.1211,4.1211,4.1191,4.1113,4.0957,4.084,4.0605,4.043,4.0312,4.0078,3.9707,3.957,3.9453,3.9199,3.8965,3.8865,3.8747,3.8611,3.8611,3.8611,3.8611,3.8611,3.8611,3.8611,3.8611,3.8611,3.8611,3.8611,3.8611,3.8611,3.8611,2.9913,2.9913,2.9913,2.9913,2.9913,2.9913,2.9913,2.9913,2.9913,2.9913,2.9927,3.0007,3.0154,3.0306,3.0301,3.0368,3.0662,3.0702,3.0768,3.0862,3.0915,3.0969,3.0969,3.0889,3.0768,3.0889,3.0915,3.0889,3.0728,3.0862,3.0902,3.0835,3.0728,3.0621,3.0533,3.0547,3.0635,3.0849,3.0822,3.1577,3.2218,3.3526,3.5121,3.5271,3.6825,3.7941,3.8663,3.9962,4.0868,4.198,4.302,4.3665,4.3808,4.3808,4.3789,4.3808,4.3789,4.3711,4.3691,4.3691,4.3691,4.3691,4.3691,4.3691,4.3691,4.3691,4.3691,4.3691,4.3691,4.3691,4.3691,4.3652,4.3633,4.3535,4.3457,4.3183,4.293,4.2695,4.2383,4.207,4.1894,4.166,4.1504,4.1328,4.123,4.1211,4.1211,4.1191,4.1152,4.1016,4.0957,4.082,4.0742,4.0449,4.0156,4.0059,3.9922,3.9531,3.9277,3.9043,3.8906,3.8787,3.863,3.8611,3.8611,3.8611,3.8611,3.8611,3.8611,3.8611,3.8611,3.8611,3.8611,3.8611,3.8611,2.9913,2.9913,2.9913,2.9913,2.9913,2.9913,2.9913,2.9913,2.9913,2.9913,2.9953,3.0181,3.0341,3.048,3.0568,3.0755,3.0915,3.1062,3.1122,3.1196,3.1223,3.1383,3.1343,3.1196,3.1062,3.1183,3.1209,3.1102,3.0875,3.1116,3.1209,3.1176,3.1142,3.1049,3.0822,3.0782,3.0929,3.1129,3.1002,3.2724,3.4193,3.5257,3.6833,3.7765,3.8767,3.9914,4.0704,4.099,4.1924,4.3234,4.3394,4.3867,4.4082,4.3906,4.3984,4.4258,4.3945,4.3769,4.3711,4.3711,4.3691,4.3691,4.3691,4.3691,4.3691,4.3691,4.3691,4.3691,4.3691,4.3691,4.3691,4.3691,4.3691,4.3672,4.3594,4.3516,4.3262,4.3144,4.2832,4.2539,4.2129,4.1797,4.166,4.1484,4.1308,4.123,4.1211,4.1211,4.1211,4.1191,4.1113,4.1055,4.0957,4.084,4.0586,4.0547,4.0351,3.9941,3.9629,3.9434,3.9141,3.8923,3.8787,3.8669,3.8611,3.8611,3.8611,3.8611,3.8611,3.8611,3.8611,3.8611,3.8611,3.8611,3.8611,2.9913,2.9913,2.9913,2.9913,2.9913,2.9913,2.9913,2.9913,2.9913,2.9913,2.998,3.0234,3.0533,3.0635,3.0782,3.1009,3.1316,3.1169,3.1276,3.1503,3.1503,3.1557,3.1604,3.149,3.1396,3.149,3.1503,3.1463,3.1396,3.1463,3.149,3.1517,3.1463,3.1463,3.1343,3.1249,3.1223,3.1813,3.285,3.4434,3.5542,3.7831,3.969,4.0429,4.1601,4.2426,4.2838,4.2659,4.3304,4.3957,4.3828,4.3926,4.4101,4.3965,4.4238,4.4394,4.416,4.4004,4.3828,4.3691,4.3691,4.3691,4.3691,4.3691,4.3691,4.3691,4.3691,4.3691,4.3691,4.3691,4.3691,4.3691,4.3691,4.3691,4.3652,4.3652,4.3516,4.3496,4.334,4.3027,4.2696,4.2187,4.1914,4.1699,4.1465,4.1269,4.123,4.123,4.1211,4.1211,4.1191,4.1191,4.1132,4.1074,4.0996,4.0859,4.0723,4.0391,4.0098,3.9883,3.9551,3.9199,3.8923,3.8806,3.8708,3.8611,3.8611,3.8611,3.8611,3.8611,3.8611,3.8611,3.8611,3.8611,3.8611,2.998,3.006,3.0074,3.0127,3.0181,3.0007,2.9967,3.0034,2.998,3.002,3.0247,3.0448,3.0675,3.0902,3.1089,3.1223,3.1637,3.1503,3.1423,3.1711,3.1711,3.1711,3.1711,3.1724,3.1657,3.1724,3.1724,3.1698,3.1657,3.1698,3.1698,3.1698,3.1724,3.1671,3.157,3.149,3.145,3.2245,3.3567,3.5588,3.7325,3.961,4.2086,4.2994,4.3885,4.4658,4.4392,4.4355,4.4414,4.4121,4.4043,4.4121,4.4238,4.4277,4.4512,4.4551,4.4258,4.4043,4.3769,4.3691,4.3691,4.3691,4.3691,4.3691,4.3691,4.3691,4.3691,4.3691,4.3691,4.3691,4.3691,4.3691,4.3691,4.3691,4.3691,4.3691,4.3672,4.3652,4.3613,4.3361,4.3107,4.2617,4.2187,4.1914,4.166,4.1465,4.1289,4.123,4.1211,4.1211,4.1211,4.1211,4.1211,4.1172,4.1152,4.1132,4.0937,4.0781,4.0527,4.0273,4.0019,3.9668,3.9277,3.8926,3.8906,3.8848,3.8669,3.8611,3.863,3.863,3.8611,3.8611,3.8611,3.8611,3.8611,3.01,3.04,3.0413,3.0515,3.0648,3.0207,3.014,3.0386,3.0087,3.0274,3.0755,3.0755,3.0942,3.1223,3.149,3.1671,3.1698,3.1684,3.1698,3.1711,3.1724,3.1724,3.1724,3.1724,3.1724,3.1724,3.1724,3.1724,3.1724,3.1724,3.1724,3.1724,3.1724,3.1724,3.1698,3.1684,3.1623,3.2347,3.3999,3.619,3.8318,4.0669,4.296,4.4223,4.5102,4.5078,4.4902,4.4941,4.4785,4.4668,4.4726,4.4883,4.4883,4.4606,4.4785,4.4687,4.4219,4.4004,4.373,4.3691,4.3691,4.3691,4.3691,4.3691,4.3691,4.3691,4.3691,4.3691,4.3691,4.3691,4.3691,4.3691,4.3691,4.3691,4.3691,4.3691,4.3691,4.3691,4.3691,4.3516,4.3361,4.2949,4.2558,4.2246,4.2012,4.166,4.1465,4.1289,4.1269,4.1211,4.1211,4.1211,4.1211,4.1211,4.1211,4.1211,4.1172,4.0957,4.0801,4.0566,4.0332,4.0098,3.9726,3.9434,3.9297,3.9141,3.8906,3.8767,3.8689,3.8669,3.863,3.8611,3.8611,3.8611,3.8611,3.0207,3.0635,3.0493,3.0528,3.0742,3.0608,3.0595,3.0648,3.0568,3.0675,3.0808,3.1009,3.1142,3.1203,3.153,3.1698,3.1724,3.1724,3.1711,3.1724,3.1724,3.1724,3.1724,3.1724,3.1724,3.1724,3.1724,3.1724,3.1724,3.1724,3.1724,3.1724,3.1724,3.1724,3.1724,3.1724,3.1724,3.2455,3.428,3.6652,3.8985,4.1177,4.3403,4.5001,4.5547,4.5332,4.5176,4.5391,4.5215,4.498,4.4961,4.4996,4.5,4.5156,4.5351,4.5,4.4707,4.4433,4.3867,4.3691,4.3691,4.3691,4.3691,4.3691,4.3691,4.3691,4.3691,4.3691,4.3691,4.3691,4.3691,4.3691,4.3691,4.3691,4.3691,4.3691,4.3691,4.3691,4.3691,4.3652,4.3437,4.3301,4.293,4.2734,4.248,4.2012,4.166,4.1465,4.1289,4.1269,4.1211,4.1211,4.1211,4.1211,4.1211,4.1211,4.1211,4.1152,4.0957,4.0801,4.0586,4.0351,4.0117,3.9883,3.9668,3.9394,3.9121,3.9023,3.9041,3.8728,3.863,3.863,3.8611,3.8611,3.8611,3.0541,3.0915,3.0782,3.0875,3.1116,3.1129,3.1142,3.1102,3.0902,3.0889,3.1129,3.1196,3.1289,3.1436,3.1644,3.1724,3.1724,3.1724,3.1724,3.1724,3.1724,3.1724,3.1724,3.1724,3.1724,3.1724,3.1724,3.1724,3.1724,3.1724,3.1724,3.1724,3.1724,3.1724,3.1724,3.1724,3.1724,3.296,3.4779,3.7206,3.936,4.1702,4.424,4.5449,4.5801,4.5527,4.5391,4.5703,4.5586,4.5254,4.5172,4.543,4.5332,4.5391,4.5019,4.4629,4.4375,4.4121,4.3769,4.3691,4.3691,4.3691,4.3691,4.3691,4.3691,4.3691,4.3691,4.3691,4.3691,4.3691,4.3691,4.3691,4.3691,4.3691,4.3691,4.3691,4.3691,4.3691,4.3691,4.3691,4.3633,4.3555,4.3379,4.3203,4.2949,4.2519,4.2051,4.168,4.1465,4.1328,4.125,4.1211,4.1211,4.1211,4.1211,4.1211,4.1211,4.1211,4.1172,4.0957,4.0801,4.0703,4.0547,4.0273,3.998,3.9726,3.9512,3.9473,3.9394,3.9062,3.8826,3.8806,3.8747,3.8611,3.8611,3.0969,3.1263,3.1216,3.1383,3.1698,3.1684,3.1671,3.1657,3.1162,3.1156,3.1517,3.1383,3.1423,3.1631,3.1711,3.1724,3.1724,3.1724,3.1724,3.1724,3.1724,3.1724,3.1724,3.1724,3.1724,3.1724,3.1724,3.1724,3.1724,3.1724,3.1724,3.1724,3.1724,3.1724,3.1724,3.1724,3.2043,3.337,3.602,3.8748,3.9909,4.2653,4.5749,4.6089,4.5976,4.5723,4.582,4.5898,4.5937,4.5703,4.5683,4.5996,4.5762,4.5371,4.4746,4.4277,4.416,4.3926,4.3789,4.3691,4.3691,4.3691,4.3691,4.3691,4.3691,4.3691,4.3691,4.3691,4.3691,4.3691,4.3691,4.3691,4.3691,4.3691,4.3691,4.3691,4.3691,4.3691,4.3691,4.3691,4.3691,4.3613,4.3594,4.3398,4.3244,4.2891,4.2578,4.2109,4.1699,4.1465,4.1348,4.125,4.1211,4.1211,4.1211,4.1211,4.1211,4.1211,4.1211,4.1191,4.0996,4.0996,4.1054,4.0723,4.043,4.0176,3.998,3.9922,3.9785,3.9453,3.9199,3.9043,3.8923,3.8787,3.865,3.1089,3.1557,3.157,3.161,3.1664,3.1724,3.1724,3.1711,3.1543,3.1577,3.1684,3.1597,3.1583,3.1698,3.1724,3.1724,3.1724,3.1724,3.1724,3.1724,3.1724,3.1724,3.1724,3.1724,3.1724,3.1724,3.1724,3.1724,3.1724,3.1724,3.1724,3.1724,3.1724,3.1724,3.1724,3.1724,3.2455,3.4046,3.6883,3.9113,3.9943,4.1718,4.4025,4.5442,4.6133,4.6094,4.6152,4.6172,4.6191,4.6113,4.6172,4.623,4.6152,4.5742,4.5273,4.4785,4.4316,4.4043,4.3789,4.3691,4.3691,4.3691,4.3691,4.3691,4.3691,4.3691,4.3691,4.3691,4.3691,4.3691,4.3691,4.3691,4.3691,4.3691,4.3691,4.3691,4.3691,4.3691,4.3691,4.3691,4.3691,4.3691,4.3672,4.3574,4.3379,4.3203,4.3068,4.2637,4.207,4.1719,4.1465,4.1348,4.123,4.1211,4.1211,4.1211,4.1211,4.1211,4.1211,4.1211,4.1211,4.1172,4.1132,4.1132,4.0918,4.0625,4.043,4.0371,4.0176,3.9844,3.9668,3.9531,3.9277,3.9121,3.8867,3.137,3.1711,3.1724,3.1724,3.1724,3.1724,3.1724,3.1724,3.1724,3.1724,3.1724,3.1724,3.1724,3.1724,3.1724,3.1724,3.1724,3.1724,3.1724,3.1724,3.1724,3.1724,3.1724,3.1724,3.1724,3.1724,3.1724,3.1724,3.1724,3.1724,3.1724,3.1724,3.1724,3.1724,3.1724,3.1901,3.2994,3.523,3.7849,3.9494,4.0537,4.2907,4.4605,4.6114,4.6308,4.6308,4.6308,4.6308,4.6308,4.6289,4.6289,4.6113,4.5996,4.5785,4.5332,4.4844,4.4433,4.4199,4.3867,4.3691,4.3691,4.3691,4.3691,4.3691,4.3691,4.3691,4.3691,4.3691,4.3691,4.3691,4.3691,4.3691,4.3691,4.3691,4.3691,4.3691,4.3691,4.3691,4.3691,4.3691,4.3691,4.3691,4.3691,4.3672,4.3516,4.3457,4.3301,4.3107,4.2519,4.2051,4.1777,4.1504,4.1387,4.125,4.1211,4.1211,4.1211,4.1211,4.1211,4.1211,4.1211,4.1211,4.1191,4.1191,4.1172,4.1035,4.0879,4.0762,4.0566,4.0254,4.0117,4.0019,3.9766,3.9492,3.9258,3.1711,3.1724,3.1724,3.1724,3.1724,3.1724,3.1724,3.1724,3.1724,3.1724,3.1724,3.1724,3.1724,3.1724,3.1724,3.1724,3.1724,3.1724,3.1724,3.1724,3.1724,3.1724,3.1724,3.1724,3.1724,3.1724,3.1724,3.1724,3.1724,3.1724,3.1724,3.1724,3.1724,3.1724,3.1772,3.2408,3.3685,3.6236,3.8703,4.0898,4.2952,4.5065,4.5851,4.6221,4.6308,4.6308,4.6308,4.6308,4.6308,4.6308,4.6289,4.6152,4.5957,4.5762,4.5273,4.4824,4.4492,4.416,4.3828,4.3691,4.3691,4.3691,4.3691,4.3691,4.3691,4.3691,4.3691,4.3691,4.3691,4.3691,4.3691,4.3691,4.3691,4.3691,4.3691,4.3691,4.3691,4.3691,4.3691,4.3691,4.3691,4.3691,4.3691,4.3691,4.3672,4.3613,4.3476,4.3262,4.2969,4.2558,4.2207,4.1875,4.1621,4.1465,4.1269,4.1211,4.1211,4.1211,4.1211,4.1211,4.1211,4.1211,4.1211,4.1211,4.1191,4.1152,4.1172,4.1035,4.084,4.049,4.0605,4.0488,4.0156,3.9902,3.9707,3.1724,3.1724,3.1724,3.1724,3.1724,3.1724,3.1724,3.1724,3.1724,3.1724,3.1724,3.1724,3.1724,3.1724,3.1724,3.1724,3.1724,3.1724,3.1724,3.1724,3.1724,3.1724,3.1724,3.1724,3.1724,3.1724,3.1724,3.1724,3.1724,3.1724,3.1724,3.1724,3.1724,3.1806,3.2029,3.3229,3.5416,3.7787,4.0265,4.2684,4.4605,4.5983,4.6114,4.6308,4.6308,4.6308,4.6308,4.6308,4.6308,4.6308,4.6308,4.623,4.6074,4.582,4.5351,4.4902,4.459,4.416,4.3867,4.373,4.3691,4.3691,4.3691,4.3691,4.3691,4.3691,4.3691,4.3691,4.3691,4.3691,4.3691,4.3691,4.3691,4.3691,4.3691,4.3691,4.3691,4.3691,4.3691,4.3691,4.3691,4.3691,4.3691,4.3691,4.3691,4.3652,4.3652,4.3437,4.3203,4.291,4.2637,4.2305,4.1953,4.1543,4.1289,4.123,4.1211,4.1211,4.1211,4.1211,4.1211,4.1211,4.1211,4.1211,4.1211,4.1191,4.1211,4.1211,4.0822,4.0531,4.0938,4.0976,4.0509,4.0332,4.0176]},{"header":{"parameterUnit":"m.s-1","parameterCategory":1,"la1":31.0,"la2":29.5877,"lo1":-88.7671,"lo2":-86.6584,"dx":0.0162,"dy":0.0185,"nx":115,"ny":88,"refTime":"2023-01-19T06:00:00:Z","depth":0,"parameterNumber":3,"parameterNumberName":"V-component_of_WINDS"},"data":[0.0,0.0,0.0,0.0,0.0,0.0,0.0,0.0,0.0,0.0,0.0,0.0,0.0,0.0,0.0,0.0,0.0,0.0,0.0,0.0,0.0,0.0,0.0,0.0,0.0,0.0,0.0,0.0,0.0,0.0,0.0,0.0,0.0,0.0,0.0,0.0,0.0,0.0,0.0,0.0,0.0,0.0,0.0,0.0,0.0,0.0,0.0,0.0,0.0,0.0,0.0,0.0,0.0,0.0,0.0,0.0,0.0,0.0,0.0,0.0,0.0,0.0,0.0,0.0,0.0,0.0,0.0,0.0,0.0,0.0,0.0,0.0,0.0,0.0,0.0,0.0,0.0,0.0,0.0,0.0,0.0,0.0,0.0,0.0,0.0,0.0,0.0,0.0,0.0,0.0,0.0,0.0,0.0,0.0,0.0,0.0,0.0,0.0,0.0,0.0,0.0,0.0,0.0,0.0,0.0,0.0,0.0,0.0,0.0,0.0,0.0,0.0,0.0,0.0,0.0,0.0,0.0,0.0,0.0,0.0,0.0,0.0,0.0,0.0,0.0,0.0,0.0,0.0,0.0,0.0,0.0,0.0,0.0,0.0,0.0,0.0,0.0,0.0,0.0,0.0,0.0,0.0,0.0,0.0,0.0,0.0,0.0,0.0,0.0,0.0,0.0,0.0,0.0,0.0,0.0,0.0,0.0,0.0,0.0,0.0,0.0,0.0,0.0,0.0,0.0,0.0,0.0,0.0,0.0,0.0,0.0,0.0,0.0,0.0,0.0,0.0,0.0,0.0,0.0,0.0,0.0,0.0,0.0,0.0,0.0,0.0,0.0,0.0,0.0,0.0,0.0,0.0,0.0,0.0,0.0,0.0,0.0,0.0,0.0,0.0,0.0,0.0,0.0,0.0,0.0,0.0,0.0,0.0,0.0,0.0,0.0,0.0,0.0,0.0,0.0,0.0,0.0,0.0,0.0,0.0,0.0,0.0,0.0,0.0,0.0,0.0,0.0,0.0,0.0,0.0,0.0,0.0,0.0,0.0,0.0,0.0,0.0,0.0,0.0,0.0,0.0,0.0,0.0,0.0,0.0,0.0,0.0,0.0,0.0,0.0,0.0,0.0,0.0,0.0,0.0,0.0,0.0,0.0,0.0,0.0,0.0,0.0,0.0,0.0,0.0,0.0,0.0,0.0,0.0,0.0,0.0,0.0,0.0,0.0,0.0,0.0,0.0,0.0,0.0,0.0,0.0,0.0,0.0,0.0,0.0,0.0,0.0,0.0,0.0,0.0,0.0,0.0,0.0,0.0,0.0,0.0,0.0,0.0,0.0,0.0,0.0,0.0,0.0,0.0,0.0,0.0,0.0,0.0,0.0,0.0,0.0,0.0,0.0,0.0,0.0,0.0,0.0,0.0,0.0,0.0,0.0,0.0,0.0,0.0,0.0,0.0,0.0,0.0,0.0,0.0,0.0,0.0,0.0,0.0,0.0,0.0,0.0,0.0,0.0,0.0,0.0,0.0,0.0,0.0,0.0,0.0,0.0,0.0,0.0,0.0,0.0,0.0,0.0,0.0,0.0,0.0,0.0,0.0,0.0,0.0,0.0,0.0,0.0,0.0,0.0,0.0,0.0,0.0,0.0,0.0,0.0,0.0,0.0,0.0,0.0,0.0,0.0,0.0,0.0,0.0,0.0,0.0,0.0,0.0,0.0,0.0,0.0,0.0,0.0,0.0,0.0,0.0,0.0,0.0,0.0,0.0,0.0,0.0,0.0,0.0,0.0,0.0,0.0,0.0,0.0,0.0,0.0,0.0,0.0,0.0,0.0,0.0,0.0,0.0,0.0,0.0,0.0,0.0,0.0,0.0,0.0,0.0,0.0,0.0,0.0,0.0,0.0,0.0,0.0,0.0,0.0,0.0,0.0,0.0,0.0,0.0,0.0,0.0,0.0,0.0,0.0,0.0,0.0,0.0,0.0,0.0,0.0,0.0,0.0,0.0,0.0,0.0,0.0,0.0,0.0,0.0,0.0,0.0,0.0,0.0,0.0,0.0,0.0,0.0,0.0,0.0,0.0,0.0,0.0,0.0,0.0,0.0,0.0,0.0,0.0,0.0,0.0,0.0,0.0,0.0,0.0,0.0,0.0,0.0,0.0,0.0,0.0,0.0,0.0,0.0,0.0,0.0,0.0,0.0,0.0,0.0,0.0,0.0,0.0,0.0,0.0,0.0,0.0,0.0,0.0,0.0,0.0,0.0,0.0,0.0,0.0,0.0,0.0,0.0,0.0,0.0,0.0,0.0,0.0,0.0,0.0,0.0,0.0,0.0,0.0,0.0,0.0,0.0,0.0,0.0,0.0,0.0,0.0,0.0,0.0,0.0,0.0,0.0,0.0,0.0,0.0,0.0,0.0,0.0,0.0,0.0,0.0,0.0,0.0,0.0,0.0,0.0,0.0,0.0,0.0,0.0,0.0,0.0,0.0,0.0,0.0,0.0,0.0,0.0,0.0,0.0,0.0,0.0,0.0,0.0,0.0,0.0,0.0,0.0,0.0,0.0,0.0,0.0,0.0,0.0,0.0,0.0,0.0,0.0,0.0,0.0,0.0,0.0,0.0,0.0,0.0,0.0,0.0,0.0,0.0,0.0,0.0,0.0,0.0,0.0,0.0,0.0,0.0,0.0,0.0,0.0,0.0,0.0,0.0,0.0,0.0,0.0,0.0,0.0,0.0,0.0,0.0,0.0,0.0,0.0,0.0,0.0,0.0,0.0,0.0,0.0,0.0,0.0,0.0,0.0,0.0,0.0,0.0,0.0,0.0,0.0,0.0,0.0,0.0,0.0,0.0,0.0,0.0,0.0,0.0,0.0,0.0,0.0,0.0,0.0,0.0,0.0,0.0,0.0,0.0,0.0,0.0,0.0,0.0,0.0,0.0,0.0,0.0,0.0,0.0,0.0,0.0,0.0,0.0,0.0,0.0,0.0,0.0,0.0,0.0,0.0,0.0,0.0,0.0,0.0,0.0,0.0,0.0,0.0,0.0,0.0,0.0,0.0,0.0,0.0,0.0,0.0,0.0,0.0,0.0,0.0,0.0,0.0,0.0,0.0,0.0,0.0,0.0,0.0,0.0,0.0,0.0,0.0,0.0,0.0,0.0,0.0,0.0,0.0,0.0,0.0,0.0,0.0,0.0,0.0,0.0,0.0,0.0,0.0,0.0,0.0,0.0,0.0,0.0,0.0,0.0,0.0,0.0,0.0,0.0,0.0,0.0,0.0,0.0,0.0,0.0,0.0,0.0,0.0,0.0,0.0,0.0,0.0,0.0,0.0,0.0,0.0,0.0,0.0,0.0,0.0,0.0,0.0,0.0,0.0,0.0,0.0,0.0,0.0,0.0,0.0,0.0,0.0,0.0,0.0,0.0,0.0,0.0,0.0,0.0,0.0,0.0,0.0,0.0,0.0,0.0,0.0,0.0,0.0,0.0,0.0,0.0,0.0,0.0,0.0,0.0,0.0,0.0,0.0,0.0,0.0,0.0,0.0,0.0,0.0,0.0,0.0,0.0,0.0,0.0,0.0,0.0,0.0,0.0,0.0,0.0,0.0,0.0,0.0,0.0,0.0,0.0,0.0,0.0,0.0,0.0,0.0,0.0,0.0,0.0,0.0,0.0,0.0,0.0,0.0,0.0,0.0,0.0,0.0,0.0,0.0,0.0,0.0,0.0,0.0,0.0,0.0,0.0,0.0,0.0,0.0,0.0,0.0,0.0,0.0,0.0,0.0,0.0,0.0,0.0,0.0,0.0,0.0,0.0,0.0,0.0,0.0,0.0,0.0,0.0,0.0,0.0,0.0,0.0,0.0,0.0,0.0,0.0,0.0,0.0,0.0,0.0,0.0,0.0,0.0,0.0,0.0,0.0,0.0,0.0,0.0,0.0,0.0,0.0,0.0,0.0,0.0,0.0,0.0,0.0,0.0,0.0,0.0,0.0,0.0,0.0,0.0,0.0,0.0,0.0,0.0,0.0,0.0,0.0,0.0,0.0,0.0,0.0,0.0,0.0,0.0,0.0,0.0,0.0,0.0,0.0,0.0,0.0,0.0,0.0,0.0,0.0,0.0,0.0,0.0,0.0,0.0,0.0,0.0,0.0,0.0,0.0,0.0,0.0,0.0,0.0,0.0,0.0,0.0,0.0,0.0,0.0,0.0,0.0,0.0,0.0,0.0,0.0,0.0,0.0,0.0,0.0,0.0,0.0,0.0,0.0,0.0,0.0,0.0,0.0,0.0,3.2235,0.0,0.0,0.0,0.0,0.0,0.0,0.0,0.0,0.0,0.0,0.0,0.0,0.0,0.0,0.0,0.0,0.0,0.0,0.0,0.0,0.0,0.0,0.0,0.0,0.0,0.0,0.0,0.0,0.0,0.0,0.0,0.0,0.0,0.0,0.0,0.0,0.0,0.0,0.0,0.0,0.0,0.0,0.0,0.0,0.0,0.0,0.0,0.0,0.0,0.0,0.0,0.0,0.0,0.0,0.0,0.0,0.0,0.0,0.0,0.0,0.0,0.0,0.0,0.0,0.0,0.0,0.0,0.0,0.0,0.0,0.0,0.0,0.0,0.0,0.0,0.0,0.0,0.0,0.0,0.0,0.0,0.0,0.0,0.0,0.0,0.0,0.0,0.0,0.0,0.0,0.0,0.0,0.0,0.0,0.0,0.0,0.0,0.0,0.0,0.0,0.0,0.0,0.0,0.0,0.0,0.0,0.0,0.0,0.0,0.0,3.222,3.1973,3.2648,3.2836,3.2553,0.0,0.0,0.0,0.0,0.0,0.0,0.0,0.0,0.0,0.0,0.0,0.0,0.0,0.0,0.0,0.0,0.0,0.0,0.0,0.0,0.0,0.0,0.0,0.0,0.0,0.0,0.0,0.0,0.0,0.0,0.0,0.0,0.0,0.0,0.0,0.0,0.0,0.0,0.0,0.0,0.0,0.0,0.0,0.0,0.0,0.0,0.0,0.0,0.0,0.0,0.0,0.0,0.0,0.0,0.0,0.0,0.0,0.0,0.0,0.0,0.0,0.0,0.0,0.0,0.0,0.0,0.0,0.0,0.0,0.0,0.0,0.0,0.0,0.0,0.0,0.0,0.0,0.0,0.0,0.0,0.0,0.0,0.0,0.0,0.0,0.0,0.0,0.0,0.0,0.0,0.0,0.0,0.0,0.0,0.0,0.0,0.0,0.0,0.0,0.0,0.0,0.0,0.0,0.0,0.0,0.0,0.0,0.0,0.0,0.0,0.0,0.0,3.323,3.3379,3.2915,0.0,0.0,0.0,0.0,0.0,0.0,0.0,0.0,0.0,0.0,0.0,0.0,0.0,0.0,0.0,0.0,0.0,0.0,0.0,0.0,0.0,0.0,0.0,0.0,0.0,0.0,0.0,0.0,0.0,0.0,0.0,0.0,0.0,0.0,0.0,0.0,0.0,0.0,0.0,0.0,0.0,0.0,0.0,0.0,0.0,0.0,0.0,0.0,0.0,0.0,0.0,0.0,0.0,0.0,0.0,0.0,0.0,0.0,0.0,0.0,0.0,0.0,0.0,0.0,0.0,0.0,0.0,0.0,0.0,0.0,0.0,0.0,0.0,0.0,0.0,0.0,0.0,0.0,0.0,0.0,0.0,0.0,0.0,0.0,0.0,0.0,0.0,0.0,0.0,0.0,0.0,0.0,0.0,0.0,0.0,0.0,0.0,0.0,0.0,0.0,0.0,0.0,0.0,0.0,0.0,0.0,0.0,0.0,0.0,0.0,3.3683,3.3642,3.3949,0.0,3.373,0.0,0.0,0.0,0.0,0.0,0.0,0.0,0.0,0.0,0.0,0.0,0.0,0.0,0.0,0.0,0.0,0.0,0.0,0.0,0.0,0.0,0.0,0.0,0.0,0.0,0.0,0.0,0.0,0.0,0.0,0.0,0.0,0.0,0.0,0.0,0.0,0.0,0.0,0.0,0.0,0.0,0.0,0.0,0.0,0.0,0.0,0.0,0.0,0.0,0.0,0.0,0.0,0.0,0.0,0.0,0.0,0.0,0.0,0.0,0.0,0.0,0.0,0.0,0.0,0.0,0.0,0.0,0.0,0.0,0.0,0.0,0.0,0.0,0.0,0.0,0.0,0.0,0.0,0.0,0.0,0.0,0.0,0.0,0.0,0.0,0.0,0.0,0.0,0.0,0.0,0.0,0.0,0.0,0.0,0.0,0.0,0.0,0.0,0.0,0.0,0.0,0.0,0.0,0.0,0.0,0.0,0.0,0.0,0.0,0.0,3.4483,3.4344,3.4097,3.3915,0.0,0.0,0.0,0.0,0.0,0.0,0.0,0.0,0.0,0.0,0.0,0.0,0.0,0.0,0.0,0.0,0.0,0.0,0.0,0.0,0.0,0.0,0.0,0.0,0.0,0.0,0.0,0.0,0.0,0.0,0.0,0.0,0.0,0.0,0.0,0.0,0.0,0.0,0.0,0.0,0.0,0.0,0.0,0.0,0.0,0.0,0.0,0.0,0.0,0.0,0.0,0.0,0.0,0.0,0.0,0.0,0.0,0.0,0.0,0.0,0.0,0.0,0.0,0.0,0.0,0.0,0.0,0.0,0.0,0.0,0.0,0.0,0.0,0.0,0.0,0.0,0.0,0.0,0.0,0.0,0.0,0.0,0.0,0.0,0.0,0.0,0.0,0.0,0.0,0.0,0.0,0.0,0.0,0.0,0.0,0.0,0.0,0.0,0.0,0.0,0.0,0.0,0.0,0.0,0.0,0.0,0.0,0.0,0.0,0.0,3.5178,3.4799,3.4442,3.4037,3.3807,3.3807,0.0,0.0,0.0,0.0,0.0,0.0,0.0,0.0,0.0,0.0,0.0,0.0,0.0,0.0,0.0,0.0,0.0,0.0,0.0,0.0,0.0,0.0,0.0,0.0,0.0,0.0,0.0,0.0,0.0,0.0,0.0,0.0,0.0,0.0,0.0,0.0,0.0,0.0,0.0,0.0,0.0,0.0,0.0,0.0,0.0,0.0,0.0,0.0,0.0,0.0,0.0,0.0,0.0,0.0,0.0,0.0,0.0,0.0,0.0,0.0,0.0,0.0,0.0,0.0,0.0,0.0,0.0,0.0,0.0,0.0,0.0,0.0,0.0,0.0,0.0,0.0,0.0,0.0,0.0,0.0,0.0,0.0,0.0,0.0,0.0,0.0,0.0,0.0,0.0,0.0,0.0,0.0,0.0,0.0,0.0,0.0,0.0,0.0,0.0,0.0,0.0,0.0,0.0,0.0,0.0,0.0,0.0,0.0,0.0,3.4981,3.4426,3.3893,3.3827,3.3807,0.0,0.0,0.0,0.0,0.0,0.0,0.0,0.0,0.0,0.0,0.0,0.0,0.0,0.0,0.0,0.0,0.0,0.0,0.0,0.0,0.0,0.0,0.0,0.0,0.0,0.0,0.0,0.0,0.0,0.0,0.0,0.0,0.0,0.0,0.0,0.0,0.0,0.0,0.0,0.0,0.0,0.0,0.0,0.0,0.0,0.0,0.0,0.0,0.0,0.0,0.0,0.0,0.0,0.0,0.0,0.0,0.0,0.0,0.0,0.0,0.0,0.0,0.0,0.0,0.0,0.0,0.0,0.0,0.0,0.0,0.0,0.0,0.0,0.0,0.0,0.0,0.0,0.0,0.0,0.0,0.0,0.0,0.0,0.0,0.0,0.0,0.0,0.0,0.0,0.0,0.0,0.0,0.0,0.0,0.0,0.0,0.0,0.0,0.0,0.0,0.0,0.0,0.0,0.0,0.0,0.0,0.0,0.0,0.0,3.5223,3.4695,3.4201,3.3834,3.3807,3.3807,0.0,0.0,0.0,0.0,0.0,0.0,0.0,0.0,0.0,0.0,0.0,0.0,0.0,0.0,0.0,0.0,0.0,0.0,0.0,0.0,0.0,0.0,0.0,0.0,0.0,0.0,0.0,0.0,0.0,0.0,0.0,0.0,0.0,0.0,0.0,0.0,0.0,0.0,0.0,0.0,0.0,0.0,0.0,0.0,0.0,0.0,0.0,0.0,0.0,0.0,0.0,0.0,0.0,0.0,0.0,0.0,0.0,0.0,0.0,0.0,0.0,0.0,0.0,0.0,0.0,0.0,0.0,0.0,0.0,0.0,0.0,0.0,0.0,0.0,0.0,0.0,0.0,0.0,0.0,0.0,0.0,0.0,0.0,0.0,0.0,0.0,0.0,0.0,0.0,0.0,0.0,0.0,0.0,0.0,0.0,0.0,0.0,0.0,0.0,0.0,0.0,0.0,0.0,0.0,0.0,0.0,0.0,0.0,0.0,3.5081,0.0,3.4298,3.393,3.3941,3.3889,0.0,0.0,0.0,0.0,0.0,0.0,0.0,0.0,0.0,0.0,0.0,0.0,0.0,0.0,0.0,0.0,0.0,0.0,0.0,0.0,0.0,0.0,0.0,0.0,0.0,0.0,0.0,0.0,0.0,0.0,0.0,0.0,0.0,0.0,0.0,0.0,0.0,0.0,0.0,0.0,0.0,0.0,0.0,0.0,0.0,0.0,0.0,0.0,0.0,0.0,0.0,0.0,0.0,0.0,0.0,0.0,0.0,0.0,0.0,0.0,0.0,0.0,0.0,0.0,0.0,0.0,0.0,0.0,0.0,0.0,0.0,0.0,0.0,0.0,0.0,0.0,0.0,0.0,0.0,0.0,0.0,0.0,0.0,0.0,0.0,0.0,0.0,0.0,0.0,0.0,0.0,0.0,0.0,0.0,0.0,0.0,0.0,0.0,0.0,0.0,0.0,0.0,0.0,0.0,0.0,0.0,0.0,0.0,3.5365,3.5119,3.506,3.477,3.4217,3.4182,3.4074,0.0,0.0,0.0,0.0,0.0,0.0,0.0,0.0,0.0,0.0,0.0,0.0,0.0,0.0,0.0,0.0,0.0,0.0,0.0,0.0,0.0,0.0,0.0,0.0,0.0,0.0,0.0,0.0,0.0,0.0,0.0,0.0,0.0,0.0,0.0,0.0,0.0,0.0,0.0,0.0,0.0,0.0,0.0,0.0,0.0,0.0,0.0,0.0,0.0,0.0,0.0,0.0,0.0,0.0,0.0,0.0,0.0,0.0,0.0,0.0,0.0,0.0,0.0,0.0,0.0,0.0,0.0,0.0,0.0,0.0,0.0,0.0,0.0,0.0,0.0,0.0,0.0,0.0,0.0,0.0,0.0,0.0,0.0,0.0,0.0,0.0,0.0,0.0,0.0,0.0,0.0,0.0,0.0,0.0,0.0,0.0,0.0,0.0,0.0,0.0,0.0,0.0,0.0,0.0,0.0,0.0,0.0,0.0,0.0,3.4502,3.47,3.4629,3.4217,3.4194,3.4152,0.0,0.0,0.0,0.0,0.0,0.0,0.0,0.0,0.0,0.0,0.0,0.0,0.0,0.0,0.0,0.0,0.0,0.0,0.0,0.0,0.0,0.0,0.0,0.0,0.0,0.0,0.0,0.0,0.0,0.0,0.0,0.0,0.0,0.0,0.0,0.0,0.0,0.0,0.0,0.0,0.0,0.0,0.0,0.0,0.0,0.0,0.0,0.0,0.0,0.0,0.0,0.0,0.0,0.0,0.0,0.0,0.0,0.0,0.0,0.0,0.0,0.0,0.0,0.0,0.0,0.0,0.0,0.0,0.0,0.0,0.0,0.0,0.0,0.0,0.0,0.0,0.0,0.0,0.0,0.0,0.0,0.0,0.0,0.0,0.0,0.0,0.0,0.0,0.0,0.0,0.0,0.0,0.0,0.0,0.0,0.0,0.0,0.0,0.0,0.0,0.0,0.0,0.0,0.0,0.0,0.0,0.0,0.0,0.0,3.5355,3.5707,3.5771,3.5502,3.536,3.4974,3.4237,0.0,0.0,0.0,0.0,0.0,0.0,0.0,0.0,0.0,0.0,0.0,0.0,0.0,0.0,0.0,0.0,0.0,0.0,0.0,0.0,0.0,0.0,0.0,0.0,0.0,0.0,0.0,0.0,0.0,0.0,0.0,0.0,0.0,0.0,0.0,0.0,0.0,0.0,0.0,0.0,0.0,0.0,0.0,0.0,0.0,0.0,0.0,0.0,0.0,0.0,0.0,0.0,0.0,0.0,0.0,0.0,0.0,0.0,0.0,0.0,0.0,0.0,0.0,0.0,0.0,0.0,0.0,0.0,0.0,0.0,0.0,0.0,0.0,0.0,0.0,0.0,0.0,0.0,0.0,0.0,0.0,0.0,0.0,0.0,0.0,0.0,0.0,0.0,0.0,0.0,0.0,0.0,0.0,0.0,0.0,0.0,0.0,0.0,0.0,0.0,0.0,0.0,0.0,0.0,0.0,0.0,0.0,0.0,3.7396,3.7972,3.8104,3.7744,3.7359,3.6298,0.0,0.0,0.0,0.0,0.0,0.0,0.0,0.0,0.0,0.0,0.0,0.0,0.0,0.0,0.0,0.0,0.0,0.0,0.0,0.0,0.0,0.0,0.0,0.0,0.0,0.0,0.0,0.0,0.0,0.0,0.0,0.0,0.0,0.0,0.0,0.0,0.0,0.0,0.0,0.0,0.0,0.0,0.0,0.0,0.0,0.0,0.0,0.0,0.0,0.0,0.0,0.0,0.0,0.0,0.0,0.0,0.0,0.0,0.0,0.0,0.0,0.0,0.0,0.0,0.0,0.0,0.0,0.0,0.0,0.0,0.0,0.0,0.0,0.0,0.0,0.0,0.0,0.0,0.0,0.0,0.0,0.0,0.0,0.0,0.0,0.0,0.0,0.0,0.0,0.0,0.0,0.0,0.0,0.0,0.0,0.0,0.0,0.0,0.0,0.0,0.0,0.0,0.0,0.0,0.0,0.0,0.0,0.0,0.0,3.9606,4.1037,4.1033,3.9476,3.7981,3.6928,0.0,0.0,0.0,0.0,0.0,0.0,0.0,0.0,0.0,0.0,0.0,0.0,0.0,0.0,0.0,0.0,0.0,0.0,0.0,0.0,0.0,0.0,0.0,0.0,0.0,0.0,0.0,0.0,0.0,0.0,0.0,0.0,0.0,0.0,0.0,0.0,0.0,0.0,0.0,0.0,0.0,0.0,0.0,0.0,0.0,0.0,0.0,0.0,0.0,0.0,0.0,0.0,0.0,0.0,0.0,0.0,0.0,0.0,0.0,0.0,0.0,0.0,0.0,0.0,0.0,0.0,0.0,0.0,0.0,0.0,0.0,0.0,0.0,0.0,0.0,0.0,0.0,0.0,0.0,0.0,0.0,0.0,0.0,0.0,0.0,0.0,0.0,0.0,0.0,0.0,0.0,0.0,0.0,0.0,0.0,0.0,0.0,0.0,0.0,0.0,0.0,0.0,0.0,0.0,0.0,0.0,0.0,0.0,3.9461,4.0283,4.2702,4.332,4.2026,3.9687,3.8031,0.0,0.0,0.0,0.0,0.0,0.0,0.0,0.0,0.0,0.0,0.0,0.0,0.0,0.0,0.0,0.0,0.0,0.0,0.0,0.0,0.0,0.0,0.0,0.0,0.0,0.0,0.0,0.0,0.0,0.0,0.0,0.0,0.0,0.0,0.0,0.0,0.0,0.0,0.0,0.0,0.0,0.0,0.0,0.0,0.0,0.0,0.0,0.0,0.0,0.0,0.0,0.0,0.0,0.0,0.0,0.0,0.0,0.0,0.0,0.0,0.0,0.0,0.0,0.0,0.0,0.0,0.0,0.0,0.0,0.0,0.0,0.0,0.0,0.0,0.0,0.0,0.0,0.0,0.0,0.0,0.0,0.0,0.0,0.0,0.0,0.0,0.0,0.0,0.0,0.0,0.0,0.0,0.0,0.0,0.0,0.0,0.0,0.0,0.0,0.0,0.0,0.0,0.0,0.0,0.0,0.0,0.0,0.0,4.0449,4.0358,4.3502,4.4988,4.4569,4.1635,3.9176,0.0,0.0,0.0,0.0,0.0,0.0,0.0,0.0,0.0,0.0,0.0,0.0,0.0,0.0,0.0,0.0,0.0,0.0,0.0,0.0,0.0,0.0,0.0,0.0,0.0,0.0,0.0,0.0,0.0,0.0,0.0,0.0,0.0,0.0,0.0,0.0,0.0,0.0,0.0,0.0,0.0,0.0,0.0,0.0,0.0,0.0,0.0,0.0,0.0,0.0,0.0,0.0,0.0,0.0,0.0,0.0,0.0,0.0,0.0,0.0,0.0,0.0,0.0,0.0,0.0,0.0,0.0,0.0,0.0,0.0,0.0,0.0,0.0,0.0,0.0,0.0,0.0,0.0,0.0,0.0,0.0,0.0,0.0,0.0,0.0,0.0,0.0,0.0,0.0,0.0,0.0,0.0,0.0,0.0,0.0,0.0,0.0,0.0,0.0,0.0,0.0,0.0,0.0,0.0,0.0,0.0,0.0,0.0,4.1142,4.2437,4.4434,4.5351,4.4994,4.1366,3.9183,0.0,0.0,0.0,0.0,0.0,0.0,0.0,0.0,0.0,0.0,0.0,0.0,0.0,0.0,0.0,0.0,0.0,0.0,0.0,0.0,0.0,0.0,0.0,0.0,0.0,0.0,0.0,0.0,0.0,0.0,0.0,0.0,0.0,0.0,0.0,0.0,0.0,0.0,0.0,0.0,0.0,0.0,0.0,0.0,0.0,0.0,0.0,0.0,2.9022,0.0,0.0,0.0,0.0,0.0,0.0,0.0,0.0,0.0,0.0,0.0,0.0,0.0,0.0,0.0,0.0,0.0,0.0,0.0,0.0,0.0,0.0,0.0,0.0,0.0,0.0,0.0,0.0,0.0,0.0,0.0,0.0,0.0,0.0,0.0,0.0,0.0,0.0,0.0,0.0,0.0,0.0,0.0,0.0,0.0,0.0,0.0,0.0,0.0,0.0,0.0,0.0,0.0,0.0,0.0,0.0,0.0,0.0,0.0,4.1007,4.2565,4.4265,4.4966,4.4524,4.1825,3.9961,0.0,0.0,0.0,0.0,0.0,0.0,0.0,0.0,0.0,0.0,0.0,0.0,0.0,0.0,0.0,0.0,0.0,0.0,0.0,0.0,0.0,0.0,0.0,0.0,0.0,0.0,0.0,0.0,0.0,0.0,0.0,0.0,0.0,0.0,0.0,0.0,0.0,0.0,0.0,0.0,0.0,0.0,0.0,0.0,0.0,0.0,0.0,0.0,0.0,0.0,0.0,0.0,0.0,0.0,0.0,0.0,0.0,0.0,0.0,0.0,0.0,0.0,0.0,0.0,0.0,0.0,0.0,0.0,0.0,0.0,0.0,0.0,0.0,0.0,0.0,0.0,0.0,0.0,0.0,0.0,0.0,0.0,0.0,0.0,0.0,0.0,0.0,0.0,0.0,0.0,0.0,0.0,0.0,0.0,0.0,0.0,0.0,0.0,0.0,0.0,0.0,0.0,0.0,0.0,0.0,0.0,0.0,3.9522,4.0989,4.2743,4.4095,4.4602,4.4244,4.2601,4.0884,3.9265,0.0,0.0,0.0,0.0,0.0,0.0,0.0,0.0,0.0,0.0,0.0,0.0,0.0,0.0,0.0,0.0,0.0,0.0,0.0,0.0,0.0,0.0,0.0,0.0,0.0,0.0,0.0,0.0,0.0,0.0,0.0,0.0,0.0,0.0,0.0,0.0,0.0,0.0,2.9419,2.8897,0.0,0.0,0.0,0.0,0.0,0.0,0.0,0.0,2.8783,0.0,0.0,0.0,0.0,0.0,0.0,0.0,0.0,0.0,0.0,0.0,0.0,0.0,0.0,0.0,0.0,0.0,0.0,0.0,0.0,0.0,0.0,0.0,0.0,0.0,0.0,0.0,0.0,0.0,0.0,0.0,0.0,0.0,0.0,0.0,0.0,0.0,0.0,0.0,0.0,0.0,0.0,0.0,0.0,0.0,0.0,0.0,0.0,0.0,0.0,0.0,0.0,0.0,0.0,0.0,0.0,4.1617,4.1031,4.2429,4.6053,4.581,4.5563,4.5427,4.3193,4.1053,3.9265,0.0,0.0,0.0,0.0,0.0,0.0,0.0,0.0,0.0,0.0,0.0,0.0,0.0,0.0,0.0,0.0,0.0,0.0,0.0,0.0,0.0,0.0,0.0,0.0,0.0,0.0,0.0,0.0,0.0,0.0,0.0,0.0,0.0,0.0,0.0,0.0,0.0,0.0,0.0,3.0662,2.9746,0.0,0.0,0.0,0.0,0.0,0.0,0.0,0.0,2.9728,0.0,0.0,0.0,0.0,0.0,0.0,0.0,0.0,0.0,0.0,0.0,0.0,0.0,0.0,0.0,0.0,0.0,0.0,0.0,0.0,0.0,0.0,0.0,0.0,0.0,0.0,0.0,0.0,0.0,0.0,0.0,0.0,0.0,0.0,0.0,0.0,0.0,0.0,0.0,0.0,0.0,0.0,0.0,0.0,0.0,0.0,0.0,0.0,0.0,0.0,0.0,0.0,0.0,0.0,0.0,4.1895,4.2278,4.3793,4.6555,4.6293,4.6106,4.6076,4.4128,4.223,0.0,0.0,0.0,0.0,0.0,0.0,0.0,0.0,0.0,0.0,0.0,0.0,0.0,0.0,0.0,0.0,0.0,0.0,0.0,0.0,0.0,0.0,0.0,0.0,0.0,0.0,0.0,0.0,0.0,0.0,0.0,0.0,0.0,0.0,0.0,0.0,0.0,0.0,0.0,0.0,3.178,3.1415,3.2481,0.0,0.0,0.0,0.0,0.0,0.0,2.9983,2.9817,0.0,0.0,0.0,0.0,0.0,0.0,0.0,0.0,0.0,0.0,0.0,0.0,0.0,0.0,0.0,0.0,0.0,0.0,0.0,0.0,0.0,0.0,0.0,0.0,0.0,0.0,0.0,0.0,0.0,0.0,0.0,0.0,0.0,0.0,0.0,0.0,0.0,0.0,0.0,0.0,0.0,0.0,0.0,0.0,0.0,0.0,0.0,0.0,0.0,0.0,0.0,0.0,0.0,0.0,0.0,4.2068,4.3361,4.4938,4.6685,4.6611,4.6579,4.6631,4.46,4.291,0.0,0.0,0.0,0.0,0.0,0.0,0.0,0.0,0.0,0.0,0.0,0.0,0.0,0.0,0.0,0.0,0.0,0.0,0.0,0.0,0.0,0.0,0.0,0.0,0.0,0.0,0.0,0.0,0.0,0.0,0.0,0.0,0.0,0.0,0.0,0.0,0.0,0.0,0.0,0.0,0.0,3.3164,3.3941,3.2792,0.0,0.0,0.0,0.0,3.0356,3.0596,0.0,0.0,0.0,0.0,0.0,0.0,0.0,0.0,0.0,0.0,0.0,0.0,0.0,0.0,0.0,0.0,0.0,0.0,0.0,0.0,0.0,0.0,0.0,0.0,0.0,0.0,0.0,0.0,0.0,0.0,0.0,0.0,0.0,0.0,0.0,0.0,0.0,0.0,0.0,0.0,0.0,0.0,0.0,0.0,0.0,0.0,0.0,0.0,0.0,0.0,0.0,0.0,0.0,0.0,0.0,0.0,4.3639,4.4333,4.5726,4.7895,4.738,4.7203,4.7471,4.3817,4.1756,0.0,0.0,0.0,0.0,0.0,0.0,0.0,0.0,0.0,0.0,0.0,0.0,0.0,0.0,0.0,0.0,0.0,0.0,0.0,0.0,0.0,0.0,0.0,0.0,0.0,0.0,0.0,0.0,0.0,0.0,0.0,0.0,0.0,0.0,0.0,0.0,0.0,0.0,0.0,0.0,0.0,3.46,3.5538,3.3872,3.2556,0.0,0.0,3.2377,3.2946,3.4053,0.0,0.0,0.0,0.0,0.0,0.0,0.0,0.0,0.0,0.0,0.0,0.0,0.0,0.0,0.0,0.0,0.0,0.0,0.0,0.0,0.0,0.0,0.0,0.0,0.0,0.0,0.0,0.0,0.0,0.0,0.0,0.0,0.0,0.0,0.0,0.0,0.0,0.0,0.0,0.0,0.0,0.0,0.0,0.0,0.0,0.0,0.0,0.0,0.0,0.0,0.0,0.0,0.0,0.0,0.0,4.2659,4.3722,4.5716,4.7232,4.826,4.7966,4.784,4.7996,4.4526,4.2651,0.0,0.0,0.0,0.0,0.0,0.0,0.0,0.0,0.0,0.0,0.0,0.0,0.0,0.0,0.0,0.0,0.0,0.0,0.0,0.0,0.0,0.0,0.0,0.0,0.0,0.0,0.0,0.0,0.0,0.0,0.0,0.0,0.0,0.0,0.0,0.0,0.0,0.0,0.0,0.0,0.0,0.0,3.6379,3.5017,0.0,0.0,0.0,3.2615,3.2932,0.0,0.0,0.0,0.0,0.0,0.0,0.0,0.0,0.0,0.0,0.0,0.0,0.0,0.0,0.0,0.0,0.0,0.0,0.0,0.0,0.0,0.0,0.0,0.0,0.0,0.0,0.0,0.0,0.0,0.0,0.0,0.0,0.0,0.0,0.0,0.0,0.0,0.0,0.0,0.0,0.0,0.0,0.0,0.0,0.0,0.0,0.0,0.0,0.0,0.0,0.0,0.0,0.0,0.0,0.0,0.0,0.0,4.3836,4.7205,4.882,4.8636,4.8636,4.8526,4.826,4.5553,0.0,0.0,0.0,0.0,0.0,0.0,0.0,0.0,0.0,0.0,0.0,0.0,0.0,0.0,0.0,0.0,0.0,0.0,0.0,0.0,0.0,0.0,0.0,0.0,0.0,0.0,0.0,3.3852,0.0,0.0,0.0,0.0,0.0,0.0,0.0,0.0,0.0,0.0,0.0,0.0,0.0,0.0,3.7371,3.7325,3.6448,3.6306,0.0,0.0,3.3696,3.4282,3.6455,3.6806,0.0,0.0,0.0,0.0,0.0,0.0,0.0,0.0,0.0,0.0,0.0,0.0,0.0,0.0,0.0,0.0,0.0,0.0,0.0,0.0,0.0,0.0,0.0,0.0,0.0,0.0,0.0,0.0,0.0,0.0,0.0,0.0,0.0,0.0,0.0,0.0,0.0,0.0,0.0,0.0,0.0,0.0,0.0,0.0,0.0,0.0,0.0,0.0,0.0,0.0,0.0,0.0,0.0,0.0,0.0,4.4773,4.859,5.0251,4.9537,4.95,4.9123,4.8296,4.6654,4.5048,0.0,0.0,0.0,0.0,0.0,0.0,0.0,0.0,0.0,0.0,0.0,0.0,0.0,0.0,0.0,0.0,0.0,0.0,0.0,0.0,0.0,0.0,0.0,0.0,0.0,0.0,0.0,0.0,0.0,0.0,0.0,0.0,0.0,0.0,0.0,0.0,0.0,0.0,0.0,0.0,0.0,3.8848,3.8848,3.8329,3.8639,0.0,0.0,3.6924,3.8909,4.0938,4.0768,3.5996,0.0,0.0,0.0,0.0,0.0,0.0,0.0,0.0,0.0,0.0,0.0,0.0,0.0,0.0,0.0,0.0,0.0,0.0,0.0,0.0,0.0,0.0,0.0,0.0,0.0,0.0,0.0,0.0,0.0,0.0,0.0,0.0,0.0,0.0,0.0,0.0,0.0,0.0,0.0,0.0,0.0,0.0,0.0,0.0,0.0,0.0,0.0,0.0,0.0,0.0,0.0,0.0,0.0,4.6168,4.6241,5.0205,5.1903,5.1106,5.1069,5.0702,4.9848,4.8269,4.6397,0.0,0.0,0.0,0.0,0.0,0.0,0.0,0.0,0.0,0.0,0.0,0.0,0.0,0.0,0.0,0.0,0.0,0.0,0.0,0.0,0.0,0.0,0.0,0.0,0.0,0.0,0.0,0.0,3.8024,3.8024,3.7133,0.0,0.0,0.0,0.0,0.0,0.0,0.0,0.0,0.0,0.0,3.9356,4.0223,4.0254,0.0,0.0,4.029,3.8683,3.9124,4.0062,3.9221,3.4955,3.5103,0.0,0.0,0.0,0.0,0.0,0.0,0.0,0.0,0.0,0.0,0.0,0.0,0.0,0.0,0.0,0.0,0.0,0.0,0.0,0.0,0.0,0.0,0.0,0.0,0.0,0.0,0.0,0.0,0.0,0.0,0.0,0.0,0.0,0.0,0.0,0.0,0.0,0.0,0.0,0.0,0.0,0.0,0.0,0.0,0.0,0.0,0.0,0.0,0.0,0.0,0.0,0.0,4.7452,4.7489,5.172,5.3518,5.2747,5.2711,5.2344,5.1526,5.0388,4.8737,0.0,0.0,0.0,0.0,0.0,0.0,0.0,0.0,0.0,0.0,0.0,0.0,0.0,0.0,0.0,0.0,0.0,0.0,0.0,0.0,0.0,0.0,0.0,0.0,0.0,0.0,0.0,0.0,3.9174,3.9051,3.799,0.0,0.0,0.0,0.0,0.0,0.0,0.0,0.0,0.0,0.0,4.0798,4.117,4.1258,4.1531,4.2024,4.0224,3.8733,3.8565,3.9115,3.854,3.5609,0.0,0.0,0.0,0.0,0.0,0.0,0.0,0.0,0.0,0.0,0.0,0.0,0.0,0.0,0.0,0.0,0.0,0.0,0.0,0.0,0.0,0.0,0.0,0.0,0.0,0.0,0.0,0.0,0.0,0.0,4.3315,0.0,0.0,0.0,0.0,0.0,0.0,0.0,0.0,0.0,0.0,0.0,0.0,0.0,0.0,0.0,0.0,0.0,0.0,0.0,0.0,0.0,0.0,4.8296,4.8379,5.3078,5.5133,5.4399,5.4363,5.3959,5.3177,5.3141,5.2297,5.0655,0.0,0.0,0.0,0.0,0.0,0.0,0.0,0.0,0.0,0.0,0.0,0.0,0.0,0.0,0.0,0.0,0.0,0.0,0.0,0.0,0.0,0.0,0.0,0.0,0.0,0.0,3.5971,3.7065,3.7944,0.0,0.0,0.0,0.0,0.0,0.0,0.0,0.0,0.0,0.0,4.213,4.3653,4.1508,4.1225,4.0847,3.9621,3.7903,3.6955,3.7795,3.8982,3.9641,0.0,0.0,0.0,0.0,0.0,0.0,0.0,0.0,0.0,0.0,0.0,0.0,0.0,0.0,0.0,0.0,0.0,0.0,0.0,0.0,0.0,0.0,0.0,0.0,0.0,0.0,0.0,4.5676,4.5683,0.0,0.0,0.0,0.0,0.0,0.0,0.0,0.0,0.0,0.0,0.0,4.8269,4.8352,0.0,0.0,0.0,0.0,0.0,0.0,0.0,0.0,0.0,0.0,0.0,0.0,4.9948,5.0168,5.474,5.6822,5.6003,5.5978,5.5611,5.484,5.4803,5.3812,5.1657,0.0,0.0,0.0,0.0,0.0,0.0,0.0,0.0,0.0,0.0,0.0,0.0,0.0,0.0,0.0,0.0,0.0,0.0,0.0,0.0,0.0,0.0,0.0,0.0,0.0,3.7674,0.0,0.0,0.0,0.0,0.0,0.0,0.0,0.0,0.0,0.0,0.0,3.9343,4.0358,4.029,4.0392,4.1102,4.161,4.2456,0.0,0.0,0.0,0.0,0.0,0.0,0.0,0.0,0.0,0.0,0.0,0.0,0.0,0.0,3.7153,3.5202,3.6429,3.7608,3.6864,0.0,0.0,0.0,0.0,0.0,0.0,0.0,0.0,0.0,0.0,0.0,0.0,0.0,0.0,4.821,0.0,4.8016,0.0,0.0,0.0,0.0,0.0,0.0,0.0,0.0,4.9544,5.0315,5.0765,5.0849,5.0849,0.0,5.0251,4.86,0.0,0.0,0.0,0.0,0.0,0.0,0.0,0.0,5.0802,5.0975,5.5537,5.774,5.7262,5.7226,5.6969,5.6466,5.6429,5.5695,5.4106,5.1463,4.9287,0.0,0.0,0.0,0.0,0.0,0.0,0.0,0.0,0.0,0.0,0.0,0.0,0.0,0.0,0.0,0.0,0.0,0.0,0.0,0.0,0.0,0.0,0.0,3.9229,0.0,0.0,0.0,0.0,0.0,0.0,0.0,0.0,0.0,3.9884,4.0472,4.1284,4.2252,4.1813,4.136,4.1225,0.0,0.0,0.0,0.0,0.0,0.0,0.0,3.912,3.8567,3.9327,4.0207,4.0719,4.1132,4.1081,4.043,0.0,0.0,3.811,3.9079,4.0248,3.9535,3.9032,3.8901,3.9302,3.908,3.8871,0.0,0.0,0.0,0.0,0.0,0.0,0.0,0.0,5.1654,5.0535,0.0,5.0782,0.0,0.0,0.0,0.0,0.0,4.883,0.0,0.0,5.3995,5.473,5.3361,5.3324,5.3324,5.3214,5.1783,5.1059,5.1022,5.1012,0.0,0.0,0.0,0.0,0.0,0.0,5.0839,5.1096,5.5611,5.7997,5.796,5.796,5.7997,5.796,5.796,5.7935,5.785,5.4939,5.3287,5.3141,4.8039,0.0,0.0,0.0,0.0,0.0,0.0,0.0,0.0,0.0,0.0,0.0,0.0,0.0,0.0,0.0,0.0,0.0,0.0,0.0,0.0,4.1271,0.0,0.0,0.0,0.0,0.0,0.0,0.0,0.0,0.0,0.0,4.1461,4.3112,4.4479,4.4432,0.0,0.0,0.0,0.0,4.2772,3.8089,3.7199,3.7058,3.661,3.8714,4.1168,4.3212,0.0,0.0,4.7,4.4888,4.313,4.2446,4.44,4.4697,4.0667,4.0076,4.0046,3.9979,4.0063,3.9738,3.9775,4.0242,4.0019,5.1048,0.0,0.0,0.0,0.0,5.0485,5.1482,5.2983,5.2836,5.2422,5.1793,5.2496,0.0,0.0,0.0,0.0,0.0,0.0,5.1499,5.3371,5.4326,5.5097,5.5746,5.5783,5.5746,5.5746,5.5306,5.539,5.5904,5.5941,5.292,4.7186,0.0,0.0,0.0,0.0,5.1646,5.3445,5.6418,5.7997,5.7997,5.7997,5.7997,5.7997,5.7997,5.7997,5.796,5.7116,5.5831,5.4106,5.2491,0.0,0.0,0.0,0.0,0.0,0.0,0.0,0.0,0.0,0.0,0.0,0.0,0.0,0.0,0.0,0.0,0.0,0.0,0.0,4.1191,4.2658,4.2503,0.0,0.0,0.0,0.0,0.0,0.0,0.0,0.0,0.0,4.5162,4.3416,4.2185,0.0,0.0,4.0481,3.9715,4.1555,4.3193,4.3855,4.3928,0.0,4.5805,4.5406,4.5105,4.5759,4.7289,4.8316,4.815,4.8207,4.8234,4.797,4.8581,4.8649,4.758,4.6614,4.6063,4.6076,4.5546,4.5312,4.5897,4.5566,4.4975,5.3819,5.2816,5.1544,5.1463,5.2232,5.2409,5.3496,5.5151,5.5117,5.4572,5.3728,5.4693,5.3518,5.0802,5.0802,0.0,0.0,0.0,5.3518,5.5831,5.5831,5.6345,5.7262,5.7299,5.7299,5.7251,5.7251,5.7519,5.796,5.7042,5.4363,5.0095,0.0,0.0,4.8627,5.1012,5.2931,5.4436,5.6785,5.7997,5.7997,5.7997,5.7997,5.7997,5.7997,5.7997,5.7997,5.7997,5.7336,5.5904,5.4608,5.242,0.0,0.0,0.0,0.0,0.0,0.0,0.0,0.0,0.0,0.0,0.0,4.1495,0.0,0.0,0.0,0.0,4.3436,4.3403,4.3403,4.3856,0.0,0.0,0.0,0.0,0.0,0.0,0.0,4.1644,4.4587,4.6786,4.6752,4.4823,4.3741,4.4621,4.3572,4.2591,4.2151,0.0,4.5751,4.6684,4.6786,4.7259,4.856,4.8409,4.8425,4.9323,5.0038,5.0525,5.0541,5.0847,5.0991,5.0949,5.0665,5.0262,4.9852,4.9215,4.8952,4.9336,4.8963,4.8759,4.9336,4.8646,4.7913,5.6639,5.6289,5.2889,5.2491,5.4085,5.446,5.5686,5.7445,5.7844,5.6748,5.4876,5.7042,5.5537,5.1389,5.1389,0.0,5.4693,5.4693,5.5868,5.796,5.7997,5.7997,5.7997,5.796,5.7997,5.796,5.7997,5.7997,5.7898,5.5794,5.4583,5.4399,5.4399,5.3188,5.1059,5.3004,5.4216,5.4399,5.6565,5.7776,5.7997,5.7997,5.7997,5.7997,5.7997,5.7997,5.7997,5.7997,5.7997,5.7912,5.5111,5.3411,5.3014,0.0,0.0,0.0,0.0,0.0,0.0,0.0,0.0,0.0,0.0,0.0,0.0,0.0,0.0,0.0,4.6868,0.0,4.7071,4.5196,0.0,0.0,0.0,4.4471,4.6563,4.6955,4.6989,4.6834,0.0,0.0,4.7056,4.7056,4.7868,5.0067,5.0083,4.9101,4.7071,4.8594,4.9424,4.7564,4.7409,4.7496,4.8222,4.9372,5.0947,5.2739,5.3501,5.3332,5.3247,5.263,5.2065,5.2029,5.1299,5.0435,4.9376,4.9436,4.9456,5.0397,5.0204,5.0048,5.0048,4.9235,4.8522,5.9504,5.9045,5.8169,5.7309,5.6566,5.6961,5.7415,5.7858,5.7955,5.7666,5.7189,5.774,5.7336,5.6271,5.6308,5.6602,5.7152,5.7152,5.7446,5.796,5.7997,5.7997,5.7997,5.7997,5.7997,5.7997,5.7997,5.7997,5.796,5.7446,5.6198,5.4509,5.4399,5.3188,5.0912,5.1389,5.2564,5.4399,5.495,5.6161,5.7923,5.7997,5.7997,5.7997,5.7997,5.7997,5.7997,5.7997,5.7997,5.7948,5.6721,5.4966,5.2666,4.9065,0.0,0.0,0.0,0.0,0.0,0.0,0.0,0.0,0.0,4.2713,4.1014,0.0,4.3626,0.0,4.7293,4.9323,4.9338,4.8815,0.0,0.0,4.6312,4.6177,4.6752,4.8289,4.8661,4.7003,4.8289,4.9338,4.9338,4.9323,5.0184,5.23,4.9729,4.7409,4.6936,4.9187,5.0761,5.0389,5.1555,5.2722,5.2587,5.2638,5.2858,5.3416,5.3501,5.3501,5.3501,5.3314,5.3127,5.311,5.2939,5.2645,5.2294,5.2365,5.208,5.1539,4.9714,4.8272,4.8983,4.8418,4.77,6.021,5.9984,6.0116,5.9627,5.8739,5.8821,5.8923,5.9061,5.9061,5.9061,5.9061,5.9061,5.9061,5.9061,5.9061,5.9061,5.9061,5.9061,5.9281,5.9575,5.9587,5.9795,6.0126,5.9758,5.9612,5.9587,5.9245,5.9061,5.9061,5.9061,5.8364,5.7104,5.7079,5.5868,5.3518,5.172,5.1463,5.2784,5.3885,5.5574,5.7886,5.7997,5.7494,5.6455,5.6381,5.5868,5.484,5.4803,5.4668,5.4383,5.3676,5.2416,5.048,4.7544,4.5152,0.0,0.0,0.0,0.0,0.0,0.0,0.0,0.0,0.0,0.0,0.0,4.4911,4.4925,4.8071,4.971,4.8714,4.8612,4.8526,4.8289,4.8289,4.8661,4.9661,5.0879,5.115,4.9932,5.0845,5.1623,5.1623,5.1589,5.2063,5.3332,5.1623,5.0286,5.0371,5.1758,5.2824,5.3196,5.4279,5.5108,5.5108,5.4718,5.4499,5.4481,5.4481,5.4397,5.4059,5.3991,5.389,5.3619,5.3754,5.3703,5.3005,5.3068,5.2935,5.1848,5.0375,4.9684,5.0422,5.0236,4.9878,6.0752,6.071,6.0995,6.1079,6.1006,6.0707,6.0518,6.0407,6.0407,6.0407,6.0407,6.0407,6.0407,6.0407,6.0407,6.0456,6.0566,6.0566,6.1006,6.1741,6.1741,6.2144,6.2756,6.2071,6.1741,6.1704,6.1043,6.0701,6.0713,6.0713,6.0566,6.026,6.0126,5.8866,5.6455,5.2884,5.1059,5.0986,5.3335,5.5574,5.7629,5.7299,5.6051,5.4069,5.3959,5.2968,5.0912,5.0802,5.0571,5.0036,4.9305,4.8776,4.8398,4.5576,4.4047,0.0,4.2185,0.0,0.0,0.0,0.0,0.0,0.0,0.0,0.0,4.6786,4.6936,4.7192,4.8966,4.944,4.78,4.7665,4.8409,5.0286,5.0556,5.1319,5.3213,5.3501,5.3501,5.3501,5.3501,5.3518,5.3551,5.3653,5.3653,5.3873,5.4194,5.4363,5.4769,5.4769,5.504,5.5767,5.5834,5.58,5.5665,5.5631,5.5631,5.5631,5.5597,5.5496,5.4837,5.4735,5.4532,5.4059,5.4363,5.4223,5.2641,5.3,5.3052,5.2171,5.1991,5.2094,5.2324,5.2324,5.2912,6.5239,6.4853,6.4899,6.4719,6.4383,6.4301,6.2782,6.0407,6.0407,6.0407,6.0407,6.0407,6.0407,6.0407,6.0407,6.075,6.1374,6.1374,6.1814,6.2585,6.2572,6.2646,6.2793,6.2646,6.2572,6.2572,6.2426,6.2352,6.2352,6.2352,6.1361,5.9453,5.8792,5.7262,5.4913,0.0,0.0,0.0,5.4142,5.5585,5.5952,5.3482,5.194,5.1499,5.1499,0.0,5.0839,5.0802,5.0762,5.0623,4.9867,0.0,0.0,0.0,0.0,0.0,0.0,0.0,0.0,0.0,0.0,0.0,4.638,4.6312,4.6766,4.6786,4.7545,4.9304,4.988,5.0676,5.2097,5.2232,5.2401,5.2807,5.2841,5.3044,5.3484,5.3501,5.3501,5.3501,5.3501,5.3754,5.4296,5.4414,5.4634,5.509,5.5395,5.5733,5.6292,5.6292,5.6393,5.6596,5.6596,5.6341,5.5767,5.5767,5.5834,5.5699,5.5699,5.5665,5.5547,5.5513,5.548,5.5225,5.5395,5.5427,5.498,5.5115,5.4809,5.3809,5.4269,5.4158,5.1851,5.1339,5.109,6.5931,0.0,6.5644,6.552,0.0,6.5325,6.4371,6.2793,6.2805,6.2805,6.2829,6.3246,6.3429,6.3429,6.3429,6.3613,6.4016,6.3613,6.387,6.4604,6.4628,6.4861,6.5228,6.4824,6.4628,6.464,6.4224,6.404,6.404,6.404,6.3417,6.2242,6.1802,6.1006,5.982,5.938,5.7581,5.4399,5.5574,5.6748,5.785,5.6381,5.4976,5.3801,5.3775,0.0,0.0,0.0,0.0,0.0,0.0,0.0,0.0,4.8446,0.0,4.8372,4.7443,4.7259,4.8323,4.8409,4.8917,5.0033,5.0135,4.9627,4.8511,4.9458,5.071,5.2181,5.23,5.2942,5.438,5.4583,5.4583,5.4583,5.46,5.46,5.4583,5.4583,5.46,5.4583,5.46,5.4769,5.5108,5.5141,5.5277,5.5665,5.6037,5.6393,5.6731,5.6799,5.69,5.7273,5.7358,5.7205,5.69,5.6799,5.6765,5.6799,5.6799,5.663,5.6292,5.624,5.6156,5.5834,5.5969,5.6156,5.58,5.5969,5.6064,5.5618,5.5851,5.5749,5.3865,5.3676,5.3785,6.6022,6.6132,6.6132,6.6132,6.6132,6.6132,6.6132,6.6096,0.0,0.0,0.0,6.6439,6.6696,6.6696,6.6733,6.6769,6.688,6.6256,6.6352,6.7136,6.7136,6.7467,6.8068,6.748,6.7136,6.71,6.6329,6.5912,6.5949,6.5802,6.5729,6.5692,6.5582,6.5448,6.5325,6.5325,6.3013,5.8535,5.7728,5.8389,6.0309,5.9722,5.84,5.6407,5.6235,5.5233,5.3287,5.3214,5.297,5.2461,5.1107,5.0265,5.0006,4.8698,4.8071,4.8357,4.8376,4.9154,5.0963,5.1098,5.1894,5.3754,5.389,5.3044,5.1064,5.2604,5.3991,5.4753,5.4803,5.504,5.5631,5.5699,5.5699,5.5699,5.5699,5.5699,5.5699,5.5699,5.5631,5.5699,5.5631,5.5767,5.5868,5.5902,5.5936,5.6139,5.6664,5.7002,5.7002,5.7036,5.7239,5.7712,5.7798,5.7832,5.7866,5.7832,5.79,5.7764,5.7832,5.7663,5.7171,5.7002,5.6765,5.6308,5.663,5.6697,5.6292,5.663,5.6968,5.7002,5.7002,5.6902,5.6635,5.6754,5.6829,6.8788,6.9412,6.9412,6.9412,6.9412,6.9412,6.9412,6.9265,6.7247,6.6733,6.737,6.748,6.7517,6.7517,6.7517,6.7907,6.8554,6.8444,6.8825,6.9596,6.9596,6.9633,6.9743,6.9646,6.9596,6.9522,6.8752,6.8371,6.8311,6.7687,6.7357,6.7297,6.6696,6.5999,6.5362,6.5325,6.4921,6.4077,6.1325,6.0052,6.0346,5.7042,5.5097,5.473,5.4205,5.3581,5.3214,5.3324,5.3182,5.3071,5.2157,5.2256,5.3506,5.2805,5.2967,5.4313,5.4448,5.4583,5.4853,5.4887,5.5056,5.5361,5.5395,5.4972,5.411,5.4228,5.4735,5.5462,5.553,5.5564,5.5699,5.5733,5.58,5.5767,5.5733,5.5699,5.5767,5.5767,5.58,5.58,5.5699,5.6003,5.6511,5.6664,5.6867,5.7374,5.7509,5.7697,5.7697,5.773,5.7764,5.7866,5.79,5.79,5.79,5.79,5.79,5.79,5.79,5.7866,5.7697,5.7663,5.7595,5.7561,5.7577,5.7577,5.7476,5.7645,5.7679,5.7663,5.7663,5.7621,5.752,5.7637,5.7201,7.1064,7.1394,7.1394,7.1394,7.1394,7.1394,7.1651,7.1945,7.0895,6.9853,6.9059,6.9449,6.9633,6.9669,6.9669,6.9853,7.0169,6.9743,6.9743,7.0073,7.011,7.011,7.011,7.011,7.011,7.0073,6.9706,6.9522,6.9522,6.9169,6.8985,6.8949,6.8201,6.7614,6.7233,6.6806,6.6586,6.6549,6.4273,6.305,6.3013,6.1263,6.0297,6.0297,5.993,5.9747,5.9747,5.9747,5.9747,5.9747,5.856,5.8219,5.8908,5.7901,5.7333,5.7552,5.7243,5.6782,5.6309,5.5902,5.5868,5.6258,5.6274,5.6528,5.6968,5.5886,5.5496,5.6206,5.6292,5.6461,5.6833,5.69,5.69,5.69,5.69,5.69,5.69,5.69,5.69,5.69,5.69,5.7036,5.734,5.7374,5.7476,5.7866,5.79,5.79,5.7934,5.79,5.79,5.79,5.79,5.79,5.79,5.79,5.79,5.79,5.79,5.79,5.79,5.79,5.79,5.79,5.79,5.79,5.79,5.79,5.79,5.79,5.79,5.79,5.79,5.79,5.7517,7.2863,7.3046,7.3046,7.3046,7.3046,7.3032,7.3413,7.3964,7.3927,7.2899,7.1394,7.1857,7.2004,7.1857,7.1821,7.1747,7.149,7.0917,7.066,7.066,7.0624,7.0624,7.0624,7.0624,7.0624,7.0624,7.044,7.0367,7.0367,7.0183,7.011,7.0036,6.9486,6.9192,6.9155,6.8545,6.8251,6.8178,6.7026,6.6206,6.5852,6.5668,6.5595,6.5558,6.5325,6.5325,6.5325,6.5325,6.521,6.4915,6.3607,6.2773,6.2517,6.1262,6.0145,5.9443,5.8874,5.8273,5.76,5.7018,5.6916,5.7476,5.7543,5.8017,5.893,5.7694,5.6934,5.7442,5.7611,5.7814,5.8287,5.8389,5.8389,5.8389,5.8407,5.8407,5.8407,5.8407,5.8389,5.8407,5.8407,5.8407,5.8407,5.8389,5.8423,5.8457,5.8389,5.8389,5.8389,5.8389,5.8389,5.834,5.817,5.79,5.79,5.79,5.79,5.79,5.79,5.79,5.79,5.79,5.79,5.79,5.79,5.79,5.79,5.79,5.79,5.79,5.79,5.79,5.79,5.79,5.7881,7.4037,7.4647,7.4683,7.4683,7.4683,7.4683,7.4757,7.4793,7.4793,7.4683,7.439,7.4536,7.4111,7.3523,7.345,7.3083,7.2459,7.2312,7.2275,7.2275,7.2275,7.2275,7.2275,7.2275,7.2275,7.2165,7.1541,7.1197,7.116,7.0513,7.0146,7.011,7.0036,7.0,6.9963,6.9889,6.9867,6.9853,6.9743,6.8949,6.7517,6.6769,6.6402,6.6366,6.5705,6.5325,6.5359,6.5325,6.4911,6.4072,6.3239,6.2402,6.1656,6.0691,6.0158,6.0084,5.9945,5.9851,5.9776,5.9742,5.9607,5.9776,5.9742,5.981,6.0013,5.981,5.9708,5.9742,5.9776,5.9674,5.9877,5.981,5.9742,5.9674,5.9742,5.9877,5.9776,5.9911,5.9911,5.9911,5.9708,5.9877,5.9708,5.9708,5.9776,5.9674,5.9607,5.9641,5.9641,5.9674,5.9674,5.9539,5.8829,5.8103,5.8035,5.7934,5.8103,5.8035,5.7967,5.8069,5.817,5.8103,5.7934,5.834,5.8069,5.8137,5.8069,5.79,5.8001,5.8035,5.8001,5.79,5.79,5.79,5.79,7.6004,7.6335,7.6335,7.6335,7.6335,7.6335,7.6298,7.6335,7.6335,7.6335,7.6335,7.6335,7.5601,7.4441,7.4404,7.4221,7.3913,7.3913,7.3927,7.3913,7.3913,7.3913,7.3876,7.3413,7.3193,7.312,7.2386,7.2004,7.1982,7.1651,7.1505,7.1468,7.105,7.0793,7.0756,7.033,7.011,7.011,7.011,6.9793,6.9119,6.8348,6.7687,6.7247,6.688,6.6482,6.6022,6.5929,6.5532,6.4637,6.4221,6.3915,6.3547,6.3188,6.2767,6.224,6.1318,6.0588,6.0114,6.008,6.0283,6.0757,6.0825,6.0994,6.1419,6.1467,6.1434,6.1366,6.0655,6.008,6.0114,6.0114,6.008,6.008,6.008,6.0114,6.008,6.0114,6.008,6.008,6.008,6.0114,6.008,6.008,6.008,6.008,6.0114,6.0182,6.0114,6.008,6.008,6.0047,5.9539,5.9268,5.9167,5.9201,5.9167,5.9167,5.9201,5.9201,5.9133,5.9201,5.9201,5.9167,5.9099,5.9099,5.9268,5.9167,5.9099,5.8761,5.8103,5.79,5.79,5.79,5.79,7.7326,7.7326,7.7326,7.7326,7.7326,7.7326,7.7326,7.7326,7.7326,7.7326,7.7326,7.7326,7.6665,7.5637,7.5344,7.5124,7.4903,7.4903,7.4903,7.4903,7.4903,7.4903,7.483,7.4331,7.4037,7.3927,7.345,7.3142,7.3156,7.3156,7.3046,7.2789,7.2224,7.1872,7.1564,7.1027,7.0734,7.077,7.077,7.066,7.0367,6.9853,6.9192,6.8421,6.8361,6.7954,6.7135,6.7092,6.6554,6.5458,6.5394,6.5166,6.47,6.4631,6.4253,6.339,6.2263,6.1366,6.0757,6.0723,6.096,6.1501,6.1603,6.1806,6.2245,6.2415,6.2415,6.2299,6.1385,6.0757,6.0723,6.0723,6.0723,6.0723,6.0723,6.0723,6.0757,6.0723,6.0791,6.0723,6.0858,6.0723,6.0757,6.0791,6.0858,6.0825,6.0791,6.0723,6.0723,6.0791,6.0757,6.0723,6.0723,6.052,6.0216,5.9979,6.008,6.008,5.9979,5.9945,6.008,6.008,6.008,5.9674,5.9979,6.0047,5.981,5.9877,5.9979,5.9438,5.8863,5.849,5.8693,5.8524,5.8524,7.7326,7.7326,7.7326,7.7326,7.7326,7.7326,7.7326,7.7326,7.7326,7.7326,7.7326,7.7326,7.7252,7.7069,7.6335,7.5652,7.5014,7.5014,7.505,7.505,7.5014,7.494,7.4903,7.4867,7.483,7.483,7.4647,7.461,7.4683,7.472,7.4404,7.367,7.356,7.3193,7.2606,7.2459,7.2386,7.2312,7.2312,7.2018,7.1344,7.1197,7.0756,7.0073,6.9926,6.9481,6.8797,6.8729,6.7998,6.6364,6.6218,6.5517,6.4041,6.379,6.3473,6.2635,6.244,6.2333,6.2231,6.2212,6.2279,6.2367,6.2415,6.2381,6.2603,6.2637,6.2637,6.2468,6.2434,6.2279,6.2279,6.2096,6.213,6.211,6.2212,6.2197,6.2212,6.2042,6.2279,6.2197,6.2076,6.2009,6.2164,6.2279,6.2144,6.211,6.2212,6.2144,6.2062,6.2164,6.213,6.213,6.2062,6.1791,6.0486,6.0452,6.0351,6.0419,6.0588,6.0283,6.0148,6.008,6.0148,6.0216,6.0419,6.0419,6.0182,6.0114,6.0182,5.9979,5.9877,5.9708,5.9438,5.981,5.9742,7.8589,7.8148,7.8148,7.7803,7.7326,7.7326,7.7326,7.7326,7.7326,7.7326,7.7326,7.7326,7.7326,7.7289,7.6995,7.6702,7.6445,7.6445,7.6445,7.6445,7.6445,7.6445,7.6371,7.5931,7.5652,7.5616,7.5175,7.4903,7.4903,7.4903,7.4771,7.4536,7.4478,7.428,7.4059,7.4023,7.3817,7.3318,7.3266,7.2863,7.2151,7.2092,7.1908,7.1615,7.0624,6.9701,6.8858,6.8218,6.7354,6.6196,6.5596,6.4985,6.4352,6.4254,6.3927,6.3199,6.3071,6.2888,6.2516,6.2854,6.3105,6.3125,6.3565,6.3768,6.3802,6.3802,6.3802,6.3768,6.3802,6.3802,6.3599,6.299,6.2434,6.2415,6.2415,6.2448,6.2415,6.2415,6.2415,6.2415,6.2415,6.2415,6.2415,6.2415,6.2415,6.2415,6.2415,6.2415,6.2415,6.2415,6.2415,6.2415,6.2381,6.2212,6.1772,6.1569,6.1569,6.1603,6.1603,6.1603,6.1501,6.14,6.1467,6.1366,6.1332,6.1298,6.1231,6.096,6.0926,6.0791,6.0689,6.0452,6.008,6.0419,6.0317,7.9486,7.9029,7.8993,7.8662,7.8133,7.8096,7.8096,7.8096,7.8112,7.8096,7.8096,7.8096,7.8096,7.8112,7.8096,7.8112,7.8023,7.7582,7.7326,7.7326,7.7326,7.7326,7.7215,7.6738,7.6481,7.6423,7.5968,7.5674,7.5674,7.5674,7.5527,7.5322,7.5285,7.516,7.494,7.4903,7.4573,7.4147,7.4074,7.3817,7.334,7.3266,7.3266,7.3083,7.1945,7.074,6.9648,6.8933,6.8206,6.7388,6.6723,6.6102,6.5551,6.4909,6.4377,6.3937,6.3849,6.3666,6.326,6.3599,6.3849,6.3869,6.4309,6.4613,6.4613,6.4613,6.4613,6.4613,6.4613,6.4613,6.4444,6.37,6.3125,6.3091,6.3111,6.3091,6.3125,6.3145,6.3043,6.2854,6.2821,6.2685,6.2468,6.2415,6.2415,6.2415,6.2415,6.2415,6.2415,6.2415,6.2415,6.2415,6.2415,6.2381,6.2178,6.2076,6.2076,6.211,6.211,6.2313,6.2415,6.2415,6.2415,6.2415,6.2415,6.2415,6.2245,6.1907,6.1738,6.1603,6.1501,6.1298,6.1095,6.096,6.0994,7.9853,7.9816,7.9779,7.9743,7.9596,7.9559,7.9706,7.9596,7.9633,7.9522,7.9486,7.9669,7.9522,7.9669,7.9486,7.9669,7.9339,7.817,7.7582,7.7582,7.7509,7.7472,7.7436,7.7362,7.7252,7.7179,7.7215,7.7215,7.7105,7.7032,7.6738,7.6203,7.613,7.5836,7.4977,7.516,7.5014,7.4903,7.4903,7.4867,7.4867,7.472,7.4647,7.4647,7.3927,7.2834,7.1433,7.1186,7.0544,6.9923,6.9785,6.9107,6.72,6.5699,6.4681,6.4647,6.4613,6.458,6.4512,6.4546,6.4613,6.4647,6.4681,6.485,6.4918,6.485,6.485,6.4884,6.485,6.4783,6.4816,6.4681,6.4512,6.4546,6.4343,6.4343,6.441,6.4512,6.4309,6.3666,6.3497,6.3173,6.2685,6.2651,6.2753,6.2719,6.2584,6.255,6.255,6.2482,6.2434,6.2415,6.2415,6.2415,6.2415,6.2381,6.2381,6.2381,6.2347,6.2415,6.2415,6.2415,6.2415,6.2415,6.2415,6.2415,6.2415,6.2144,6.2178,6.211,6.2076,6.2009,6.1873,6.1738,6.1941,8.1122,8.0645,8.0608,8.033,7.9853,7.9816,7.9816,7.9816,7.9816,7.9816,7.9816,7.9816,7.9816,7.9816,7.9816,7.9816,7.9743,7.925,7.9029,7.9029,7.8993,7.8699,7.8259,7.8185,7.7876,7.7399,7.7326,7.7326,7.7362,7.7326,7.7142,7.6959,7.6922,7.6812,7.6518,7.6555,7.6335,7.5784,7.5726,7.5469,7.4977,7.4903,7.4903,7.4867,7.4647,7.4243,7.3736,7.2125,7.0789,6.9966,6.9835,6.9259,6.7952,6.6776,6.5907,6.5446,6.5358,6.5087,6.4749,6.5087,6.5358,6.5425,6.5797,6.6102,6.6136,6.6068,6.6068,6.6081,6.6115,6.6115,6.6115,6.6115,6.5675,6.4715,6.4613,6.4681,6.4749,6.4681,6.4512,6.4343,6.4275,6.414,6.3971,6.3869,6.3768,6.3734,6.3463,6.3159,6.3125,6.2787,6.2434,6.2415,6.2415,6.255,6.2584,6.2584,6.255,6.2448,6.2415,6.2415,6.2415,6.2415,6.2415,6.2415,6.2415,6.2415,6.2415,6.2415,6.2415,6.2415,6.2279,6.2279,6.2381,6.2415,6.2415,8.1893,8.1452,8.1452,8.1158,8.0697,8.0697,8.0697,8.0697,8.0697,8.0697,8.0697,8.0697,8.0697,8.0697,8.0697,8.0697,8.0697,8.0697,8.0697,8.055,7.9963,7.9522,7.9066,7.9082,7.8809,7.8332,7.8259,7.8222,7.8206,7.7913,7.7766,7.7766,7.7472,7.7289,7.7326,7.7289,7.6995,7.6592,7.6533,7.6298,7.5894,7.5784,7.5784,7.5747,7.5491,7.5359,7.5204,7.3467,7.2255,7.1543,7.0767,6.9698,6.8678,6.7503,6.6588,6.6237,6.6068,6.5899,6.5527,6.5899,6.6102,6.6203,6.6542,6.6757,6.6791,6.6791,6.6791,6.6791,6.6757,6.6791,6.6791,6.6791,6.6339,6.554,6.5493,6.5425,6.5425,6.5425,6.5256,6.5121,6.4986,6.4884,6.4681,6.4613,6.4613,6.4512,6.4221,6.3917,6.3815,6.3531,6.3294,6.3193,6.3362,6.3294,6.2922,6.2787,6.2719,6.255,6.2415,6.2415,6.2415,6.2415,6.2415,6.2415,6.2415,6.2415,6.2415,6.2415,6.2415,6.2415,6.2415,6.2415,6.2415,6.2415,6.2415,8.2186,8.2186,8.2186,8.2113,8.2039,8.2039,8.2003,8.2113,8.2076,8.2003,8.2039,8.1966,8.2039,8.2113,8.1929,8.1929,8.215,8.2003,8.1929,8.1599,8.0807,8.0073,7.989,7.9743,7.9596,7.9596,7.9596,7.9669,7.9486,7.8919,7.8662,7.8589,7.7986,7.7509,7.7693,7.7509,7.7546,7.7436,7.7362,7.7326,7.7142,7.7179,7.7179,7.7142,7.6518,7.6166,7.6026,7.5342,7.4835,7.447,7.1903,7.0116,6.9327,6.7858,6.7083,6.7028,6.696,6.6994,6.6927,6.6994,6.7028,6.7083,6.7117,6.6927,6.7129,6.7231,6.7231,6.7197,6.7163,6.7028,6.6994,6.696,6.6846,6.6791,6.6521,6.6555,6.6724,6.6656,6.6339,6.5899,6.5717,6.5547,6.5019,6.4952,6.4918,6.4884,6.4816,6.4681,6.458,6.4478,6.4546,6.441,6.4174,6.3971,6.3599,6.3565,6.3463,6.3362,6.3057,6.2821,6.257,6.2415,6.2415,6.2415,6.2415,6.2415,6.2415,6.2415,6.2415,6.2415,6.2415,6.2415,6.2415,6.2415,6.2415,8.2186,8.2186,8.2186,8.2186,8.2186,8.2186,8.2186,8.2186,8.2186,8.2186,8.2186,8.2186,8.2186,8.2186,8.2186,8.2186,8.2186,8.2186,8.2186,8.215,8.1819,8.1195,8.0645,8.011,7.9853,7.989,7.9963,7.9816,7.9779,7.9633,7.947,7.947,7.9176,7.9066,7.914,7.9029,7.8809,7.8332,7.8259,7.7928,7.7436,7.7399,7.7326,7.7289,7.7105,7.6995,7.6959,7.6775,7.5645,7.3731,7.11,6.9838,7.0012,6.9066,6.8368,6.8368,6.8436,6.847,6.8436,6.8436,6.8436,6.8504,6.8335,6.8504,6.8504,6.847,6.8504,6.8504,6.8504,6.8199,6.776,6.7624,6.7421,6.6893,6.6927,6.6893,6.6791,6.6791,6.6711,6.6542,6.6474,6.6339,6.6203,6.6081,6.6102,6.6034,6.573,6.5412,6.5358,6.5053,6.4986,6.4715,6.4512,6.4444,6.4377,6.4343,6.4275,6.4241,6.3937,6.3517,6.3043,6.2502,6.2468,6.2415,6.2415,6.2415,6.2415,6.2415,6.2415,6.2415,6.2415,6.2415,6.2415,6.2415,6.2415,8.2186,8.2186,8.2186,8.2186,8.2186,8.2186,8.2186,8.2186,8.2186,8.2186,8.2186,8.2186,8.2186,8.2186,8.2186,8.2186,8.2186,8.2186,8.2186,8.2186,8.215,8.1893,8.1452,8.0954,8.0807,8.0807,8.0807,8.0844,8.0771,8.0514,8.033,8.0204,7.9963,7.9816,7.9706,7.9779,7.9596,7.9192,7.9082,7.8809,7.8405,7.8369,7.8369,7.8295,7.8075,7.7729,7.7331,7.6888,7.5743,7.3833,7.1921,7.0739,7.0283,6.9569,6.9113,6.9079,6.9079,6.9079,6.9079,6.9079,6.9079,6.9079,6.9079,6.9079,6.9045,6.9079,6.9079,6.9045,6.9079,6.8876,6.8538,6.8402,6.8199,6.7929,6.776,6.7501,6.6914,6.6791,6.6791,6.6791,6.6791,6.6791,6.6791,6.6791,6.6791,6.669,6.6385,6.6237,6.6102,6.5696,6.5425,6.5324,6.529,6.5358,6.5189,6.5087,6.485,6.4816,6.4749,6.4309,6.3632,6.2922,6.2719,6.2651,6.2516,6.2415,6.2482,6.2482,6.2415,6.2415,6.2415,6.2415,6.2415,6.2415,6.2415,8.2186,8.2186,8.2186,8.2186,8.2186,8.2186,8.2186,8.2186,8.2186,8.2186,8.2186,8.2186,8.2186,8.2186,8.2186,8.2186,8.2186,8.2186,8.2186,8.2186,8.2186,8.2113,8.2039,8.1929,8.1893,8.1929,8.215,8.2039,8.1819,8.1342,8.1158,8.1012,8.0477,8.0147,8.033,8.022,8.0036,7.9963,7.991,7.9779,7.9559,7.9486,7.9486,7.9396,7.9008,7.8442,7.7757,7.6963,7.5939,7.4615,7.3762,7.2414,7.0832,6.9999,6.9656,6.9647,6.9671,6.9519,6.9417,6.9553,6.9451,6.9519,6.9485,6.935,6.9519,6.9586,6.9586,6.962,6.935,6.9417,6.9214,6.9147,6.8977,6.8808,6.8944,6.8368,6.7455,6.696,6.6893,6.6914,6.6893,6.6791,6.6791,6.6791,6.6791,6.6791,6.6622,6.6588,6.6542,6.6373,6.6284,6.6385,6.6373,6.6373,6.6102,6.5797,6.5527,6.5324,6.5324,6.5019,6.4377,6.3768,6.3294,6.3125,6.3294,6.3091,6.2719,6.2651,6.2618,6.2415,6.2415,6.2415,6.2415,6.2415,6.2415,8.2186,8.2186,8.2186,8.2186,8.2186,8.2186,8.2186,8.2186,8.2186,8.2186,8.2186,8.2186,8.2186,8.2186,8.2186,8.2186,8.2186,8.2186,8.2186,8.2186,8.2186,8.2186,8.2186,8.2186,8.2186,8.2186,8.2186,8.2186,8.2076,8.2003,8.1929,8.1819,8.1599,8.1652,8.1562,8.1452,8.1342,8.0865,8.0755,8.0424,8.0036,7.9963,7.9926,7.9853,7.9669,7.9486,7.9323,7.9055,7.8048,7.6309,7.4819,7.3806,7.2973,7.2216,7.1737,7.1469,7.1044,7.0748,7.0782,7.068,7.0804,7.068,7.0613,7.0816,7.0816,7.0714,7.0748,7.0816,7.0838,7.0466,7.0026,6.9417,6.9316,6.9316,6.9248,6.9113,6.8605,6.8064,6.7726,6.759,6.7252,6.6825,6.6825,6.6859,6.6859,6.6825,6.6791,6.6791,6.6791,6.6791,6.6791,6.6791,6.6757,6.6643,6.6542,6.6271,6.6102,6.5899,6.5878,6.5831,6.5189,6.4715,6.4343,6.4208,6.4241,6.3869,6.3328,6.3226,6.326,6.2854,6.2516,6.255,6.2618,6.2516,6.2415,8.2186,8.2186,8.2186,8.2186,8.2186,8.2186,8.2186,8.2186,8.2186,8.2186,8.2186,8.2186,8.2186,8.2186,8.2186,8.2186,8.2186,8.2186,8.2186,8.2186,8.2186,8.2186,8.2186,8.2186,8.2186,8.2186,8.2186,8.2186,8.2186,8.2186,8.215,8.2186,8.2186,8.2076,8.2186,8.2186,8.1929,8.1672,8.1562,8.1305,8.0991,8.0918,8.0681,8.0424,8.0314,8.0241,7.9816,7.9218,7.8432,7.734,7.6043,7.4631,7.3593,7.2909,7.2541,7.2016,7.1688,7.1312,7.1289,7.1289,7.1255,7.1323,7.1289,7.1289,7.1289,7.1289,7.1289,7.1289,7.1222,7.1109,7.0737,7.0466,7.0161,7.0128,7.0128,7.0106,6.9958,6.918,6.847,6.8402,6.8166,6.776,6.7523,6.7354,6.6994,6.6994,6.688,6.6825,6.6791,6.6791,6.6791,6.6791,6.6791,6.6791,6.6757,6.669,6.6656,6.6521,6.6453,6.644,6.6136,6.5764,6.5405,6.5155,6.4816,6.4512,6.4072,6.4005,6.3937,6.3734,6.3463,6.3125,6.2854,6.2753,6.2584,8.2186,8.2186,8.2186,8.2186,8.2186,8.2186,8.2186,8.2186,8.2186,8.2186,8.2186,8.2186,8.2186,8.2186,8.2186,8.2186,8.2186,8.2186,8.2186,8.2186,8.2186,8.2186,8.2186,8.2186,8.2186,8.2186,8.2186,8.2186,8.2186,8.2186,8.2186,8.2186,8.2186,8.2186,8.2186,8.2186,8.215,8.2076,8.2039,8.2039,8.2003,8.2003,8.1672,8.1342,8.1195,8.0938,8.0401,7.9702,7.8887,7.8494,7.7502,7.5553,7.3744,7.2802,7.2564,7.202,7.1988,7.1887,7.1921,7.1819,7.1785,7.1627,7.1492,7.1492,7.1526,7.1391,7.1289,7.1289,7.1255,7.1255,7.1289,7.112,7.1154,7.1188,7.1222,7.1289,7.1086,7.0161,6.9586,6.9214,6.891,6.847,6.8267,6.8064,6.7569,6.7163,6.7049,6.6914,6.6859,6.6791,6.6791,6.6791,6.6791,6.6791,6.6791,6.6791,6.6791,6.6791,6.6791,6.6757,6.6711,6.6419,6.598,6.5527,6.5189,6.4986,6.485,6.4749,6.4681,6.4613,6.4275,6.3802,6.3396,6.3024,6.2854,8.2186,8.2186,8.2186,8.2186,8.2186,8.2186,8.2186,8.2186,8.2186,8.2186,8.2186,8.2186,8.2186,8.2186,8.2186,8.2186,8.2186,8.2186,8.2186,8.2186,8.2186,8.2186,8.2186,8.2186,8.2186,8.2186,8.2186,8.2186,8.2186,8.2186,8.2186,8.2186,8.2186,8.2186,8.2186,8.2186,8.2186,8.2186,8.2186,8.2186,8.2186,8.2186,8.215,8.1856,8.1856,8.1697,8.1664,8.1513,8.1161,8.0226,7.9144,7.7486,7.5673,7.4728,7.4328,7.3856,7.3243,7.2834,7.2868,7.3003,7.3071,7.3003,7.2563,7.2225,7.209,7.1751,7.156,7.1357,7.1323,7.1289,7.1289,7.1289,7.1289,7.1289,7.1289,7.1289,7.1222,7.0951,7.05,7.0094,6.9586,6.9147,6.8977,6.8774,6.8402,6.7929,6.759,6.7286,6.7083,6.6927,6.6791,6.6791,6.6791,6.6791,6.6791,6.6791,6.6791,6.6791,6.6791,6.6791,6.6757,6.6791,6.6487,6.6068,6.5967,6.5967,6.5797,6.5561,6.5324,6.5155,6.4816,6.4444,6.4174,6.3869,6.3497,8.2186,8.2186,8.2186,8.2186,8.2186,8.2186,8.2186,8.2186,8.2186,8.2186,8.2186,8.2186,8.2186,8.2186,8.2186,8.2186,8.2186,8.2186,8.2186,8.2186,8.2186,8.2186,8.2186,8.2186,8.2186,8.2186,8.2186,8.2186,8.2186,8.2186,8.2186,8.2186,8.2186,8.2186,8.2186,8.2186,8.2186,8.2186,8.2186,8.2186,8.2186,8.2186,8.2186,8.2186,8.2121,8.1919,8.1336,8.0714,7.9977,7.8867,7.7843,7.6886,7.6129,7.5583,7.5025,7.4387,7.3821,7.3534,7.35,7.35,7.3466,7.3443,7.3138,7.3003,7.2902,7.2665,7.2225,7.1887,7.1391,7.1289,7.1289,7.1323,7.1289,7.1289,7.1289,7.1289,7.1289,7.1289,7.1041,7.0737,7.0534,7.0161,6.9722,6.9485,6.9214,6.8774,6.8233,6.7827,6.7455,6.7151,6.696,6.6791,6.6791,6.6791,6.6791,6.6791,6.6791,6.6791,6.6791,6.6791,6.6791,6.6791,6.6791,6.6622,6.6656,6.6609,6.6542,6.6237,6.6,6.573,6.5459,6.5189,6.4986,6.4715,6.4309,8.2186,8.2186,8.2186,8.2186,8.2186,8.2186,8.2186,8.2186,8.2186,8.2186,8.2186,8.2186,8.2186,8.2186,8.2186,8.2186,8.2186,8.2186,8.2186,8.2186,8.2186,8.2186,8.2186,8.2186,8.2186,8.2186,8.2186,8.2186,8.2186,8.2186,8.2186,8.2186,8.2186,8.2186,8.2186,8.2186,8.2186,8.2186,8.2186,8.2186,8.2186,8.2186,8.2186,8.2121,8.1985,8.1422,8.075,7.9804,7.8963,7.7971,7.6972,7.6126,7.602,7.5818,7.5158,7.4187,7.395,7.395,7.3984,7.4041,7.4177,7.4187,7.3849,7.3747,7.3612,7.3443,7.3161,7.2631,7.2225,7.1887,7.1954,7.1684,7.156,7.1515,7.1424,7.1289,7.1289,7.1289,7.1289,7.1188,7.1289,7.1019,7.0466,7.0331,7.0094,6.9586,6.9045,6.8639,6.8233,6.7489,6.7163,6.6893,6.6791,6.6791,6.6791,6.6791,6.6791,6.6791,6.6791,6.6791,6.6791,6.6791,6.6791,6.6791,6.6791,6.6724,6.6791,6.6791,6.6487,6.6237,6.6102,6.5967,6.5797,6.5392,6.4918,8.2186,8.2186,8.2186,8.2186,8.2186,8.2186,8.2186,8.2186,8.2186,8.2186,8.2186,8.2186,8.2186,8.2186,8.2186,8.2186,8.2186,8.2186,8.2186,8.2186,8.2186,8.2186,8.2186,8.2186,8.2186,8.2186,8.2186,8.2186,8.2186,8.2186,8.2186,8.2186,8.2186,8.2186,8.2186,8.2186,8.2186,8.2186,8.2186,8.2186,8.2186,8.2186,8.2186,8.2042,8.151,8.0966,8.0622,7.9702,7.8801,7.8515,7.7563,7.7093,7.6994,7.6184,7.5761,7.5473,7.5439,7.5439,7.5303,7.5168,7.5168,7.5033,7.4796,7.4559,7.4356,7.3916,7.3567,7.3409,7.3172,7.3037,7.2834,7.2563,7.236,7.2056,7.1785,7.1492,7.1357,7.1289,7.1289,7.1289,7.1289,7.1289,7.1019,7.0985,7.0939,7.0398,6.9891,6.9451,6.8977,6.8267,6.7523,6.7218,6.7049,6.7049,6.6791,6.6791,6.6791,6.6791,6.6791,6.6791,6.6791,6.6791,6.6791,6.6791,6.6791,6.6791,6.6791,6.6791,6.6791,6.669,6.6474,6.6542,6.6656,6.617,6.5561,8.2186,8.2186,8.2186,8.2186,8.2186,8.2186,8.2186,8.2186,8.2186,8.2186,8.2186,8.2186,8.2186,8.2186,8.2186,8.2186,8.2186,8.2223,8.2186,8.2223,8.2223,8.2223,8.2186,8.2186,8.2186,8.226,8.2186,8.2186,8.2186,8.2186,8.2186,8.2186,8.2186,8.2186,8.2186,8.2186,8.2186,8.2186,8.2186,8.2186,8.2186,8.2223,8.2443,8.283,8.1953,8.145,8.0909,7.9754,7.8659,7.8077,7.6994,7.6393,7.6335,7.5949,7.5676,7.5676,7.5676,7.5642,7.5642,7.5676,7.5676,7.5676,7.5405,7.5236,7.5067,7.4593,7.4119,7.4119,7.3713,7.3544,7.3567,7.3206,7.3128,7.28,7.236,7.2022,7.1751,7.1357,7.1289,7.1289,7.1289,7.1289,7.1289,7.1222,7.112,7.0872,7.0398,6.9958,6.9553,6.9045,6.8301,6.759,6.7455,6.7354,6.6994,6.6791,6.6825,6.6825,6.6791,6.6791,6.6791,6.6791,6.6791,6.6791,6.6791,6.6791,6.6791,6.6791,6.6791,6.6791,6.6791,6.6791,6.6791,6.6724,6.617,8.2186,8.2186,8.2186,8.2186,8.2186,8.2186,8.2186,8.2186,8.2186,8.2186,8.2186,8.2186,8.2186,8.2186,8.2186,8.2186,8.2223,8.237,8.248,8.2517,8.2553,8.27,8.2737,8.2663,8.2333,8.2517,8.2627,8.2443,8.2296,8.237,8.248,8.2223,8.2186,8.2186,8.2186,8.2223,8.226,8.259,8.2296,8.2443,8.2774,8.2663,8.303,8.3148,8.2747,8.1864,8.1208,7.9513,7.8013,7.6972,7.6266,7.5865,7.5794,7.5747,7.5676,7.5676,7.5676,7.5676,7.5676,7.5676,7.5676,7.5676,7.5676,7.5574,7.5574,7.5134,7.4864,7.4864,7.4525,7.4221,7.4041,7.395,7.3781,7.3544,7.3105,7.2766,7.2394,7.2022,7.1526,7.1289,7.1289,7.1289,7.1289,7.1289,7.1255,7.1188,7.0872,7.0432,7.006,6.9688,6.9079,6.8335,6.8166,6.7963,6.7455,6.7151,6.7049,6.6914,6.6859,6.6791,6.6791,6.6791,6.6791,6.6791,6.6791,6.6791,6.6791,6.6791,6.6791,6.6791,6.6791,6.6791,6.6791,6.6791,6.6724,8.2186,8.2186,8.2186,8.2186,8.2186,8.2186,8.2186,8.2186,8.2186,8.2186,8.2186,8.2186,8.2186,8.2223,8.226,8.226,8.2333,8.2994,8.3214,8.3287,8.3344,8.3654,8.3618,8.3177,8.2737,8.3234,8.3308,8.292,8.2627,8.3141,8.281,8.2296,8.248,8.2296,8.2296,8.2443,8.281,8.303,8.2847,8.3177,8.3621,8.3644,8.3557,8.3734,8.272,8.1333,8.0319,7.8624,7.7292,7.6266,7.5889,7.5709,7.5676,7.5676,7.5676,7.5676,7.5676,7.5676,7.5676,7.5676,7.5676,7.5676,7.5676,7.5676,7.5676,7.5676,7.5574,7.5473,7.5168,7.527,7.5134,7.4999,7.4593,7.4322,7.3916,7.3409,7.3003,7.2631,7.2124,7.1526,7.1357,7.1458,7.1289,7.1289,7.1289,7.1255,7.1222,7.0804,7.0567,7.0195,6.9755,6.9248,6.9079,6.8707,6.803,6.7793,6.7692,6.7354,6.7129,6.696,6.6791,6.6791,6.6791,6.6791,6.6791,6.6791,6.6791,6.6791,6.6791,6.6791,6.6791,6.6791,6.6791,6.6791,6.6791,8.2186,8.2186,8.2186,8.2186,8.2186,8.2186,8.2186,8.2186,8.2186,8.2186,8.2186,8.2223,8.248,8.27,8.2443,8.281,8.3508,8.3344,8.3765,8.4022,8.4242,8.4352,8.4242,8.4168,8.3875,8.4095,8.4132,8.4058,8.3838,8.3985,8.3985,8.3654,8.3214,8.2977,8.2941,8.2994,8.3434,8.3838,8.3838,8.4095,8.4087,8.366,8.3283,8.3393,8.1724,8.0709,7.9984,7.8291,7.7308,7.6622,7.6054,7.5805,7.5743,7.5743,7.5709,7.5743,7.5743,7.5676,7.5676,7.5676,7.5676,7.5676,7.5676,7.5676,7.5676,7.5676,7.5676,7.5676,7.5676,7.5676,7.5574,7.5439,7.5236,7.51,7.4695,7.4119,7.3646,7.3274,7.2766,7.2191,7.1921,7.1853,7.1582,7.1289,7.1289,7.1289,7.1255,7.121,7.0939,7.0737,7.0331,7.0026,6.9823,6.9417,6.8774,6.8538,6.8335,6.7895,6.7489,6.7231,6.7028,6.6791,6.6791,6.6791,6.6791,6.6791,6.6791,6.6791,6.6791,6.6791,6.6791,6.6791,6.6791,6.6791,6.6791,8.2186,8.2186,8.2186,8.2186,8.2186,8.2186,8.2186,8.2186,8.2186,8.2186,8.2223,8.2443,8.2847,8.3124,8.3251,8.3434,8.4242,8.4352,8.4535,8.4792,8.4939,8.5086,8.5086,8.4866,8.4535,8.4866,8.4939,8.4866,8.4425,8.4792,8.4903,8.4719,8.4425,8.4132,8.3748,8.3785,8.4168,8.4756,8.4682,8.4737,8.4621,8.3901,8.2991,8.2843,8.1393,8.0447,7.9712,7.8324,7.7369,7.6816,7.6328,7.5916,7.5879,7.5879,7.5845,7.5879,7.5845,7.5709,7.5676,7.5676,7.5676,7.5676,7.5676,7.5676,7.5676,7.5676,7.5676,7.5676,7.5676,7.5676,7.5676,7.5608,7.5574,7.5405,7.527,7.4796,7.4356,7.395,7.3409,7.2868,7.2563,7.2157,7.1887,7.1582,7.1323,7.1289,7.1289,7.1255,7.1188,7.1041,7.0939,7.0703,7.0567,7.006,6.9553,6.9383,6.9147,6.847,6.803,6.7624,6.7387,6.7096,6.6825,6.6791,6.6791,6.6791,6.6791,6.6791,6.6791,6.6791,6.6791,6.6791,6.6791,6.6791,6.6791,8.2186,8.2186,8.2186,8.2186,8.2186,8.2186,8.2186,8.2186,8.2186,8.2186,8.2296,8.292,8.3361,8.3601,8.3985,8.4499,8.4939,8.5343,8.5654,8.571,8.5783,8.6224,8.6114,8.571,8.5343,8.5673,8.5747,8.5453,8.4829,8.549,8.5747,8.58,8.5563,8.5306,8.4682,8.4572,8.4976,8.5527,8.5032,8.4971,8.4896,8.4079,8.2973,8.2037,8.1049,8.0054,7.8821,7.8012,7.7114,7.6611,7.6116,7.598,7.6352,7.6048,7.6183,7.6657,7.6115,7.5811,7.5709,7.5709,7.5676,7.5676,7.5676,7.5676,7.5676,7.5676,7.5676,7.5676,7.5676,7.5676,7.5676,7.5676,7.5676,7.5642,7.5506,7.5371,7.4931,7.4728,7.4187,7.368,7.2969,7.2394,7.2157,7.1853,7.1458,7.1323,7.1289,7.1289,7.1289,7.1255,7.121,7.1109,7.0939,7.0737,7.0297,7.0229,6.9891,6.918,6.8639,6.8301,6.7793,6.7332,6.7096,6.6893,6.6791,6.6791,6.6791,6.6791,6.6791,6.6791,6.6791,6.6791,6.6791,6.6791,6.6791,8.2186,8.2186,8.2186,8.2186,8.2186,8.2186,8.2186,8.2186,8.2186,8.2186,8.237,8.3067,8.3748,8.4168,8.4572,8.5196,8.604,8.5637,8.593,8.6554,8.6554,8.6701,8.6684,8.6518,8.6261,8.6518,8.6554,8.6444,8.6261,8.6444,8.6518,8.6591,8.6444,8.6444,8.6114,8.5857,8.5783,8.6233,8.5717,8.5094,8.5018,8.3253,8.1602,8.0758,7.9808,7.8752,7.7682,7.7156,7.6931,7.6424,7.5912,7.6082,7.6386,7.6149,7.6623,7.6893,7.6487,7.6217,7.5912,7.5676,7.5676,7.5676,7.5676,7.5676,7.5676,7.5676,7.5676,7.5676,7.5676,7.5676,7.5676,7.5676,7.5676,7.5676,7.5608,7.5608,7.5371,7.5337,7.5067,7.4525,7.3859,7.3071,7.2597,7.2225,7.1819,7.1481,7.1413,7.1323,7.1289,7.1289,7.1255,7.1255,7.1154,7.1142,7.1007,7.077,7.0534,6.9958,6.9451,6.9079,6.8504,6.7895,6.7332,6.7129,6.696,6.6791,6.6791,6.6791,6.6791,6.6791,6.6791,6.6791,6.6791,6.6791,6.6791,8.237,8.259,8.2627,8.2774,8.292,8.2443,8.2333,8.2517,8.237,8.248,8.3104,8.3654,8.4278,8.4903,8.5416,8.5783,8.6921,8.6554,8.6334,8.6978,8.6978,8.6978,8.6978,8.7014,8.6831,8.7014,8.7014,8.6941,8.6831,8.6941,8.6941,8.6941,8.7014,8.6867,8.6738,8.6518,8.6407,8.6531,8.5901,8.4999,8.408,8.2465,8.0524,7.9599,7.8665,7.7643,7.6985,7.6826,7.6927,7.642,7.6284,7.642,7.6623,7.669,7.7096,7.7164,7.6657,7.6284,7.5811,7.5676,7.5676,7.5676,7.5676,7.5676,7.5676,7.5676,7.5676,7.5676,7.5676,7.5676,7.5676,7.5676,7.5676,7.5676,7.5676,7.5676,7.5642,7.5608,7.554,7.5009,7.457,7.3815,7.3071,7.2597,7.2157,7.1819,7.1515,7.1413,7.1289,7.1289,7.1289,7.1289,7.1289,7.1222,7.1188,7.1154,7.0906,7.0635,7.0195,6.9755,6.9316,6.8707,6.803,6.7421,6.7387,6.7286,6.6893,6.6791,6.6825,6.6825,6.6791,6.6791,6.6791,6.6791,6.6791,8.27,8.3381,8.3418,8.3838,8.4205,8.2994,8.281,8.3344,8.2663,8.3177,8.4499,8.4499,8.5013,8.5783,8.6518,8.6867,8.6941,8.6904,8.6941,8.6978,8.7014,8.7014,8.7014,8.7014,8.7014,8.7014,8.7014,8.7014,8.7014,8.7014,8.7014,8.7014,8.7014,8.7014,8.6941,8.6904,8.6885,8.666,8.5899,8.4872,8.3718,8.1904,8.0372,7.9371,7.8514,7.8077,7.7773,7.7841,7.757,7.7367,7.7468,7.7739,7.7739,7.7358,7.757,7.7401,7.6589,7.6217,7.5743,7.5676,7.5676,7.5676,7.5676,7.5676,7.5676,7.5676,7.5676,7.5676,7.5676,7.5676,7.5676,7.5676,7.5676,7.5676,7.5676,7.5676,7.5676,7.5676,7.5676,7.5371,7.5009,7.439,7.3713,7.3172,7.2766,7.2157,7.1819,7.1515,7.1391,7.1289,7.1289,7.1289,7.1289,7.1289,7.1289,7.1289,7.1222,7.0939,7.0669,7.0263,6.9857,6.9451,6.8808,6.8301,6.8064,6.7793,6.7387,6.7062,6.6927,6.6893,6.6825,6.6791,6.6791,6.6791,6.6791,8.2994,8.4168,8.3638,8.3875,8.4462,8.4095,8.4058,8.4205,8.3985,8.4278,8.4646,8.5196,8.5563,8.5874,8.6628,8.6941,8.7014,8.7014,8.6978,8.7014,8.7014,8.7014,8.7014,8.7014,8.7014,8.7014,8.7014,8.7014,8.7014,8.7014,8.7014,8.7014,8.7014,8.7014,8.7014,8.7014,8.7014,8.6661,8.5787,8.4673,8.3366,8.1693,8.0355,7.9337,7.8889,7.8517,7.8247,7.8619,7.8314,7.7908,7.7874,7.8034,7.7942,7.8213,7.8551,7.7942,7.7435,7.6961,7.598,7.5676,7.5676,7.5676,7.5676,7.5676,7.5676,7.5676,7.5676,7.5676,7.5676,7.5676,7.5676,7.5676,7.5676,7.5676,7.5676,7.5676,7.5676,7.5676,7.5676,7.5608,7.5236,7.4999,7.4356,7.4018,7.3578,7.2766,7.2157,7.1819,7.1515,7.1391,7.1289,7.1289,7.1289,7.1289,7.1289,7.1289,7.1289,7.1188,7.0939,7.0669,7.0297,6.9891,6.9485,6.9079,6.8707,6.8233,6.776,6.759,6.7535,6.6994,6.6825,6.6825,6.6791,6.6791,6.6791,8.3911,8.4939,8.4572,8.4829,8.549,8.5527,8.5563,8.5453,8.4903,8.4866,8.5527,8.571,8.5967,8.6371,8.6794,8.7014,8.7014,8.7014,8.7014,8.7014,8.7014,8.7014,8.7014,8.7014,8.7014,8.7014,8.7014,8.7014,8.7014,8.7014,8.7014,8.7014,8.7014,8.7014,8.7014,8.7014,8.7014,8.6428,8.5544,8.4431,8.3103,8.1514,8.0121,7.9621,7.9329,7.8855,7.8619,7.916,7.8957,7.8382,7.8339,7.8686,7.8517,7.8619,7.7976,7.7299,7.686,7.642,7.5811,7.5676,7.5676,7.5676,7.5676,7.5676,7.5676,7.5676,7.5676,7.5676,7.5676,7.5676,7.5676,7.5676,7.5676,7.5676,7.5676,7.5676,7.5676,7.5676,7.5676,7.5676,7.5574,7.5439,7.5134,7.483,7.439,7.3646,7.2834,7.2191,7.1819,7.1492,7.1357,7.1289,7.1289,7.1289,7.1289,7.1289,7.1289,7.1289,7.1222,7.0939,7.0669,7.05,7.0229,6.9755,6.9248,6.8808,6.8436,6.8368,6.8233,6.7658,6.7163,6.7129,6.7028,6.6791,6.6791,8.5086,8.5894,8.5911,8.6224,8.6941,8.6904,8.6867,8.6831,8.5473,8.56,8.6591,8.6224,8.6334,8.6757,8.6978,8.7014,8.7014,8.7014,8.7014,8.7014,8.7014,8.7014,8.7014,8.7014,8.7014,8.7014,8.7014,8.7014,8.7014,8.7014,8.7014,8.7014,8.7014,8.7014,8.7014,8.7014,8.6856,8.6229,8.4986,8.3691,8.2971,8.1285,7.9539,7.9929,7.9634,7.9194,7.9363,7.9498,7.9566,7.916,7.9126,7.9667,7.9261,7.8585,7.7502,7.669,7.6487,7.6082,7.5845,7.5676,7.5676,7.5676,7.5676,7.5676,7.5676,7.5676,7.5676,7.5676,7.5676,7.5676,7.5676,7.5676,7.5676,7.5676,7.5676,7.5676,7.5676,7.5676,7.5676,7.5676,7.5676,7.554,7.5506,7.5168,7.4806,7.4289,7.3747,7.2935,7.2225,7.1819,7.1526,7.1357,7.1289,7.1289,7.1289,7.1289,7.1289,7.1289,7.1289,7.1255,7.1007,7.1007,7.1019,7.0534,7.0026,6.9586,6.9248,6.9147,6.891,6.8335,6.7895,6.7624,6.7332,6.7096,6.6859,8.5416,8.6701,8.6738,8.6848,8.6995,8.7014,8.7014,8.6978,8.6664,8.6611,8.6904,8.6811,8.6775,8.6941,8.7014,8.7014,8.7014,8.7014,8.7014,8.7014,8.7014,8.7014,8.7014,8.7014,8.7014,8.7014,8.7014,8.7014,8.7014,8.7014,8.7014,8.7014,8.7014,8.7014,8.7014,8.7014,8.6661,8.588,8.4573,8.3522,8.3041,8.2208,8.1084,8.0523,7.9904,7.9837,7.9938,7.9972,8.0006,7.987,7.9972,8.0073,7.9938,7.9228,7.8416,7.757,7.6758,7.6284,7.5845,7.5676,7.5676,7.5676,7.5676,7.5676,7.5676,7.5676,7.5676,7.5676,7.5676,7.5676,7.5676,7.5676,7.5676,7.5676,7.5676,7.5676,7.5676,7.5676,7.5676,7.5676,7.5676,7.5676,7.5642,7.5473,7.5134,7.483,7.4502,7.3849,7.2868,7.2259,7.1819,7.1616,7.1323,7.1289,7.1289,7.1289,7.1289,7.1289,7.1289,7.1289,7.1289,7.1222,7.1154,7.1154,7.0872,7.0364,7.0026,6.9925,6.9586,6.9011,6.8707,6.847,6.803,6.776,6.732,8.6187,8.6978,8.7014,8.7014,8.7014,8.7014,8.7014,8.7014,8.7014,8.7014,8.7014,8.7014,8.7014,8.7014,8.7014,8.7014,8.7014,8.7014,8.7014,8.7014,8.7014,8.7014,8.7014,8.7014,8.7014,8.7014,8.7014,8.7014,8.7014,8.7014,8.7014,8.7014,8.7014,8.7014,8.7014,8.6908,8.6374,8.5317,8.4145,8.3385,8.2883,8.177,8.099,8.0276,8.0209,8.0209,8.0209,8.0209,8.0209,8.0175,8.0175,7.987,7.9667,7.9203,7.8517,7.7671,7.6961,7.6555,7.598,7.5676,7.5676,7.5676,7.5676,7.5676,7.5676,7.5676,7.5676,7.5676,7.5676,7.5676,7.5676,7.5676,7.5676,7.5676,7.5676,7.5676,7.5676,7.5676,7.5676,7.5676,7.5676,7.5676,7.5676,7.5642,7.5371,7.527,7.4999,7.457,7.3646,7.2834,7.236,7.1887,7.1684,7.1357,7.1289,7.1289,7.1289,7.1289,7.1289,7.1289,7.1289,7.1289,7.1255,7.1255,7.1222,7.1075,7.0804,7.0601,7.0263,6.9722,6.9485,6.9316,6.8876,6.8402,6.7996,8.6978,8.7014,8.7014,8.7014,8.7014,8.7014,8.7014,8.7014,8.7014,8.7014,8.7014,8.7014,8.7014,8.7014,8.7014,8.7014,8.7014,8.7014,8.7014,8.7014,8.7014,8.7014,8.7014,8.7014,8.7014,8.7014,8.7014,8.7014,8.7014,8.7014,8.7014,8.7014,8.7014,8.7014,8.6997,8.6679,8.6064,8.4852,8.3713,8.2706,8.1746,8.078,8.0426,8.0259,8.0209,8.0209,8.0209,8.0209,8.0209,8.0209,8.0175,7.9938,7.96,7.9261,7.8416,7.7638,7.7063,7.6487,7.5912,7.5676,7.5676,7.5676,7.5676,7.5676,7.5676,7.5676,7.5676,7.5676,7.5676,7.5676,7.5676,7.5676,7.5676,7.5676,7.5676,7.5676,7.5676,7.5676,7.5676,7.5676,7.5676,7.5676,7.5676,7.5676,7.5642,7.554,7.5303,7.4931,7.4424,7.3713,7.3105,7.2529,7.209,7.1819,7.1391,7.1289,7.1289,7.1289,7.1289,7.1289,7.1289,7.1289,7.1289,7.1289,7.1255,7.1188,7.1222,7.1075,7.0737,7.0397,7.0331,7.0128,6.9553,6.9113,6.8774,8.7014,8.7014,8.7014,8.7014,8.7014,8.7014,8.7014,8.7014,8.7014,8.7014,8.7014,8.7014,8.7014,8.7014,8.7014,8.7014,8.7014,8.7014,8.7014,8.7014,8.7014,8.7014,8.7014,8.7014,8.7014,8.7014,8.7014,8.7014,8.7014,8.7014,8.7014,8.7014,8.7014,8.6943,8.6819,8.6283,8.524,8.413,8.3016,8.1886,8.099,8.0351,8.0276,8.0209,8.0209,8.0209,8.0209,8.0209,8.0209,8.0209,8.0209,8.0073,7.9803,7.9363,7.8551,7.7773,7.7232,7.6487,7.598,7.5743,7.5676,7.5676,7.5676,7.5676,7.5676,7.5676,7.5676,7.5676,7.5676,7.5676,7.5676,7.5676,7.5676,7.5676,7.5676,7.5676,7.5676,7.5676,7.5676,7.5676,7.5676,7.5676,7.5676,7.5676,7.5676,7.5608,7.5608,7.5236,7.483,7.4322,7.3849,7.3274,7.2665,7.1954,7.1424,7.1323,7.1289,7.1289,7.1289,7.1289,7.1289,7.1289,7.1289,7.1289,7.1289,7.1255,7.1289,7.1289,7.1333,7.1094,7.1086,7.0883,7.0341,6.9857,6.9586]}]]